[[{"header":{"parameterUnit":"m.s-1","parameterCategory":1,"la1":30.6,"la2":29.2853,"lo1":-89.7004,"lo2":-87.6739,"dy":0.0162,"dx":0.0183,"nx":112,"ny":82,"refTime":"2023-05-08T00:00:00:Z","depth":0,"parameterNumber":2,"parameterNumberName":"U-component_of_WINDS"},"data":[0.0,0.0,0.0,0.0,0.0,0.0,0.0,0.0,0.0,0.0,0.0,0.0,0.0,0.0,0.0,0.0,0.0,0.0,0.0,0.0,0.0,0.0,0.0,0.0,0.0,0.0,0.0,0.0,0.0,0.0,0.0,0.0,0.0,0.0,0.0,0.0,0.0,0.0,0.0,0.0,0.0,0.0,0.0,0.0,0.0,0.0,0.0,0.0,0.0,0.0,0.0,0.0,0.0,0.0,0.0,0.0,0.0,0.0,0.0,0.0,0.0,0.0,0.0,0.0,0.0,0.0,0.0,0.0,0.0,0.0,0.0,0.0,0.0,0.0,0.0,0.0,0.0,0.0,0.0,0.0,0.0,0.0,0.0,0.0,0.0,0.0,0.0,0.0,0.0,0.0,-3.9311,-3.9783,-4.0434,-4.0803,-4.0683,-4.0372,-4.0272,-4.0538,0.0,0.0,0.0,0.0,0.0,0.0,0.0,0.0,0.0,0.0,0.0,0.0,0.0,0.0,0.0,0.0,0.0,0.0,0.0,0.0,0.0,0.0,0.0,0.0,0.0,0.0,0.0,0.0,0.0,0.0,0.0,0.0,0.0,0.0,0.0,0.0,0.0,0.0,0.0,0.0,0.0,0.0,0.0,0.0,0.0,0.0,0.0,0.0,0.0,0.0,0.0,0.0,0.0,0.0,0.0,0.0,0.0,0.0,0.0,0.0,0.0,0.0,0.0,0.0,0.0,0.0,0.0,0.0,0.0,0.0,0.0,0.0,0.0,0.0,0.0,0.0,0.0,0.0,0.0,0.0,0.0,0.0,0.0,0.0,0.0,0.0,0.0,0.0,0.0,0.0,0.0,0.0,0.0,0.0,0.0,0.0,0.0,0.0,0.0,0.0,0.0,0.0,0.0,0.0,-3.8552,-3.9031,-4.0265,-4.0798,-4.0179,-4.062,-4.0516,-3.958,0.0,0.0,0.0,0.0,0.0,0.0,0.0,0.0,0.0,0.0,0.0,0.0,0.0,0.0,0.0,0.0,0.0,0.0,0.0,0.0,0.0,0.0,0.0,0.0,0.0,0.0,0.0,0.0,0.0,0.0,0.0,0.0,0.0,0.0,0.0,0.0,0.0,0.0,0.0,0.0,0.0,0.0,0.0,0.0,0.0,0.0,0.0,0.0,0.0,0.0,0.0,0.0,0.0,0.0,0.0,0.0,0.0,0.0,0.0,0.0,0.0,0.0,0.0,0.0,0.0,0.0,0.0,0.0,0.0,0.0,0.0,0.0,0.0,0.0,0.0,0.0,0.0,0.0,0.0,0.0,0.0,0.0,0.0,0.0,0.0,0.0,0.0,0.0,0.0,0.0,0.0,0.0,0.0,0.0,0.0,0.0,0.0,0.0,0.0,0.0,0.0,0.0,0.0,-3.9017,-3.888,-3.909,-3.9718,-3.9986,-3.9651,-3.9936,-3.9897,-3.9315,-3.9299,0.0,0.0,0.0,0.0,0.0,0.0,0.0,0.0,0.0,0.0,0.0,0.0,0.0,0.0,0.0,0.0,0.0,0.0,0.0,0.0,0.0,0.0,0.0,0.0,0.0,0.0,0.0,0.0,0.0,0.0,0.0,0.0,0.0,0.0,0.0,0.0,0.0,0.0,0.0,0.0,0.0,0.0,0.0,0.0,0.0,0.0,0.0,0.0,0.0,0.0,0.0,0.0,0.0,0.0,0.0,0.0,0.0,0.0,0.0,0.0,0.0,0.0,0.0,0.0,0.0,0.0,0.0,0.0,0.0,0.0,0.0,0.0,0.0,0.0,0.0,0.0,0.0,0.0,0.0,0.0,0.0,0.0,0.0,0.0,0.0,0.0,0.0,0.0,0.0,0.0,0.0,0.0,0.0,0.0,0.0,0.0,0.0,0.0,0.0,0.0,0.0,0.0,-3.9245,-3.9245,-3.9245,-3.9437,-3.9497,-3.9315,-3.9464,-3.9497,-3.9315,-3.9299,0.0,0.0,0.0,0.0,0.0,0.0,0.0,0.0,0.0,0.0,0.0,0.0,0.0,0.0,0.0,0.0,0.0,0.0,0.0,0.0,0.0,0.0,0.0,0.0,0.0,0.0,0.0,0.0,0.0,0.0,0.0,0.0,0.0,0.0,0.0,0.0,0.0,0.0,0.0,0.0,0.0,0.0,0.0,0.0,0.0,0.0,0.0,0.0,0.0,0.0,0.0,0.0,0.0,0.0,0.0,0.0,0.0,0.0,0.0,0.0,0.0,0.0,0.0,0.0,0.0,0.0,0.0,0.0,0.0,0.0,0.0,0.0,0.0,0.0,0.0,0.0,0.0,0.0,0.0,0.0,0.0,0.0,0.0,0.0,0.0,0.0,0.0,0.0,0.0,0.0,0.0,0.0,0.0,0.0,0.0,0.0,0.0,0.0,0.0,0.0,0.0,0.0,-3.9023,-3.9023,-3.9023,-3.9803,-4.0044,-3.9365,-3.9928,-4.0028,-3.9348,-3.9299,0.0,0.0,0.0,0.0,0.0,0.0,0.0,0.0,0.0,0.0,0.0,0.0,0.0,0.0,0.0,0.0,0.0,0.0,0.0,0.0,0.0,0.0,0.0,0.0,0.0,0.0,0.0,0.0,0.0,0.0,0.0,0.0,0.0,0.0,0.0,0.0,0.0,0.0,0.0,0.0,0.0,0.0,0.0,0.0,0.0,0.0,0.0,0.0,0.0,0.0,0.0,0.0,0.0,0.0,0.0,0.0,0.0,0.0,0.0,0.0,0.0,0.0,0.0,0.0,0.0,0.0,0.0,0.0,0.0,0.0,0.0,0.0,0.0,0.0,0.0,0.0,0.0,0.0,0.0,0.0,0.0,0.0,0.0,0.0,0.0,0.0,0.0,0.0,0.0,0.0,0.0,0.0,0.0,0.0,0.0,0.0,0.0,0.0,0.0,0.0,0.0,0.0,-3.8507,-3.8423,-3.8832,-3.9287,-3.9391,-3.9029,-3.9314,-3.9418,-3.9137,0.0,0.0,0.0,0.0,0.0,0.0,0.0,0.0,0.0,0.0,0.0,0.0,0.0,0.0,0.0,0.0,0.0,0.0,0.0,0.0,0.0,0.0,0.0,0.0,0.0,0.0,0.0,0.0,0.0,0.0,0.0,0.0,0.0,0.0,0.0,0.0,0.0,0.0,0.0,0.0,0.0,0.0,0.0,0.0,0.0,0.0,0.0,0.0,0.0,0.0,0.0,0.0,0.0,0.0,0.0,0.0,0.0,0.0,0.0,0.0,0.0,0.0,0.0,0.0,0.0,0.0,0.0,0.0,0.0,0.0,0.0,0.0,0.0,0.0,0.0,0.0,0.0,0.0,0.0,0.0,0.0,0.0,0.0,0.0,0.0,0.0,0.0,0.0,0.0,0.0,0.0,0.0,0.0,0.0,0.0,0.0,0.0,0.0,0.0,0.0,0.0,0.0,-3.8327,-3.7822,-3.7602,-3.8067,-3.821,-3.8266,-3.8181,-3.8238,-3.8294,-3.8294,0.0,0.0,0.0,0.0,0.0,0.0,0.0,0.0,0.0,0.0,0.0,0.0,0.0,0.0,0.0,0.0,0.0,0.0,0.0,0.0,0.0,0.0,0.0,0.0,0.0,0.0,0.0,0.0,0.0,0.0,0.0,0.0,0.0,0.0,0.0,0.0,0.0,0.0,0.0,0.0,0.0,0.0,0.0,0.0,0.0,0.0,0.0,0.0,0.0,0.0,0.0,0.0,0.0,0.0,0.0,0.0,0.0,0.0,0.0,0.0,0.0,0.0,0.0,0.0,0.0,0.0,0.0,0.0,0.0,0.0,0.0,0.0,0.0,0.0,0.0,0.0,0.0,0.0,0.0,0.0,0.0,0.0,0.0,0.0,0.0,0.0,0.0,0.0,0.0,0.0,0.0,0.0,0.0,0.0,0.0,0.0,0.0,0.0,0.0,0.0,0.0,0.0,-3.7501,-3.6994,-3.6569,-3.6615,-3.6722,-3.6797,-3.6813,-3.6797,-3.6797,0.0,0.0,0.0,0.0,0.0,0.0,0.0,0.0,0.0,0.0,0.0,0.0,0.0,0.0,0.0,0.0,0.0,0.0,0.0,0.0,0.0,0.0,0.0,0.0,0.0,0.0,0.0,0.0,0.0,0.0,0.0,0.0,0.0,0.0,0.0,0.0,0.0,0.0,0.0,0.0,0.0,0.0,0.0,0.0,0.0,0.0,0.0,0.0,0.0,0.0,0.0,0.0,0.0,0.0,0.0,0.0,0.0,0.0,0.0,0.0,0.0,0.0,0.0,0.0,0.0,0.0,0.0,0.0,0.0,0.0,0.0,0.0,0.0,0.0,0.0,0.0,0.0,0.0,0.0,0.0,0.0,0.0,0.0,0.0,0.0,0.0,0.0,0.0,0.0,0.0,0.0,0.0,0.0,0.0,0.0,0.0,0.0,0.0,0.0,0.0,0.0,0.0,0.0,-3.6584,-3.5768,-3.5398,-3.6353,-3.6584,-3.66,-3.6523,-3.6196,-3.6224,-3.663,0.0,0.0,0.0,0.0,0.0,0.0,0.0,0.0,0.0,0.0,0.0,0.0,0.0,0.0,0.0,0.0,0.0,0.0,0.0,0.0,0.0,0.0,0.0,0.0,0.0,0.0,0.0,0.0,0.0,0.0,0.0,0.0,0.0,0.0,0.0,0.0,0.0,0.0,0.0,0.0,0.0,0.0,0.0,0.0,0.0,0.0,0.0,0.0,0.0,0.0,0.0,0.0,0.0,0.0,0.0,0.0,0.0,0.0,0.0,0.0,0.0,0.0,0.0,0.0,0.0,0.0,0.0,0.0,0.0,0.0,0.0,0.0,0.0,0.0,0.0,0.0,0.0,0.0,0.0,0.0,0.0,0.0,0.0,0.0,0.0,0.0,0.0,0.0,0.0,0.0,0.0,0.0,0.0,0.0,0.0,0.0,0.0,0.0,0.0,0.0,0.0,0.0,-3.5458,-3.4444,-3.3953,-3.4766,-3.4921,-3.4937,-3.4859,-3.459,-3.4576,-3.4953,0.0,0.0,0.0,0.0,0.0,0.0,0.0,0.0,0.0,0.0,0.0,0.0,0.0,0.0,0.0,0.0,0.0,0.0,0.0,0.0,0.0,0.0,0.0,0.0,0.0,0.0,0.0,0.0,0.0,0.0,0.0,0.0,0.0,0.0,0.0,0.0,0.0,0.0,0.0,0.0,0.0,0.0,0.0,0.0,0.0,0.0,0.0,0.0,0.0,0.0,0.0,0.0,0.0,0.0,0.0,0.0,0.0,0.0,0.0,0.0,0.0,0.0,0.0,0.0,0.0,0.0,0.0,0.0,0.0,0.0,0.0,0.0,0.0,0.0,0.0,0.0,0.0,0.0,0.0,0.0,0.0,0.0,0.0,0.0,0.0,0.0,0.0,0.0,0.0,0.0,0.0,0.0,0.0,0.0,0.0,0.0,0.0,0.0,0.0,0.0,0.0,0.0,-3.4224,-3.3187,-3.2423,-3.2481,-3.2481,-3.2481,-3.2481,-3.2423,-3.2423,-3.2481,0.0,0.0,0.0,0.0,0.0,0.0,0.0,0.0,0.0,0.0,0.0,0.0,0.0,0.0,0.0,0.0,0.0,0.0,0.0,0.0,0.0,0.0,0.0,0.0,0.0,0.0,0.0,0.0,0.0,0.0,0.0,0.0,0.0,0.0,0.0,0.0,0.0,0.0,0.0,0.0,0.0,0.0,0.0,0.0,0.0,0.0,0.0,0.0,0.0,0.0,0.0,0.0,0.0,0.0,0.0,0.0,0.0,0.0,0.0,0.0,-3.3078,-3.3798,0.0,0.0,0.0,0.0,0.0,0.0,0.0,0.0,0.0,0.0,0.0,0.0,0.0,0.0,0.0,0.0,0.0,0.0,0.0,0.0,0.0,0.0,0.0,0.0,0.0,0.0,0.0,0.0,0.0,0.0,0.0,0.0,0.0,0.0,0.0,0.0,0.0,0.0,0.0,0.0,-3.3597,-3.2535,-3.1932,-3.2423,-3.2481,-3.2481,-3.2481,-3.2034,-3.1961,-3.2452,-3.2019,0.0,0.0,0.0,0.0,0.0,0.0,0.0,0.0,0.0,0.0,0.0,0.0,0.0,0.0,0.0,0.0,0.0,0.0,0.0,0.0,0.0,0.0,0.0,0.0,0.0,0.0,0.0,0.0,0.0,0.0,0.0,0.0,0.0,0.0,0.0,0.0,0.0,0.0,0.0,0.0,0.0,0.0,0.0,0.0,0.0,0.0,0.0,0.0,0.0,0.0,0.0,0.0,0.0,0.0,0.0,0.0,0.0,0.0,0.0,-3.2681,-3.3127,0.0,0.0,0.0,0.0,0.0,0.0,0.0,0.0,0.0,0.0,0.0,0.0,0.0,0.0,0.0,0.0,0.0,0.0,0.0,0.0,0.0,0.0,0.0,0.0,0.0,0.0,0.0,0.0,0.0,0.0,0.0,0.0,0.0,0.0,0.0,0.0,0.0,0.0,0.0,0.0,-3.2865,-3.1685,-3.0991,-3.1385,-3.1445,-3.1445,-3.1445,-3.1127,-3.1022,-3.132,-3.1017,0.0,0.0,0.0,0.0,0.0,0.0,0.0,0.0,0.0,0.0,0.0,0.0,0.0,0.0,0.0,0.0,0.0,0.0,0.0,0.0,0.0,0.0,0.0,0.0,0.0,0.0,0.0,0.0,0.0,0.0,0.0,0.0,0.0,0.0,0.0,0.0,0.0,0.0,0.0,0.0,0.0,0.0,0.0,0.0,0.0,0.0,0.0,0.0,0.0,0.0,0.0,0.0,0.0,-3.1061,-3.1652,-3.2055,-3.2055,-3.1664,-3.0996,-3.2484,-3.2574,-3.1591,-3.211,0.0,0.0,0.0,0.0,0.0,0.0,0.0,0.0,0.0,0.0,0.0,0.0,0.0,0.0,0.0,0.0,0.0,0.0,0.0,0.0,0.0,0.0,-2.8069,-2.8891,-2.8121,-2.7532,-2.8821,0.0,0.0,0.0,0.0,0.0,0.0,0.0,0.0,0.0,0.0,0.0,-3.1718,-3.0545,-2.9775,-2.9901,-2.9901,-2.9901,-2.9901,-2.9901,-2.9839,-2.9744,-2.9713,-2.9467,0.0,0.0,0.0,0.0,0.0,0.0,0.0,0.0,0.0,0.0,0.0,0.0,0.0,0.0,0.0,0.0,0.0,0.0,0.0,0.0,0.0,0.0,0.0,0.0,0.0,0.0,0.0,0.0,0.0,0.0,0.0,0.0,-3.1236,-3.1236,0.0,0.0,0.0,0.0,0.0,0.0,0.0,0.0,0.0,0.0,0.0,0.0,0.0,-2.9275,-2.9091,-2.917,-2.9248,-2.9314,-2.9427,-2.9491,-2.9569,-2.9569,-2.9491,-2.9386,-2.9644,0.0,-3.0198,-2.9781,0.0,0.0,0.0,0.0,0.0,0.0,0.0,0.0,0.0,0.0,0.0,0.0,0.0,0.0,0.0,0.0,0.0,0.0,0.0,0.0,0.0,0.0,-2.5753,-2.5882,-2.5763,-2.5668,-2.587,-2.8,-2.9952,-3.0158,-3.0171,-3.0616,0.0,0.0,0.0,0.0,0.0,0.0,-2.9435,-2.8702,-2.8279,-2.8312,-2.8312,-2.8312,-2.8312,-2.8312,-2.8312,-2.8293,-2.8293,-2.8214,-2.8149,-2.8166,0.0,0.0,0.0,0.0,0.0,0.0,0.0,0.0,0.0,0.0,0.0,0.0,0.0,0.0,0.0,0.0,0.0,0.0,0.0,0.0,0.0,0.0,0.0,0.0,0.0,0.0,0.0,0.0,0.0,-3.1776,-3.1585,-3.1697,-3.1909,-3.1959,0.0,0.0,0.0,0.0,0.0,0.0,0.0,0.0,0.0,-2.8922,-2.9052,-2.8973,-2.8788,-2.8973,-2.9052,-2.8922,-2.9052,-2.9052,-2.8922,-2.8922,-2.8882,-2.8736,-2.8736,-2.8922,-2.9168,-2.9123,-2.9318,-2.9581,0.0,0.0,0.0,0.0,-2.8274,-2.7928,-2.7152,-2.6883,-2.6846,-2.6773,0.0,0.0,0.0,0.0,0.0,0.0,0.0,-2.6765,-2.6238,-2.5925,-2.5673,-2.5384,-2.5312,-2.5312,-2.5312,-2.6346,-2.7567,-2.8447,-2.8842,-2.9412,-3.0587,-3.0549,0.0,0.0,0.0,-2.9154,-2.8838,-2.8146,-2.7756,-2.7828,-2.7828,-2.7828,-2.7828,-2.7828,-2.7808,-2.7723,-2.7736,-2.7537,-2.7103,-2.7577,-2.763,0.0,0.0,0.0,0.0,0.0,0.0,0.0,0.0,0.0,0.0,0.0,0.0,0.0,0.0,0.0,0.0,0.0,0.0,0.0,0.0,0.0,0.0,0.0,0.0,0.0,0.0,0.0,0.0,-3.1738,-3.1531,-3.1793,-3.1568,-3.1501,0.0,0.0,0.0,0.0,0.0,0.0,-2.9013,-2.9,-2.8922,-2.8724,-2.8855,-2.8776,-2.851,-2.8776,-2.8855,-2.8724,-2.8855,-2.8855,-2.8724,-2.8724,-2.8657,-2.851,-2.851,-2.851,-2.851,-2.8816,-2.8973,-2.9,-2.9,-2.8721,-2.8269,-2.8096,-2.7679,-2.7115,-2.6372,-2.613,-2.6081,-2.5937,-2.5828,-2.5872,-2.6277,0.0,0.0,0.0,0.0,-2.6549,-2.6033,-2.5889,-2.5793,-2.5396,-2.5312,-2.5312,-2.5312,-2.5408,-2.579,-2.6814,-2.7331,-2.7931,-2.9061,-2.9095,0.0,-2.9201,-2.8602,-2.803,-2.7846,-2.7327,-2.6989,-2.7064,-2.7098,-2.7098,-2.7098,-2.7098,-2.7043,-2.6934,-2.6934,-2.671,-2.6139,-2.6739,-2.6828,-2.6261,0.0,0.0,0.0,0.0,0.0,0.0,0.0,0.0,0.0,0.0,0.0,0.0,0.0,0.0,0.0,0.0,0.0,0.0,0.0,0.0,0.0,0.0,0.0,0.0,0.0,0.0,0.0,0.0,0.0,-3.0807,-3.0413,0.0,0.0,0.0,0.0,-3.0019,-2.945,-2.9013,-2.8843,-2.8843,-2.8724,-2.851,-2.851,-2.851,-2.851,-2.851,-2.851,-2.851,-2.851,-2.851,-2.851,-2.851,-2.851,-2.851,-2.851,-2.851,-2.851,-2.851,-2.8657,-2.8843,-2.8843,-2.8592,-2.8232,-2.7505,-2.6907,-2.6372,-2.5612,-2.5348,-2.5348,-2.5348,-2.5156,-2.4989,-2.4975,-2.5381,0.0,0.0,-2.6142,-2.6021,-2.5492,-2.5348,-2.5336,-2.5312,-2.5312,-2.5312,-2.5312,-2.5709,-2.5913,-2.5503,-2.5443,-2.5895,-2.7216,0.0,-2.6769,-2.7334,-2.6908,-2.6245,-2.5548,-2.543,-2.5406,-2.5406,-2.5406,-2.5406,-2.5406,-2.5406,-2.5406,-2.5406,-2.5406,-2.537,-2.5382,-2.5406,-2.5406,-2.5382,-2.5406,0.0,0.0,0.0,0.0,0.0,0.0,0.0,0.0,0.0,0.0,0.0,0.0,0.0,0.0,0.0,0.0,0.0,0.0,0.0,0.0,0.0,0.0,0.0,0.0,0.0,0.0,0.0,0.0,-3.0733,-3.0192,0.0,-3.0102,-2.9902,-2.9593,-2.9251,-2.8925,-2.8657,-2.8618,-2.8618,-2.8578,-2.851,-2.851,-2.851,-2.851,-2.851,-2.851,-2.851,-2.851,-2.8219,-2.7684,-2.7684,-2.7336,-2.6741,-2.6741,-2.6741,-2.6741,-2.6741,-2.7499,-2.8618,-2.8618,-2.8331,-2.7772,-2.6635,-2.5904,-2.53,-2.4474,-2.4028,-2.3841,-2.3841,-2.377,-2.3683,-2.3683,-2.3817,-2.3966,-2.4073,-2.4101,-2.4166,-2.4467,-2.4528,-2.4671,-2.5194,-2.5312,-2.5312,-2.5312,-2.5456,-2.554,-2.5348,-2.5588,-2.5877,-2.5992,-2.5809,-2.576,-2.5978,-2.5809,-2.5594,-2.5335,-2.5312,-2.5312,-2.5312,-2.5312,-2.5168,-2.4831,-2.4807,-2.4662,-2.4338,-2.4314,-2.447,-2.4748,-2.4807,-2.4963,-2.53,-2.5312,-2.5216,0.0,0.0,0.0,0.0,0.0,0.0,0.0,0.0,0.0,0.0,0.0,0.0,0.0,0.0,0.0,0.0,0.0,0.0,0.0,0.0,0.0,0.0,0.0,0.0,0.0,-2.9963,-2.9448,-3.0144,-2.9641,-2.9371,-2.9752,-2.946,-2.894,-2.8299,-2.8419,-2.8219,-2.7632,-2.7886,-2.7926,-2.7592,-2.7592,-2.7592,-2.7592,-2.7592,-2.7592,-2.7592,-2.7592,-2.7296,-2.6712,-2.6712,-2.637,-2.5777,-2.5777,-2.5777,-2.5777,-2.5777,-2.6494,-2.7592,-2.7592,-2.7277,-2.6658,-2.5802,-2.5041,-2.4367,-2.3622,-2.3209,-2.2957,-2.2697,-2.2585,-2.2585,-2.2585,-2.2585,-2.266,-2.292,-2.2995,-2.3095,-2.361,-2.3672,-2.3745,-2.4264,-2.4337,-2.4301,-2.4301,-2.4301,-2.4301,-2.4301,-2.5134,-2.5721,-2.5372,-2.5312,-2.5312,-2.5312,-2.5312,-2.5312,-2.5312,-2.5312,-2.5312,-2.5312,-2.5312,-2.5168,-2.4784,-2.4592,-2.4374,-2.4049,-2.3902,-2.395,-2.4254,-2.4434,-2.4687,-2.5035,-2.5035,-2.5096,-2.5241,0.0,0.0,0.0,0.0,0.0,0.0,0.0,0.0,0.0,0.0,0.0,0.0,0.0,0.0,0.0,0.0,0.0,0.0,0.0,0.0,0.0,0.0,0.0,-2.9113,-2.8719,-2.8435,-2.8936,-2.8692,-2.8663,-2.9138,-2.873,-2.8059,-2.7226,-2.7926,-2.7672,-2.5902,-2.667,-2.6753,-2.5819,-2.5777,-2.5777,-2.5777,-2.5777,-2.5777,-2.5777,-2.5777,-2.5788,-2.5746,-2.5746,-2.5735,-2.5704,-2.5704,-2.5704,-2.5704,-2.5704,-2.5704,-2.5735,-2.5777,-2.5494,-2.5009,-2.4976,-2.4339,-2.3471,-2.3046,-2.2931,-2.282,-2.2021,-2.1756,-2.1756,-2.1756,-2.1756,-2.1918,-2.2697,-2.292,-2.292,-2.2957,-2.275,-2.2553,-2.259,-2.244,-2.2291,-2.2291,-2.2291,-2.2291,-2.2291,-2.3854,-2.5241,-2.5229,-2.5264,-2.5312,-2.5312,-2.5312,0.0,-2.5312,-2.53,-2.5288,-2.5312,-2.53,-2.5288,-2.5288,-2.4795,-2.446,-2.4436,-2.4001,-2.377,-2.3806,-2.4242,-2.4472,-2.4508,-2.4508,-2.4703,-2.504,0.0,0.0,0.0,0.0,0.0,0.0,0.0,0.0,0.0,0.0,0.0,0.0,0.0,0.0,0.0,0.0,0.0,0.0,0.0,0.0,0.0,-2.6791,-2.6195,-2.7464,-2.7584,-2.7291,-2.6791,-2.7211,-2.7353,-2.6809,-2.6614,-2.6453,-2.6205,-2.6412,-2.6329,-2.5819,-2.6027,-2.608,-2.5819,-2.5777,-2.5777,-2.5777,-2.5777,-2.5777,-2.5777,-2.5777,-2.5453,-2.4872,-2.4872,-2.4488,-2.3854,-2.3854,-2.3854,-2.3854,-2.3854,-2.3854,-2.3983,-2.5274,-2.5701,-2.5422,-2.417,-2.2926,-2.1788,-2.1403,-2.1454,-2.1607,-2.1082,-2.0944,-2.0944,-2.0944,-2.0944,-2.0982,-2.1203,-2.1165,-2.1165,-2.1766,-2.1707,-2.1659,-2.2253,-2.2328,-2.2291,-2.2291,-2.2291,-2.2291,-2.2291,-2.2739,-2.3368,-2.4084,-2.4826,-2.5312,-2.5312,-2.5312,-2.5312,-2.5312,-2.4975,-2.4879,-2.5264,-2.4963,-2.4735,-2.4735,-2.4266,-2.3821,-2.3424,-2.2919,-2.2999,-2.377,-2.3938,-2.4304,-2.492,-2.4803,-2.4459,0.0,0.0,0.0,0.0,0.0,0.0,0.0,0.0,0.0,0.0,0.0,0.0,0.0,0.0,0.0,0.0,0.0,0.0,0.0,0.0,0.0,0.0,-2.5222,-2.462,-2.525,-2.5752,-2.5883,-2.5326,-2.6038,-2.6412,-2.5872,-2.5777,-2.5652,-2.5284,-2.5568,-2.5484,-2.4691,-2.5031,-2.5073,-2.4691,-2.4691,-2.4691,-2.4691,-2.4691,-2.4691,-2.4691,-2.4691,-2.4402,-2.3907,-2.3907,-2.3604,-2.3091,-2.3091,-2.3091,-2.3091,-2.3091,-2.3091,0.0,0.0,0.0,0.0,0.0,-2.2039,-2.1132,-2.0723,-2.0732,-2.0908,-2.0693,-2.0605,-2.0566,-2.0489,-2.045,-2.045,-2.0333,-2.0216,-2.0255,-2.0702,-2.0663,-2.0576,-2.1058,-2.1086,-2.1048,-2.1048,-2.1048,-2.1048,-2.1048,-2.1382,0.0,-2.221,-2.3392,-2.4248,-2.4284,-2.4377,-2.4574,-2.4858,-2.4359,-2.419,-2.4626,-2.4318,-2.4138,-2.4206,-2.3737,0.0,0.0,0.0,-2.2496,-2.3122,-2.3102,0.0,0.0,0.0,-2.3475,-2.2888,0.0,0.0,0.0,-2.3815,-2.3583,0.0,0.0,0.0,0.0,0.0,0.0,0.0,0.0,0.0,0.0,0.0,0.0,0.0,0.0,0.0,0.0,-2.3677,-2.3091,-2.3091,-2.382,-2.4327,-2.4327,-2.5115,-2.561,-2.5495,-2.5484,-2.5158,-2.4413,-2.5073,-2.4776,-2.3178,-2.3897,0.0,0.0,0.0,-2.3091,-2.3091,-2.3091,-2.3091,-2.3091,-2.3091,-2.3091,-2.3091,-2.3091,-2.3091,-2.3091,-2.3091,-2.3091,-2.3091,-2.3091,-2.3101,-2.3057,-2.3101,-2.3062,-2.2925,-2.2136,-2.157,-2.1132,-2.0683,0.0,0.0,-2.0527,-2.0527,-2.0527,-2.0303,-2.0264,-2.0225,-1.9981,-1.9863,-1.9863,-1.9863,-1.9715,-1.9557,-1.9557,-1.9429,-1.9301,-1.9301,-1.9301,-1.9301,-1.9301,-2.0031,-2.0486,-2.0033,-2.1449,-2.268,-2.2695,-2.2903,-2.3289,-2.386,-2.3382,-2.3089,-2.3449,0.0,0.0,-2.3482,-2.3007,-2.2698,-2.2698,-2.2238,-2.2019,-2.215,-2.1998,-2.2018,-2.2269,-2.2253,-2.2103,-2.1838,-2.1838,-2.1735,-2.1527,-2.2,-2.2103,0.0,0.0,0.0,0.0,0.0,0.0,0.0,0.0,0.0,0.0,0.0,0.0,0.0,0.0,0.0,-2.388,-2.3457,-2.3091,-2.3091,-2.3266,-2.3353,-2.3353,-2.4198,-2.4445,-2.3681,-2.3637,-2.356,-2.3396,-2.3517,-2.3474,-2.3135,-2.3266,-2.3309,-2.3101,-2.3091,-2.3091,-2.3091,-2.3091,-2.3091,-2.3091,-2.3091,0.0,-2.3091,-2.3091,-2.3091,-2.3091,-2.3091,-2.3091,-2.3091,-2.3091,-2.3013,-2.2882,-2.3057,-2.2886,-2.2526,-2.1832,-2.1419,-2.1092,-2.029,-2.0294,-2.0527,-2.0177,-2.0177,-2.0303,-2.0059,-1.9981,0.0,-1.9902,-1.9794,-1.9676,-1.9676,-1.9508,-1.9341,-1.9341,-1.9341,-1.9301,-1.9301,-1.9301,-1.9301,-1.9301,-1.946,-1.9375,-1.8648,-2.0402,-2.1811,-2.1504,-2.1479,-2.1561,-2.1684,-2.121,-2.1068,-2.1554,-2.1213,-2.1102,-2.16,-2.1125,-2.0807,-2.0807,-2.0719,-2.0826,-2.1172,-2.1378,-2.1702,-2.2054,-2.1935,-2.1527,-2.0798,-2.0798,-2.045,-1.9805,-2.125,-2.1489,0.0,0.0,0.0,0.0,0.0,0.0,0.0,0.0,0.0,0.0,0.0,-2.3779,-2.3789,0.0,-2.3467,-2.3467,-2.3237,-2.3169,-2.3437,-2.3227,-2.3091,-2.3091,-2.3517,-2.3604,-2.3135,-2.3091,-2.3091,-2.3091,-2.3091,-2.3091,-2.3091,-2.3091,-2.3091,-2.3091,-2.3091,-2.3091,-2.3091,-2.3091,-2.3091,-2.3091,-2.3091,-2.3091,-2.3091,-2.3091,-2.3091,-2.3091,-2.3013,-2.2969,-2.2925,-2.2794,-2.2581,-2.2312,-2.2399,-2.2217,-2.1784,-2.1237,-2.0857,-2.0474,-2.0057,-2.0059,-2.0216,-1.9981,-1.9981,-2.0069,-1.9833,-1.9754,-1.9715,-1.9627,-1.9548,-1.9429,-1.9429,-1.9381,-1.9301,-1.9301,-1.9301,-1.9301,-1.9301,-1.9301,-1.9301,-1.9301,-1.9301,-1.9045,-1.8219,-1.9102,-1.9915,-1.9889,-1.9979,-2.0157,-2.0517,-2.0009,-1.982,-2.0234,-1.9997,-1.9954,-2.0279,-2.0043,-1.9915,-1.9915,-1.9859,-1.98,-1.9867,-1.9946,-2.0102,-2.0338,-2.0291,-2.013,-1.9883,-1.9883,-1.9687,-1.9301,-2.0148,-2.0304,0.0,0.0,0.0,0.0,0.0,0.0,0.0,-2.4297,-2.4424,-2.4004,-2.418,-2.4316,-2.3975,-2.3984,-2.3896,-2.3413,-2.3413,-2.3603,-2.3877,-2.3603,-2.3344,-2.3344,-2.3198,-2.3091,-2.3091,-2.3091,-2.3091,-2.3091,-2.3091,-2.3091,-2.3091,-2.3091,-2.3091,-2.3091,-2.3091,-2.3091,-2.3091,-2.3091,-2.3091,-2.3091,-2.3091,-2.3091,-2.3091,-2.3057,-2.3057,-2.3013,-2.2838,-2.2706,-2.2715,-2.2485,-2.2151,-2.173,-2.1655,-2.1363,-2.0897,-2.0658,-2.0318,-2.0016,-1.9852,-1.9824,-1.9902,-1.9824,-1.9824,-1.9784,-1.9597,-1.9557,-1.9518,-1.9341,-1.9301,-1.9301,-1.9301,-1.9301,-1.9301,-1.9301,-1.9301,-1.9301,-1.9301,-1.9301,-1.9301,-1.9301,-1.9237,-1.8962,-1.8247,-1.8054,-1.8072,-1.8318,-1.8502,-1.8799,-1.9339,-1.8924,-1.87,-1.898,-1.889,-1.8867,-1.898,-1.898,-1.898,-1.898,-1.889,-1.8734,-1.8549,-1.8447,-1.8463,-1.8586,-1.8678,-1.8871,-1.9191,-1.9265,-1.9301,-1.9301,-1.9301,-1.9301,-2.5893,-2.5924,-2.6091,-2.5771,-2.5625,-2.5478,0.0,-2.5008,-2.4873,-2.4434,-2.4385,-2.4404,-2.4355,-2.4658,-2.4785,-2.4346,-2.46,-2.4736,-2.4394,-2.4307,-2.4268,-2.4268,-2.3559,-2.3091,-2.3091,-2.3091,-2.3091,-2.3091,-2.3091,-2.3091,-2.3091,-2.3091,-2.3091,-2.3091,-2.3091,-2.3091,-2.3091,-2.3091,-2.3091,-2.3091,-2.3091,-2.3091,-2.3091,-2.2925,-2.2847,-2.2803,-2.2574,-2.2441,-2.2441,-2.2388,-2.2055,-2.1512,-2.1156,-2.0597,-2.0071,-2.0279,-2.0426,-2.0403,-1.9629,-1.9578,-1.9824,-1.946,-1.9469,-1.9597,-1.939,-1.9341,-1.9341,-1.9301,-1.9301,-1.9301,-1.9301,-1.9301,-1.9301,-1.9301,-1.9301,-1.9301,-1.9301,-1.9301,-1.9301,-1.9301,-1.9017,-1.8641,-1.8164,-1.7816,-1.7467,-1.7132,-1.71,-1.716,-1.7232,-1.7169,-1.7141,-1.7201,-1.7166,-1.7176,-1.7201,-1.7201,-1.7201,-1.7201,-1.7166,-1.7318,-1.762,-1.7629,-1.7788,-1.8145,-1.854,-1.8733,-1.8779,-1.9127,-1.9301,-1.9301,-1.9301,-1.9301,-2.5727,-2.5779,-2.582,-2.5732,-2.5693,-2.5567,-2.5166,-2.5273,-2.5332,-2.4893,-2.5,-2.5138,-2.5138,-2.5332,-2.54,-2.5167,-2.5342,-2.5391,-2.5157,-2.4961,-2.4795,-2.4795,-2.4043,-2.3516,-2.3516,-2.3247,-2.3091,-2.3091,-2.3091,-2.3091,-2.3091,-2.3091,-2.3091,-2.3091,-2.3091,-2.3091,-2.3091,-2.3091,-2.3091,-2.3091,-2.3091,-2.3057,-2.2925,-2.2838,-2.2671,-2.2407,-2.2264,-2.2132,-2.198,-2.1729,-2.1482,-2.1216,-2.0588,-2.0301,-2.0218,-1.9863,-1.9759,-1.9771,-1.9445,-1.942,-1.9499,-1.9341,-1.9341,-1.9429,-1.9341,-1.9301,-1.9301,-1.9301,-1.9301,-1.9301,-1.9301,-1.9301,-1.9301,-1.9301,-1.9301,-1.9301,-1.9301,-1.9301,-1.9228,-1.8999,-1.8825,-1.8513,-1.7871,-1.7614,-1.7358,-1.6963,-1.6908,-1.6908,-1.6908,-1.6908,-1.6908,-1.6908,-1.6908,-1.6908,-1.6908,-1.6908,-1.6908,-1.6908,-1.6908,-1.6982,-1.7147,-1.7156,-1.7339,-1.7752,-1.7917,-1.8238,-1.8715,-1.888,-1.9072,-1.9301,-1.9301,-1.9301,-2.5567,-2.5693,-2.5693,-2.5693,-2.5693,-2.5606,-2.5322,-2.5508,-2.5644,-2.5322,-2.5605,-2.5869,-2.5869,-2.6113,-2.623,-2.6064,-2.6191,-2.623,-2.6064,-2.5713,-2.5478,-2.5478,-2.4668,-2.4102,-2.3975,-2.3467,-2.3091,-2.3091,-2.3091,-2.3091,-2.3091,-2.3091,-2.3091,-2.3091,-2.3091,-2.3091,-2.3091,-2.3091,-2.3091,-2.3091,-2.3091,-2.3013,-2.2803,-2.2671,-2.2362,-2.2008,-2.2008,-2.1874,-2.1668,-2.141,-2.1209,-2.1044,-2.0475,-2.0323,-2.0438,-1.9732,-1.9476,-1.9457,-1.9347,-1.9301,-1.9301,-1.9301,-1.9301,-1.9301,-1.9301,-1.9301,-1.9301,-1.9301,-1.9301,-1.9301,-1.9301,-1.9301,-1.9301,-1.9301,-1.9301,-1.9301,-1.9301,-1.9301,-1.9219,-1.8935,-1.8696,-1.8366,-1.777,-1.7486,-1.7238,-1.6945,-1.6908,-1.6908,-1.6908,-1.6908,-1.6908,-1.6908,-1.6908,-1.6908,-1.6908,-1.6908,-1.6908,-1.6908,-1.6908,-1.6908,-1.6908,-1.6908,-1.7092,-1.7486,-1.7614,-1.8018,-1.8715,-1.8815,-1.9026,-1.9301,-1.9301,-1.9301,-2.5567,-2.5693,-2.5693,-2.5693,-2.5693,-2.5684,-2.5674,-2.5674,-2.5684,-2.5674,-2.6064,-2.6367,-2.6367,-2.7051,-2.7471,-2.7041,-2.7334,-2.7461,-2.7031,-2.6611,-2.6348,-2.6348,-2.5566,-2.4863,-2.4443,-2.3588,-2.3091,-2.3091,-2.3091,-2.3091,-2.3091,-2.3091,-2.3091,-2.3091,-2.3091,-2.3091,-2.3091,-2.3091,-2.3091,-2.3091,-2.3091,-2.3013,-2.2803,-2.2318,-2.1963,-2.1687,-2.1687,-2.1696,-2.1696,-2.1678,-2.1431,-2.1108,-2.108,-2.0842,-2.0466,-2.0021,-1.9866,-1.9811,-1.9439,-1.9301,-1.9301,-1.9301,-1.9301,-1.9301,-1.9301,-1.9301,-1.9301,-1.9301,-1.9301,-1.9301,-1.9301,-1.9301,-1.9301,-1.9301,-1.9301,-1.9301,-1.9301,-1.9301,-1.9292,-1.9283,-1.8669,-1.81,-1.8072,-1.7449,-1.6917,-1.6908,-1.6908,-1.6908,-1.6908,-1.6908,-1.6908,-1.6908,-1.6908,-1.6908,-1.6908,-1.6908,-1.6908,-1.6908,-1.6908,-1.6908,-1.6908,-1.6908,-1.7092,-1.7486,-1.7899,-1.8311,-1.8715,-1.91,-1.9292,-1.9301,-1.9301,-1.9301,-2.5489,-2.5693,-2.5693,-2.5693,-2.5693,-2.5693,-2.5693,-2.5693,-2.5771,-2.6113,-2.6514,-2.6894,-2.7187,-2.7705,-2.8037,-2.7891,-2.7988,-2.793,-2.75,-2.707,-2.6699,-2.6426,-2.5605,-2.4893,-2.4463,-2.3906,-2.3457,-2.312,-2.3091,-2.3091,-2.3091,-2.3091,-2.3091,-2.3091,-2.3091,-2.3091,-2.3091,-2.3091,-2.3091,-2.3091,-2.2784,-2.2618,-2.253,-2.2043,-2.1785,-2.1696,-2.1696,-2.1696,-2.1668,-2.1385,-2.1401,-2.1475,-2.0924,-2.097,-2.1165,-2.0232,-2.0058,-2.0218,-1.954,-1.9301,-1.9301,-1.9301,-1.9301,-1.9301,-1.9301,-1.9301,-1.9301,-1.9301,-1.9301,-1.9301,-1.9301,-1.9301,-1.9301,-1.9301,-1.9301,-1.9301,-1.9301,-1.9301,-1.9228,-1.8962,-1.8696,-1.8339,-1.7798,-1.7477,-1.7211,-1.6945,-1.6908,-1.6908,-1.6908,-1.6908,-1.6908,-1.6908,-1.6908,-1.6908,-1.6908,-1.6908,-1.6908,-1.6908,-1.6908,-1.6908,-1.6908,-1.6908,-1.6972,-1.7101,-1.7248,-1.7651,-1.8283,-1.8458,-1.8788,-1.9301,-1.9301,-1.9301,-2.5489,-2.5693,-2.5693,-2.5693,-2.5693,-2.5693,-2.5693,-2.5693,-2.5771,-2.6103,-2.6611,-2.71,-2.7383,-2.7783,-2.8115,-2.8271,-2.8164,-2.8027,-2.791,-2.7519,-2.7148,-2.6875,-2.6201,-2.5469,-2.4717,-2.4404,-2.3935,-2.3149,-2.3091,-2.3091,-2.3091,-2.3091,-2.3091,-2.3091,-2.3091,-2.3091,-2.3091,-2.3091,-2.3047,-2.3013,-2.253,-2.2309,-2.2264,-2.1865,-2.1696,-2.1696,-2.1696,-2.1696,-2.1668,-2.1403,-2.1493,-2.1641,-2.1119,-2.1229,-2.1568,-2.0497,-2.0301,-2.036,-1.9586,-1.9301,-1.9301,-1.9301,-1.9301,-1.9301,-1.9301,-1.9301,-1.9301,-1.9301,-1.9301,-1.9301,-1.9301,-1.9301,-1.9301,-1.9301,-1.9301,-1.9301,-1.9301,-1.9301,-1.9228,-1.8971,-1.8696,-1.8339,-1.7807,-1.7477,-1.7202,-1.6945,-1.6908,-1.6908,-1.6908,-1.6908,-1.6908,-1.6908,-1.6908,-1.6908,-1.6908,-1.6908,-1.6908,-1.6908,-1.6908,-1.6908,-1.6908,-1.6908,-1.7046,-1.7339,-1.7339,-1.7734,-1.855,-1.855,-1.8806,-1.9301,-1.9301,-1.9301,-2.5567,-2.5693,-2.5693,-2.5693,-2.5693,-2.5693,-2.5693,-2.5693,-2.5693,-2.5713,-2.6366,-2.6992,-2.7012,-2.7373,-2.7793,-2.8193,-2.7949,-2.7832,-2.8232,-2.793,-2.7708,-2.7689,-2.7246,-2.6475,-2.5204,-2.5077,-2.4512,-2.3188,-2.3091,-2.3091,-2.3091,-2.3091,-2.3091,-2.3091,-2.3091,-2.3091,-2.3091,-2.3101,-2.3013,-2.2794,-2.2318,-2.2097,-2.2097,-2.183,-2.1696,-2.1696,-2.1696,-2.1696,-2.1696,-2.1696,-2.1696,-2.1696,-2.1696,-2.1678,-2.1568,-2.0814,-2.0512,-2.0374,-1.9577,-1.9301,-1.9301,-1.9301,-1.9301,-1.9301,-1.9301,-1.9301,-1.9301,-1.9301,-1.9301,-1.9301,-1.9301,-1.9301,-1.9301,-1.9301,-1.9301,-1.9301,-1.9301,-1.9301,-1.9301,-1.9301,-1.8669,-1.8081,-1.8063,-1.7431,-1.6908,-1.6908,-1.6908,-1.6908,-1.6908,-1.6908,-1.6908,-1.6908,-1.6908,-1.6908,-1.6908,-1.6908,-1.6908,-1.6908,-1.6908,-1.6908,-1.6908,-1.6908,-1.7275,-1.8008,-1.8045,-1.8476,-1.9246,-1.9265,-1.9283,-1.9301,-1.9301,-1.9301,-2.5567,-2.5693,-2.5693,-2.5693,-2.5693,-2.5693,-2.5693,-2.5693,-2.5781,-2.6162,-2.6396,-2.6641,-2.6953,-2.7373,-2.7748,-2.7865,-2.7998,-2.8174,-2.8281,-2.793,-2.7549,-2.7217,-2.6807,-2.6025,-2.4707,-2.458,-2.418,-2.3169,-2.3091,-2.3091,-2.3091,-2.3091,-2.3091,-2.3091,-2.3091,-2.3091,-2.3091,-2.2969,-2.2847,-2.2794,-2.2318,-2.2097,-2.2097,-2.183,-2.1696,-2.1696,-2.1696,-2.1696,-2.1696,-2.1696,-2.1696,-2.1696,-2.1696,-2.1504,-2.1209,-2.0704,-2.0287,-1.9966,-1.9485,-1.9301,-1.9301,-1.9301,-1.9301,-1.9301,-1.9301,-1.9301,-1.9301,-1.9301,-1.9301,-1.9301,-1.9301,-1.9301,-1.9301,-1.9301,-1.9301,-1.9301,-1.9301,-1.9301,-1.9301,-1.9301,-1.8669,-1.799,-1.7706,-1.7238,-1.6908,-1.6908,-1.6908,-1.6908,-1.6908,-1.6908,-1.6908,-1.6908,-1.6908,-1.6908,-1.6908,-1.6908,-1.6908,-1.6908,-1.6908,-1.6908,-1.6908,-1.6908,-1.7,-1.7211,-1.7504,-1.7908,-1.8421,-1.8715,-1.9017,-1.9301,-1.9301,-1.9301,-2.5625,-2.5693,-2.5693,-2.5693,-2.5693,-2.5693,-2.5693,-2.5693,-2.5762,-2.6055,-2.625,-2.6465,-2.6699,-2.6787,-2.7002,-2.762,-2.7549,-2.7656,-2.8213,-2.8086,-2.7783,-2.7353,-2.709,-2.6357,-2.4853,-2.4697,-2.4268,-2.3179,-2.3091,-2.3091,-2.3091,-2.3091,-2.3091,-2.3091,-2.3013,-2.2925,-2.2784,-2.2574,-2.2495,-2.2495,-2.2097,-2.1919,-2.1919,-2.1785,-2.1696,-2.1696,-2.1696,-2.1696,-2.1696,-2.1696,-2.1696,-2.1668,-2.1485,-2.1319,-2.1034,-2.0466,-2.0076,-1.9829,-1.9448,-1.9301,-1.9301,-1.9301,-1.9301,-1.9301,-1.9301,-1.9301,-1.9301,-1.9301,-1.9301,-1.9301,-1.9301,-1.9301,-1.9301,-1.9301,-1.9301,-1.9301,-1.9301,-1.9301,-1.9246,-1.9072,-1.855,-1.799,-1.7568,-1.7165,-1.6908,-1.6908,-1.6908,-1.6908,-1.6908,-1.6908,-1.6908,-1.6908,-1.6908,-1.6908,-1.6908,-1.6908,-1.6908,-1.6908,-1.6908,-1.6908,-1.6908,-1.6908,-1.6991,-1.7165,-1.7568,-1.7972,-1.8347,-1.8779,-1.9091,-1.9301,-1.9301,-1.9301,-2.5693,-2.5693,-2.5693,-2.5693,-2.5693,-2.5693,-2.5693,-2.5693,-2.5693,-2.5693,-2.6035,-2.6299,-2.6299,-2.6045,-2.6172,-2.7236,-2.6836,-2.6787,-2.7959,-2.8125,-2.7988,-2.7679,-2.7581,-2.6887,-2.5194,-2.4979,-2.4404,-2.3179,-2.3091,-2.3091,-2.3091,-2.3091,-2.3091,-2.3091,-2.2882,-2.2715,-2.2441,-2.223,-2.2097,-2.2097,-2.183,-2.1696,-2.1696,-2.1696,-2.1696,-2.1696,-2.1696,-2.1696,-2.1696,-2.1696,-2.1696,-2.1659,-2.1337,-2.1117,-2.0943,-2.0223,-1.9902,-1.9756,-1.943,-1.9301,-1.9301,-1.9301,-1.9301,-1.9301,-1.9301,-1.9301,-1.9301,-1.9301,-1.9301,-1.9301,-1.9301,-1.9301,-1.9301,-1.9301,-1.9301,-1.9301,-1.9301,-1.9301,-1.9182,-1.8788,-1.8394,-1.799,-1.7568,-1.7165,-1.6908,-1.6908,-1.6908,-1.6908,-1.6908,-1.6908,-1.6908,-1.6908,-1.6908,-1.6908,-1.6908,-1.6908,-1.6908,-1.6908,-1.6908,-1.6908,-1.6908,-1.6908,-1.7064,-1.7413,-1.788,-1.8255,-1.8641,-1.9081,-1.9301,-1.9301,-1.9301,-1.9301,-2.5693,-2.5693,-2.5693,-2.5693,-2.5693,-2.5693,-2.5693,-2.5693,-2.5693,-2.5693,-2.5742,-2.5801,-2.5801,-2.6084,-2.623,-2.6094,-2.625,-2.6592,-2.7158,-2.7236,-2.7207,-2.7139,-2.6816,-2.6064,-2.4668,-2.4219,-2.3769,-2.314,-2.3091,-2.3091,-2.3091,-2.3091,-2.3091,-2.3091,-2.2882,-2.2803,-2.2706,-2.2318,-2.2097,-2.2097,-2.183,-2.1696,-2.1696,-2.1696,-2.1696,-2.1696,-2.1696,-2.1696,-2.1696,-2.1696,-2.1696,-2.1687,-2.1614,-2.1174,-2.0604,-2.0466,-1.9989,-1.9402,-1.9329,-1.9301,-1.9301,-1.9301,-1.9301,-1.9301,-1.9301,-1.9301,-1.9301,-1.9301,-1.9301,-1.9301,-1.9301,-1.9301,-1.9301,-1.9301,-1.9301,-1.9301,-1.9301,-1.9301,-1.9182,-1.8788,-1.8394,-1.799,-1.7568,-1.7165,-1.6908,-1.6908,-1.6908,-1.6908,-1.6908,-1.6908,-1.6908,-1.6908,-1.6908,-1.6908,-1.6908,-1.6908,-1.6908,-1.6908,-1.6908,-1.6908,-1.6908,-1.6908,-1.6936,-1.7009,-1.7743,-1.8118,-1.8229,-1.8944,-1.9301,-1.9301,-1.9301,-1.9301,-2.5693,-2.5693,-2.5693,-2.5693,-2.5693,-2.5693,-2.5693,-2.5693,-2.5693,-2.5693,-2.5693,-2.5693,-2.5693,-2.5723,-2.5781,-2.6035,-2.5869,-2.5937,-2.6592,-2.6494,-2.626,-2.6025,-2.582,-2.5273,-2.4199,-2.3906,-2.3603,-2.313,-2.3091,-2.3091,-2.3091,-2.3091,-2.3047,-2.2969,-2.2706,-2.253,-2.2451,-2.2087,-2.1874,-2.1874,-2.1785,-2.1696,-2.1696,-2.1696,-2.1696,-2.1696,-2.1696,-2.1696,-2.1696,-2.1696,-2.1696,-2.1668,-2.1449,-2.1,-2.0451,-2.025,-1.9824,-1.9301,-1.9301,-1.9301,-1.9301,-1.9301,-1.9301,-1.9301,-1.9301,-1.9301,-1.9301,-1.9301,-1.9301,-1.9301,-1.9301,-1.9301,-1.9301,-1.9301,-1.9301,-1.9301,-1.9301,-1.9301,-1.9246,-1.9054,-1.854,-1.8027,-1.7862,-1.7312,-1.6908,-1.6908,-1.6908,-1.6908,-1.6908,-1.6908,-1.6908,-1.6908,-1.6908,-1.6908,-1.6908,-1.6908,-1.6908,-1.6908,-1.6908,-1.6908,-1.6908,-1.6908,-1.7,-1.7211,-1.7596,-1.8009,-1.8393,-1.8806,-1.91,-1.9301,-1.9301,-1.9301,-2.5693,-2.5693,-2.5693,-2.5693,-2.5693,-2.5693,-2.5693,-2.5693,-2.5693,-2.5693,-2.5693,-2.5693,-2.5693,-2.5449,-2.541,-2.6006,-2.5605,-2.542,-2.6025,-2.5898,-2.5566,-2.5174,-2.5028,-2.4629,-2.3867,-2.3711,-2.3506,-2.312,-2.3091,-2.3091,-2.3091,-2.3091,-2.3013,-2.2803,-2.253,-2.2309,-2.2097,-2.183,-2.1696,-2.1696,-2.1696,-2.1696,-2.1696,-2.1696,-2.1696,-2.1696,-2.1696,-2.1696,-2.1696,-2.1696,-2.1696,-2.165,-2.1273,-2.0869,-2.0466,-2.0031,-1.9683,-1.9421,-1.9329,-1.9356,-1.9421,-1.9329,-1.9301,-1.9301,-1.9301,-1.9301,-1.9301,-1.9301,-1.9301,-1.9301,-1.9301,-1.9301,-1.9301,-1.9301,-1.9301,-1.9301,-1.9301,-1.9301,-1.9301,-1.9301,-1.8733,-1.8145,-1.7913,-1.7261,-1.6755,-1.6665,-1.6656,-1.6726,-1.6874,-1.6908,-1.6908,-1.6908,-1.6908,-1.6908,-1.6908,-1.6908,-1.6908,-1.6908,-1.6908,-1.6908,-1.6908,-1.6908,-1.7055,-1.7367,-1.7541,-1.7944,-1.8586,-1.8751,-1.8999,-1.9301,-1.9301,-1.9301,-2.5693,-2.5693,-2.5693,-2.5693,-2.5693,-2.5693,-2.5693,-2.5693,-2.5693,-2.5693,-2.5693,-2.5693,-2.5693,-2.5654,-2.5566,-2.5292,-2.5469,-2.5557,-2.5282,-2.5508,-2.5566,-2.5174,-2.4717,-2.4297,-2.3838,-2.3428,-2.314,-2.3101,-2.3091,-2.3091,-2.3091,-2.3091,-2.3013,-2.2803,-2.253,-2.2309,-2.2097,-2.183,-2.1696,-2.1696,-2.1696,-2.1696,-2.1696,-2.1696,-2.1696,-2.1696,-2.1696,-2.1696,-2.1696,-2.1696,-2.1696,-2.165,-2.1273,-2.0869,-2.0466,-2.0031,-1.9866,-1.9774,-1.943,-1.9549,-1.9765,-1.943,-1.9301,-1.9301,-1.9301,-1.9301,-1.9301,-1.9301,-1.9301,-1.9301,-1.9301,-1.9301,-1.9301,-1.9301,-1.9301,-1.9301,-1.9301,-1.9301,-1.9301,-1.9301,-1.8953,-1.8312,-1.7264,-1.6735,-1.6328,-1.5955,-1.5903,-1.6149,-1.6795,-1.6908,-1.6908,-1.6908,-1.6908,-1.6908,-1.6908,-1.6908,-1.6908,-1.6908,-1.6908,-1.6908,-1.6908,-1.6908,-1.6927,-1.6963,-1.7651,-1.8063,-1.8145,-1.8898,-1.9265,-1.9301,-1.9301,-1.9301,-2.5693,-2.5693,-2.5693,-2.5693,-2.5693,-2.5693,-2.5693,-2.5693,-2.5693,-2.5693,-2.5693,-2.5693,-2.5693,-2.5693,-2.5635,-2.5498,-2.5625,-2.5625,-2.5498,-2.5577,-2.543,-2.4766,-2.4521,-2.415,-2.3467,-2.3198,-2.3091,-2.3091,-2.3013,-2.2925,-2.2925,-2.2925,-2.2794,-2.2574,-2.2353,-2.2185,-2.2097,-2.183,-2.1696,-2.1696,-2.1696,-2.1696,-2.1696,-2.1696,-2.1696,-2.1696,-2.1696,-2.1696,-2.1696,-2.1696,-2.1696,-2.1678,-2.1504,-2.1236,-2.0738,-1.9831,-1.9671,-1.9734,-1.8432,-1.8329,-1.8661,-1.8141,-1.7851,-1.7917,-1.8975,-1.9301,-1.9301,-1.9301,-1.8935,-1.8647,-1.9173,-1.9301,-1.9301,-1.9301,-1.8895,-1.8527,-1.8527,-1.8118,-1.7755,-1.7755,-1.742,-1.7008,-1.6554,-1.5999,-1.5565,-1.5389,-1.5212,-1.518,-1.5463,-1.5939,-1.6044,-1.5578,-1.6368,-1.6908,-1.6908,-1.6908,-1.6908,-1.6908,-1.6908,-1.7009,-1.7248,-1.7257,-1.7495,-1.7981,-1.8082,-1.8319,-1.8834,-1.8907,-1.9072,-1.9301,-1.9301,-1.9301,-2.5693,-2.5693,-2.5693,-2.5693,-2.5693,-2.5693,-2.5693,-2.5693,-2.5693,-2.5693,-2.5693,-2.5693,-2.5693,-2.5693,-2.5693,-2.5693,-2.5801,-2.584,-2.5703,-2.5801,-2.5654,-2.4855,-2.458,-2.4183,-2.3635,-2.3343,-2.3139,-2.3101,-2.2925,-2.2759,-2.2715,-2.2627,-2.2495,-2.2309,-2.2185,-2.2052,-2.1963,-2.1776,-2.1696,-2.1696,-2.1696,-2.1696,-2.1696,-2.1696,-2.1696,-2.1696,-2.1696,-2.1696,-2.1696,-2.1696,-2.1696,-2.1678,-2.1239,-2.0925,-2.0533,-1.9221,-1.8999,-1.92,-1.7746,-1.7543,-1.7805,-1.7285,-1.6935,-1.6935,-1.8158,-1.8527,-1.8527,-1.8527,-1.8078,-1.7755,-1.8367,-1.8527,-1.8527,-1.8527,-1.8078,-1.7634,-1.7634,-1.7147,-1.6698,-1.6698,-1.6459,-1.6149,-1.5808,-1.5304,-1.4909,-1.4864,-1.4529,-1.4389,-1.4708,-1.5174,-1.5223,-1.4673,-1.5578,-1.6219,-1.6219,-1.6219,-1.6219,-1.6219,-1.6545,-1.6883,-1.7153,-1.7243,-1.7686,-1.8493,-1.8111,-1.8301,-1.9127,-1.8962,-1.8909,-1.8935,-1.9183,-1.9301,-2.5693,-2.5693,-2.5693,-2.5693,-2.5693,-2.5693,-2.5693,-2.5693,-2.5693,-2.5693,-2.5693,-2.5693,-2.5693,-2.5693,-2.5693,-2.5693,-2.6103,-2.623,-2.5752,-2.6113,-2.6221,-2.5723,-2.4951,-2.445,-2.465,-2.3919,-2.3326,-2.312,-2.2925,-2.2662,-2.2441,-2.223,-2.2097,-2.2097,-2.2097,-2.1963,-2.1696,-2.1696,-2.1696,-2.1696,-2.1696,-2.1696,-2.1696,-2.1696,-2.1696,-2.1696,-2.1696,-2.1696,-2.1696,-2.1696,-2.1696,-2.1561,-2.0263,-1.971,-1.9518,-1.8136,-1.7873,-1.8179,-1.7727,-1.7636,-1.7652,-1.7233,-1.6935,-1.6698,-1.6739,-1.6739,-1.6739,-1.6739,-1.6739,-1.6739,-1.6739,-1.6739,-1.6739,-1.6739,-1.6739,-1.6698,-1.6698,-1.6698,-1.6698,-1.6698,-1.669,-1.6294,-1.5124,-1.468,-1.446,-1.4328,-1.3865,-1.3901,-1.4975,-1.4824,-1.4601,-1.4601,-1.4601,-1.4601,-1.4601,-1.4601,-1.4601,-1.4601,-1.5727,-1.642,-1.642,-1.6687,-1.7203,-1.8091,-1.7655,-1.7838,-1.8715,-1.9109,-1.8847,-1.8037,-1.8895,-1.9301,-2.5693,-2.5693,-2.5693,-2.5693,-2.5693,-2.5693,-2.5693,-2.5693,-2.5693,-2.5693,-2.5693,-2.5693,-2.5693,-2.5693,-2.5693,-2.5693,-2.6103,-2.6435,-2.6592,-2.6567,-2.6398,-2.5982,-2.4718,-2.3876,-2.3796,-2.3391,-2.3057,-2.2911,-2.2539,-2.2274,-2.2185,-2.1963,-2.183,-2.183,-2.183,-2.1785,-2.1696,-2.1696,-2.1696,-2.1696,-2.1696,-2.1696,-2.1696,-2.1696,-2.1696,-2.1651,-2.1042,-2.0763,-2.0763,-2.0763,-2.0348,-1.9741,-1.9994,-1.9673,-1.8945,-1.7596,-1.7595,-1.7963,-1.6381,-1.6075,-1.6296,-1.5562,-1.5156,-1.4901,-1.4901,-1.576,-1.6576,-1.5966,-1.6247,-1.6576,-1.5966,-1.6247,-1.6698,-1.6698,-1.6247,-1.5801,-1.5801,-1.5352,-1.4901,-1.4901,-1.4901,-1.4789,-1.4407,-1.4097,-1.3857,-1.381,-1.3368,-1.3123,-1.3478,-1.3734,-1.3637,-1.3098,-1.3528,-1.4162,-1.487,-1.493,-1.5025,-1.5188,-1.557,-1.5899,-1.6189,-1.628,-1.6568,-1.7131,-1.7007,-1.7056,-1.7338,-1.7454,-1.7391,-1.7107,-1.7391,-1.7513,-2.5693,-2.5693,-2.5693,-2.5693,-2.5693,-2.5693,-2.5693,-2.5693,-2.5693,-2.5693,-2.5693,-2.5693,-2.5693,-2.5693,-2.5693,-2.5693,-2.5967,-2.6181,-2.6384,-2.6357,-2.6208,-2.5636,-2.4648,-2.3834,-2.3305,-2.3153,-2.2966,-2.2665,-2.2318,-2.2097,-2.2097,-2.183,-2.1696,-2.1696,-2.1696,-2.1696,-2.1696,-2.1696,-2.1696,-2.1696,-2.1696,-2.1696,-2.1696,-2.1696,-2.1696,-2.1687,-2.1087,-2.0619,0.0,-2.0294,-1.9704,-1.8834,-1.9063,-1.8796,-1.8079,-1.6899,-1.6827,-1.7081,-1.5757,-1.5376,-1.5414,-1.4859,-1.4416,-1.4088,-1.4088,-1.4866,-1.5594,-1.5068,-1.5318,-1.5594,-1.5068,-1.5311,-1.5718,-1.5718,-1.5311,-1.4908,-1.4908,-1.4496,-1.4088,-1.4088,-1.4088,-1.4088,-1.4088,-1.3841,-1.364,-1.3753,-1.3206,-1.2864,-1.3092,-1.3175,-1.3066,-1.267,-1.3092,-1.3703,-1.4474,-1.4231,-1.4208,-1.4624,-1.4926,-1.5272,-1.5617,-1.5756,-1.612,-1.669,-1.637,-1.637,-1.6698,-1.637,-1.637,-1.6698,-1.637,-1.637,0.0,-2.5693,-2.5693,-2.5693,-2.5693,-2.5693,-2.5693,-2.5693,0.0,-2.5693,-2.5693,-2.5693,-2.5693,-2.5693,-2.5693,-2.5693,-2.5713,-2.5674,-2.5469,-2.5689,-2.5636,-2.493,-2.4667,-2.4141,-2.3117,-2.3186,-2.3037,-2.241,-2.2185,-2.2052,-2.2052,-2.183,-2.1696,-2.1696,-2.1696,-2.1696,-2.1696,-2.1696,-2.1696,-2.1696,-2.1696,-2.1696,-2.1696,-2.1696,-2.1696,-2.1687,-2.1553,-2.0997,-2.0204,-2.0113,-1.9476,-1.8511,-1.7645,-1.7286,-1.7091,-1.6157,-1.5784,-1.5778,-1.5758,-1.5431,-1.5001,-1.4961,-1.4579,-1.4088,-1.4088,-1.4088,-1.4088,-1.4088,-1.4088,-1.4088,-1.4088,-1.4088,-1.4088,-1.4088,-1.4088,-1.4088,-1.4088,-1.4088,-1.4088,-1.4088,-1.4088,-1.4088,-1.4088,-1.3854,-1.3726,-1.4048,-1.34,-1.3052,-1.3533,-1.314,-1.2924,-1.318,-1.3213,-1.3327,-1.358,-1.2879,-1.2645,-1.324,-1.4005,-1.4594,-1.4812,-1.5151,-1.5684,-1.6494,-1.5718,-1.5718,-1.6494,-1.5718,-1.5718,-1.6494,-1.5677,-1.576,-2.5693,0.0,-2.5693,-2.5693,-2.5693,-2.5693,0.0,-2.5693,-2.5693,-2.5693,-2.5693,-2.5693,-2.5693,-2.5693,-2.5693,-2.5693,-2.6016,-2.6131,-2.5873,-2.5334,-2.4808,-2.4409,-2.4024,-2.3599,-2.3243,-2.3084,-2.276,-2.2206,-2.1919,-2.1776,-2.1776,-2.1731,-2.1696,-2.1696,-2.1696,-2.1696,-2.1696,-2.1696,-2.1696,-2.1696,-2.1696,-2.1696,-2.1696,-2.1696,-2.1696,-2.1597,-2.0121,-1.9347,-1.9109,-1.8334,-1.7412,-1.6567,-1.7091,-1.6817,-1.6109,-1.5879,-1.5784,-1.5751,-1.5578,-1.5264,-1.4934,-1.4479,-1.4202,-1.4088,-1.4088,-1.4088,-1.4088,-1.4088,-1.4088,-1.4088,-1.4088,-1.4088,-1.4088,-1.4088,-1.4088,-1.4088,-1.4088,-1.4088,-1.4088,-1.4088,-1.4088,-1.4088,-1.4088,-1.4028,-1.4008,-1.4075,-1.3714,-1.344,-1.3586,-1.3327,-1.3126,-1.32,-1.3213,-1.3327,-1.358,-1.3413,-1.3447,-1.3854,-1.4082,-1.4234,-1.4309,-1.4378,-1.4496,-1.4699,-1.4496,-1.4496,-1.4699,-1.4496,-1.4496,-1.4699,-1.4496,-1.4538,-2.5693,-2.5693,-2.5693,-2.5693,-2.5693,-2.5693,-2.5693,-2.5693,-2.5693,-2.5693,-2.5693,-2.5693,-2.5693,-2.5177,-2.4922,-2.544,-2.522,-2.5104,-2.5431,-2.4517,-2.3934,-2.4304,-2.3834,-2.3391,-2.3138,-2.3007,-2.2621,-2.1983,-2.1785,-2.1696,-2.1696,-2.1696,-2.1696,-2.1696,-2.1696,-2.1696,-2.1696,-2.1696,-2.1696,-2.1696,-2.1696,-2.1696,-2.1696,-2.1266,-2.1042,-2.0988,-1.9476,-1.8565,-1.8056,-1.7512,-1.6723,-1.5825,-1.6393,-1.6298,-1.5784,-1.5784,-1.5784,-1.5758,-1.5651,-1.5317,-1.4908,-1.4318,-1.4088,-1.4088,-1.4088,-1.4088,-1.4088,-1.4088,-1.4088,-1.4088,-1.4088,-1.4088,-1.4088,-1.4088,-1.4088,-1.4088,-1.4088,-1.4088,-1.4088,-1.4088,-1.4088,-1.4088,-1.4088,-1.4088,-1.4088,-1.4088,-1.3793,-1.3653,-1.3828,-1.3553,-1.342,-1.3601,-1.3614,-1.3674,-1.3834,-1.3848,-1.3915,-1.4075,-1.3961,-1.3941,-1.4082,-1.4088,-1.4088,-1.4088,-1.4088,-1.4088,-1.4088,-1.4088,-1.4088,-1.4088,-1.4088,-1.4088,-2.5693,-2.5693,-2.5693,-2.5693,-2.5693,-2.5693,-2.5693,-2.5693,-2.5693,-2.5693,-2.5742,-2.5693,-2.5412,-2.451,-2.4044,-2.4798,-2.4119,-2.3728,-2.4356,-2.3441,-2.3117,-2.4091,-2.3575,-2.3078,-2.294,-2.2849,-2.2501,-2.1751,-2.1696,-2.1696,-2.1696,-2.1696,-2.1696,-2.1696,-2.1696,-2.1696,-2.1696,-2.1696,-2.1696,-2.1696,-2.1696,-2.1696,-2.1687,-2.0718,-2.0294,-2.0249,-1.9063,0.0,-1.7279,-1.7138,-1.6574,-1.5784,-1.5784,-1.5784,-1.5784,-1.5784,-1.5784,-1.5771,-1.5731,-1.5411,-1.4921,-1.4329,-1.4122,-1.4088,-1.4088,-1.4088,-1.4088,-1.4088,-1.4088,-1.4088,-1.4088,-1.4088,-1.4088,-1.4088,-1.4088,-1.4088,-1.4088,-1.4088,-1.4088,-1.4088,-1.4088,-1.4088,-1.4088,-1.4088,-1.4088,-1.4088,-1.3874,-1.376,-1.4055,-1.3868,-1.3808,-1.4062,-1.4088,-1.4088,-1.4088,-1.4088,-1.4088,-1.4088,-1.3848,-1.378,-1.4075,-1.4088,-1.4088,-1.4088,-1.4088,-1.4088,-1.4088,-1.4088,-1.4088,-1.4088,-1.4088,-1.4088,-2.5693,-2.5693,-2.5693,-2.5693,-2.5693,-2.5693,-2.5693,-2.5693,-2.5693,-2.5693,-2.6035,-2.5749,-2.3973,-2.3935,-2.4012,-2.3362,-2.3846,-2.3886,-2.2561,-2.2171,-2.2218,-2.2776,-2.2097,-2.1991,-2.2819,-2.2584,-2.219,-2.1723,-2.1696,-2.1696,-2.1696,-2.1696,-2.1696,-2.1696,-2.1696,-2.1696,-2.1696,-2.1696,-2.1696,-2.1696,-2.1696,-2.1696,-2.1687,-2.0718,-2.0294,-2.0204,0.0,-1.7419,-1.7232,-1.6393,-1.592,-1.5784,-1.5784,-1.5784,-1.5784,-1.5784,-1.5784,-1.5792,-1.5545,-1.5244,-1.4955,-1.4563,-1.4289,-1.4088,-1.4088,-1.4088,-1.4088,-1.4088,-1.4088,-1.4088,-1.4088,-1.4088,-1.4088,-1.4088,-1.4088,-1.4088,-1.4088,-1.4088,-1.4088,-1.4088,-1.4088,-1.4088,-1.4088,-1.4088,-1.4088,-1.4088,-1.4048,-1.4035,-1.4082,-1.4048,-1.4035,-1.4082,-1.4088,-1.4088,-1.4088,-1.4088,-1.4088,-1.4088,-1.4041,-1.4041,-1.4082,-1.4088,-1.4088,-1.4088,-1.4088,-1.4088,-1.4088,-1.4088,-1.4088,-1.4088,-1.4088,-1.4088,-2.5693,-2.5693,-2.5693,-2.5693,-2.5693,-2.5693,-2.5693,-2.5274,-2.5077,-2.5937,-2.5783,-2.5167,-2.3883,-2.3379,-2.2698,-2.115,-2.182,-2.2308,-2.1658,-2.1448,-2.146,-2.1828,-2.123,-2.0923,-2.1205,-2.143,-2.1377,-2.0979,-2.141,-2.1696,-2.1696,-2.1696,-2.1696,-2.1696,-2.1696,-2.1696,-2.1696,-2.1696,-2.1463,-2.0943,-2.0943,-2.0943,-2.0943,-2.0484,-1.9977,-1.943,0.0,-1.6998,-1.644,-1.5967,-1.5784,-1.5784,-1.5784,-1.5784,-1.5784,-1.5784,-1.5784,-1.5718,-1.5317,-1.5223,-1.5097,-1.4489,-1.4302,-1.4295,-1.4135,-1.4088,-1.4088,-1.4088,-1.4088,-1.4088,-1.4088,-1.4088,-1.4088,-1.4088,-1.4088,-1.4088,-1.4088,-1.4088,-1.4088,-1.4088,-1.4088,-1.4088,-1.4088,-1.4088,-1.4088,-1.4088,-1.4088,-1.4088,-1.4088,-1.4088,-1.4088,-1.4088,-1.4088,-1.4088,-1.4088,-1.4088,-1.4088,-1.4088,-1.4088,-1.4088,-1.4088,-1.4088,-1.4088,-1.4088,-1.4088,-1.4088,-1.4088,-1.4088,-1.4088,-1.4088,-1.4088,-1.4088,-2.5693,-2.5693,-2.5664,-2.5557,-2.5615,-2.5635,-2.5382,-2.4658,-2.4288,-2.518,-2.4767,-2.3898,-2.2982,-2.2071,-2.0921,-1.9101,-2.0004,-2.0783,-2.0467,-2.0467,-2.0538,-2.0715,-2.0247,-1.9844,-1.9725,-2.0157,-2.039,-2.032,-2.0988,-2.1463,-2.1696,-2.1696,-2.1696,-2.1696,-2.1696,-2.1597,-2.1365,-2.1365,-2.0997,-2.0294,-2.0529,-2.0529,-2.0294,-2.0294,-1.9749,-1.875,-1.7738,-1.6723,-1.5784,-1.5784,-1.5784,-1.5784,-1.5784,-1.5784,-1.5784,-1.5784,-1.5784,-1.5718,-1.5317,-1.5224,-1.5184,-1.4509,-1.4349,-1.4376,-1.4155,-1.4088,-1.4088,-1.4088,-1.4088,-1.4088,-1.4088,-1.4088,-1.4088,-1.4088,-1.4088,-1.4088,-1.4088,-1.4088,-1.4088,-1.4088,-1.4088,-1.4088,-1.4088,-1.4088,-1.4088,-1.4088,-1.4088,-1.4088,-1.4088,-1.4088,-1.4088,-1.4088,-1.4088,-1.4088,-1.4088,-1.4088,-1.4088,-1.4088,-1.4088,-1.4088,-1.4088,-1.4088,-1.4088,-1.4088,-1.4088,-1.4088,-1.4088,-1.4088,-1.4088,-1.4088,-1.4088,-1.4088,-2.5693,-2.5693,-2.5586,-2.5215,-2.543,-2.543,-2.4452,-2.3939,-2.3493,-2.2577,-2.2451,-2.1903,-1.9899,-1.9252,-1.876,-1.785,-1.9495,-2.021,-1.8146,-1.8715,-1.9221,-1.9029,-1.8611,-1.8622,-1.9368,-1.9119,-1.9325,-2.0212,-2.0339,-2.0763,-2.1642,-2.1696,-2.1696,-2.1696,-2.1696,-2.1275,-2.0393,-2.0393,-2.0393,-2.0303,-2.1177,-2.1132,-2.0294,-2.0294,-1.9749,-1.875,-1.7738,-1.6723,-1.5784,-1.5784,-1.5784,-1.5784,-1.5784,-1.5784,-1.5784,-1.5784,-1.5784,-1.5771,-1.5785,-1.5431,-1.5028,-1.4968,-1.4593,-1.4115,-1.4095,-1.4088,-1.4088,-1.4088,-1.4088,-1.4088,-1.4088,-1.4088,-1.4088,-1.4088,-1.4088,-1.4088,-1.4088,-1.4088,-1.4088,-1.4088,-1.4088,-1.4088,-1.4088,-1.4088,-1.4088,-1.4088,-1.4088,-1.4088,-1.4088,-1.4088,-1.4088,-1.4088,-1.4088,-1.4088,-1.4088,-1.4088,-1.4088,-1.4088,-1.4088,-1.4088,-1.4088,-1.4088,-1.4088,-1.4088,-1.4088,-1.4088,-1.4088,-1.4088,-1.4088,-1.4088,-1.4088,-1.4088,-2.54,-2.5527,-2.5518,-2.4844,-2.4699,-2.4485,-2.3621,-2.3058,-2.2603,-2.2272,-2.175,-2.1029,-2.0052,-1.8549,-1.753,-1.7607,-1.8304,-1.8495,-1.7491,-1.7722,-1.7856,-1.755,-1.7202,-1.7121,-1.7423,-1.769,-1.8288,-1.9293,-1.9384,-2.0031,-2.1597,-2.1132,-2.0808,-2.0808,-2.0808,-2.0348,-1.9384,-1.9977,-1.9977,-1.9384,-2.0348,-2.0619,-2.0294,-2.0294,-1.9749,-1.875,-1.7738,-1.6723,-1.5784,-1.5784,-1.5784,-1.5784,-1.5784,-1.5784,-1.5784,-1.5784,-1.5784,-1.5758,-1.5625,-1.5531,-1.5411,-1.4863,-1.4663,-1.4606,-1.4195,-1.4088,-1.4088,-1.4088,-1.4088,-1.4088,-1.4088,-1.4088,-1.4088,-1.4088,-1.4088,-1.4088,-1.4088,-1.4088,-1.4088,-1.4088,-1.4088,-1.4088,-1.4088,-1.4088,-1.4088,-1.4088,-1.4088,-1.4088,-1.4088,-1.4088,-1.4088,-1.4088,-1.4088,-1.4088,-1.4088,-1.4088,-1.4088,-1.4088,-1.4088,-1.4088,-1.4088,-1.4088,-1.4088,-1.4088,-1.4088,-1.4088,-1.4088,-1.4088,-1.4088,-1.4088,-1.4088,-1.4088,-2.498,-2.4841,-2.4651,-2.383,-2.3407,-2.2864,-2.1741,-2.1403,-2.119,-2.0767,-2.0103,-1.9583,-1.9482,-1.8102,-1.7114,-1.7515,-1.7582,-1.7515,-1.7367,-1.7259,-1.7092,-1.674,-1.6446,-1.6239,-1.6146,-1.6558,-1.7225,-1.8241,-1.8334,-1.9072,-2.0682,-2.0167,-1.984,-1.984,-1.984,-1.9476,-1.8796,-1.9476,-1.9476,-1.8788,-1.984,-2.0294,-2.0294,-2.0294,-1.9749,-1.875,-1.7738,-1.6723,-1.5784,-1.5784,-1.5784,-1.5784,-1.5784,-1.5784,-1.5784,-1.5784,-1.5784,-1.5751,-1.5605,-1.5605,-1.5578,-1.4883,-1.4796,-1.4914,-1.4376,-1.4222,-1.4222,-1.4222,-1.4162,-1.4088,-1.4088,-1.4088,-1.4088,-1.4088,-1.4088,-1.4088,-1.4088,-1.4088,-1.4088,-1.4088,-1.4088,-1.4088,-1.4088,-1.4088,-1.4088,-1.4088,-1.4088,-1.4088,-1.4088,-1.4088,-1.4088,-1.4088,-1.4088,-1.4088,-1.4088,-1.4088,-1.4088,-1.4088,-1.4088,-1.4088,-1.4088,-1.4088,-1.4088,-1.4088,-1.4088,-1.4088,-1.4088,-1.4088,-1.4088,-1.4088,-1.4088,-1.4088,-2.4531,-2.37,-2.2842,-2.2162,-2.1567,-2.0647,-1.8573,-1.886,-1.9102,-1.7425,-1.715,-1.7286,-1.7528,-1.7582,-1.7582,-1.7582,-1.7582,-1.7582,-1.7575,-1.738,-1.7085,-1.6734,-1.644,-1.6152,-1.5811,-1.5784,-1.6204,-1.7232,-1.7279,-1.7738,-1.875,-1.8788,-1.8796,-1.8796,-1.8796,-1.8788,-1.8788,-1.8788,-1.8788,-1.8788,-1.9795,-2.0294,-2.0294,-2.0294,-1.9749,-1.875,-1.7738,-1.6716,-1.5784,-1.5784,-1.5784,-1.5784,-1.5784,-1.5784,-1.5784,-1.5784,-1.5784,-1.5784,-1.5784,-1.5645,-1.5351,-1.5102,-1.5015,-1.4955,-1.4609,-1.4479,-1.4479,-1.4522,-1.4315,-1.4088,-1.4088,-1.4088,-1.4088,-1.4088,-1.4088,-1.4088,-1.4088,-1.4088,-1.4088,-1.4088,-1.4088,-1.4088,-1.4088,-1.4088,-1.4088,-1.4088,-1.4088,-1.4088,-1.4088,-1.4088,-1.4088,-1.4088,-1.4088,-1.4088,-1.4088,-1.4088,-1.4088,-1.4088,-1.4088,-1.4088,-1.4088,-1.4088,-1.4088,-1.4088,-1.4088,-1.4088,-1.4088,-1.4088,-1.4088,-1.4088,-1.4088,-1.4088,-2.3315,-2.2815,-2.2357,-2.0904,-2.014,-1.9428,-1.8095,-1.8423,-1.8644,-1.7394,-1.7022,-1.6987,-1.7488,-1.7467,-1.7393,-1.7549,-1.7582,-1.7435,-1.7021,-1.6894,-1.6653,-1.6146,-1.6012,-1.5925,-1.5791,-1.5784,-1.6204,-1.7232,-1.6622,-1.699,-1.8696,-1.8149,-1.7738,-1.7738,-1.7738,-1.7412,-1.6709,-1.7412,-1.811,-1.8788,-1.9109,-1.9613,-2.0294,-1.9567,-1.9063,-1.8696,-1.699,-1.6062,-1.5784,-1.5784,-1.5784,-1.5784,-1.5784,-1.5784,-1.5784,-1.5784,-1.5784,-1.5784,-1.5784,-1.5772,-1.5618,-1.5169,-1.5149,-1.5177,-1.4676,-1.4669,-1.479,-1.4583,-1.4456,-1.4342,-1.4142,-1.4088,-1.4088,-1.4088,-1.4088,-1.4088,-1.4088,-1.4088,-1.4088,-1.4088,-1.4088,-1.4088,-1.4088,-1.4088,-1.4088,-1.4088,-1.4088,-1.4088,-1.4088,-1.4088,-1.4088,-1.4088,-1.4088,-1.4088,-1.4088,-1.4088,-1.4088,-1.4088,-1.4088,-1.4088,-1.4088,-1.4088,-1.4088,-1.4088,-1.4088,-1.4088,-1.4088,-1.4088,-1.4088,-1.4088,-1.4088,-1.4088,-2.2566,-2.1794,-2.1128,-1.9578,-1.8595,-1.7842,-1.7124,-1.7378,-1.7584,-1.711,-1.6978,-1.7027,-1.7495,-1.7494,-1.7434,-1.7555,-1.7582,-1.7422,-1.6947,-1.678,-1.6533,-1.6059,-1.5899,-1.5784,-1.5784,-1.5784,-1.6062,-1.6676,-1.6157,-1.6339,-1.7537,-1.7037,-1.6911,-1.7286,-1.6911,-1.681,-1.6983,-1.681,-1.7412,-1.8788,-1.838,-1.8742,-1.9658,-1.865,-1.8195,-1.8102,-1.648,-1.5784,-1.5784,-1.5784,-1.5784,-1.5784,-1.5784,-1.5784,-1.5784,-1.5784,-1.5784,-1.5784,-1.5784,-1.5784,-1.5752,-1.5291,-1.5331,-1.5484,-1.501,-1.499,-1.5097,-1.4917,-1.4783,-1.4629,-1.4335,-1.4262,-1.4229,-1.4115,-1.4088,-1.4088,-1.4088,-1.4088,-1.4088,-1.4088,-1.4088,-1.4088,-1.4088,-1.4088,-1.4088,-1.4088,-1.4088,-1.4088,-1.4088,-1.4088,-1.4088,-1.4088,-1.4088,-1.4088,-1.4088,-1.4088,-1.4088,-1.4088,-1.4088,-1.4088,-1.4088,-1.4088,-1.4088,-1.4088,-1.4088,-1.4088,-1.4088,-1.4088,-1.4088,-1.4088,-1.4088,-1.4088,-2.2025,-2.0724,-1.9428,-1.8278,-1.7044,-1.6076,-1.5879,-1.6059,-1.6359,-1.6647,-1.6921,-1.7253,-1.7488,-1.7562,-1.7562,-1.7515,-1.7549,-1.7514,-1.7172,-1.686,-1.6587,-1.6273,-1.5999,-1.5784,-1.5784,-1.5784,-1.5784,-1.5784,-1.5784,-1.5784,-1.5784,-1.5879,-1.6298,-1.7145,-1.6393,-1.6756,-1.8511,-1.6709,-1.6756,-1.8657,-1.7645,-1.7692,-1.8611,-1.7738,-1.7232,-1.7099,-1.6204,-1.5784,-1.5784,-1.5784,-1.5784,-1.5784,-1.5784,-1.5784,-1.5784,-1.5784,-1.5784,-1.5784,-1.5784,-1.5784,-1.5785,-1.5491,-1.5591,-1.5724,-1.5484,-1.5418,-1.5431,-1.5404,-1.5204,-1.4981,-1.4636,-1.4536,-1.4456,-1.4188,-1.4108,-1.4088,-1.4088,-1.4088,-1.4088,-1.4088,-1.4088,-1.4088,-1.4088,-1.4088,-1.4088,-1.4088,-1.4088,-1.4088,-1.4088,-1.4088,-1.4088,-1.4088,-1.4088,-1.4088,-1.4088,-1.4088,-1.4088,-1.4088,-1.4088,-1.4088,-1.4088,-1.4088,-1.4088,-1.4088,-1.4088,-1.4088,-1.4088,-1.4088,-1.4088,-1.4088,-1.4088,-1.4088,-2.0945,-1.9423,-1.8,-1.7214,-1.6436,-1.5879,-1.5832,-1.6059,-1.6359,-1.6647,-1.676,-1.6894,-1.7239,-1.7481,-1.7428,-1.6967,-1.7281,-1.7321,-1.6616,-1.66,-1.6513,-1.5985,-1.5824,-1.5784,-1.5784,-1.5784,-1.5784,-1.5784,-1.5784,-1.5784,-1.5784,-1.6534,-1.6716,-1.6157,-1.6676,-1.681,-1.6433,-1.6015,-1.6386,-1.7598,-1.6622,-1.6669,-1.7598,-1.7419,-1.6857,-1.6109,-1.5872,-1.5784,-1.5784,-1.5784,-1.5784,-1.5784,-1.5784,-1.5784,-1.5784,-1.5784,-1.5784,-1.5784,-1.5784,-1.5784,-1.5785,-1.5491,-1.5591,-1.5724,-1.5484,-1.5558,-1.5691,-1.5464,-1.5351,-1.5237,-1.4988,-1.4696,-1.4502,-1.4442,-1.4255,-1.4088,-1.4088,-1.4088,-1.4088,-1.4088,-1.4088,-1.4088,-1.4088,-1.4088,-1.4088,-1.4088,-1.4088,-1.4088,-1.4088,-1.4088,-1.4088,-1.4088,-1.4088,-1.4088,-1.4088,-1.4088,-1.4088,-1.4088,-1.4088,-1.4088,-1.4088,-1.4088,-1.4088,-1.4088,-1.4088,-1.4088,-1.4088,-1.4088,-1.4088,-1.4088,-1.4088,-1.4088,-2.0602,-1.9481,-1.8418,-1.6724,-1.6041,-1.5784,-1.5784,-1.5945,-1.6179,-1.6613,-1.6707,-1.6754,-1.6907,-1.7061,-1.7061,-1.6754,-1.6961,-1.6954,-1.6359,-1.64,-1.6333,-1.5838,-1.5784,-1.5784,-1.5784,-1.5784,-1.5784,-1.5784,-1.5784,-1.5784,-1.5784,-1.6298,-1.6581,-1.6534,-1.6581,-1.6581,-1.6534,-1.6062,-1.6298,-1.7279,-1.6298,-1.6062,-1.6581,-1.6581,-1.6298,-1.5784,-1.5784,-1.5784,-1.5784,-1.5784,-1.5784,-1.5784,-1.5784,-1.5784,-1.5784,-1.5784,-1.5784,-1.5784,-1.5784,-1.5784,-1.5758,-1.5651,-1.5705,-1.5751,-1.5651,-1.5712,-1.5751,-1.5645,-1.5605,-1.5538,-1.5244,-1.5057,-1.4903,-1.477,-1.4402,-1.4088,-1.4088,-1.4088,-1.4088,-1.4088,-1.4088,-1.4088,-1.4088,-1.4088,-1.4088,-1.4088,-1.4088,-1.4088,-1.4088,-1.4088,-1.4088,-1.4088,-1.4088,-1.4088,-1.4088,-1.4088,-1.4088,-1.4088,-1.4088,-1.4088,-1.4088,-1.4088,-1.4088,-1.4088,-1.4088,-1.4088,-1.4088,-1.4088,-1.4088,-1.4088,-1.4088,-1.4088,-2.0886,-2.0116,-1.9217,-1.6469,-1.5784,-1.5784,-1.5784,-1.5784,-1.5917,-1.6453,-1.6593,-1.6647,-1.6693,-1.6707,-1.6673,-1.6573,-1.664,-1.6587,-1.6246,-1.6239,-1.6166,-1.5818,-1.5784,-1.5784,-1.5784,-1.5784,-1.5784,-1.5784,-1.5784,-1.5784,-1.5784,-1.5967,-1.6346,-1.6998,-1.6393,-1.6393,-1.7044,-1.6204,-1.6204,-1.7044,-1.6204,-1.5784,-1.5784,-1.5784,-1.5784,-1.5784,-1.5784,-1.5784,-1.5784,-1.5784,-1.5784,-1.5784,-1.5784,-1.5784,-1.5784,-1.5784,-1.5784,-1.5784,-1.5784,-1.5784,-1.5784,-1.5784,-1.5784,-1.5784,-1.5784,-1.5784,-1.5784,-1.5784,-1.5784,-1.5724,-1.5531,-1.5431,-1.5337,-1.5142,-1.4673,-1.4229,-1.4175,-1.4122,-1.4088,-1.4088,-1.4088,-1.4088,-1.4088,-1.4088,-1.4088,-1.4088,-1.4088,-1.4088,-1.4088,-1.4088,-1.4088,-1.4088,-1.4088,-1.4088,-1.4088,-1.4088,-1.4088,-1.4088,-1.4088,-1.4088,-1.4088,-1.4088,-1.4088,-1.4088,-1.4088,-1.4088,-1.4088,-1.4088,-1.4088,-1.4088,-1.4088,-1.4088,-2.1997,-2.0504,-1.8383,-1.6334,-1.5784,-1.5784,-1.5784,-1.5784,-1.5804,-1.5884,-1.6152,-1.6406,-1.666,-1.6707,-1.654,-1.6032,-1.6373,-1.6513,-1.5965,-1.6112,-1.6166,-1.5818,-1.5784,-1.5784,-1.5784,-1.5784,-1.5784,-1.5784,-1.5784,-1.5784,-1.5784,-1.6629,-1.677,-1.6015,-1.6716,-1.6763,-1.6015,-1.5872,-1.5872,-1.6015,-1.5872,-1.5784,-1.5784,-1.5784,-1.5784,-1.5784,-1.5784,-1.5784,-1.5784,-1.5784,-1.5784,-1.5784,-1.5784,-1.5784,-1.5784,-1.5784,-1.5784,-1.5784,-1.5784,-1.5784,-1.5784,-1.5784,-1.5784,-1.5784,-1.5784,-1.5784,-1.5784,-1.5784,-1.5784,-1.5771,-1.5785,-1.5585,-1.5384,-1.5351,-1.5129,-1.4821,-1.4516,-1.4262,-1.4088,-1.4088,-1.4088,-1.4088,-1.4088,-1.4088,-1.4088,-1.4088,-1.4088,-1.4088,-1.4088,-1.4088,-1.4088,-1.4088,-1.4088,-1.4088,-1.4088,-1.4088,-1.4088,-1.4088,-1.4088,-1.4088,-1.4088,-1.4088,-1.4088,-1.4088,-1.4088,-1.4088,-1.4088,-1.4088,-1.4088,-1.4088,-1.4088,-1.4088,-2.2271,-2.0187,-1.7948,-1.7062,-1.6339,-1.5784,-1.5784,-1.5784,-1.5831,-1.6046,-1.6052,-1.6066,-1.6192,-1.6353,-1.6326,-1.5851,-1.5997,-1.6077,-1.5818,-1.5939,-1.5979,-1.5798,-1.5784,-1.5784,-1.5784,-1.5784,-1.5784,-1.5784,-1.5784,-1.5784,-1.5784,-1.6204,-1.6251,-1.5825,-1.6251,-1.6251,-1.5784,-1.5784,-1.5784,-1.5784,-1.5784,-1.5784,-1.5784,-1.5784,-1.5784,-1.5784,-1.5784,-1.5784,-1.5784,-1.5784,-1.5784,-1.5784,-1.5784,-1.5784,-1.5784,-1.5784,-1.5784,-1.5784,-1.5784,-1.5784,-1.5784,-1.5784,-1.5784,-1.5784,-1.5784,-1.5784,-1.5784,-1.5784,-1.5784,-1.5784,-1.5784,-1.5684,-1.5638,-1.5638,-1.5418,-1.517,-1.5037,-1.4656,-1.4282,-1.4122,-1.4088,-1.4088,-1.4088,-1.4088,-1.4088,-1.4088,-1.4088,-1.4088,-1.4088,-1.4088,-1.4088,-1.4088,-1.4088,-1.4088,-1.4088,-1.4088,-1.4088,-1.4088,-1.4088,-1.4088,-1.4088,-1.4088,-1.4088,-1.4088,-1.4088,-1.4088,-1.4088,-1.4088,-1.4088,-1.4088,-1.4088,-1.4088,-2.2052,-2.0263,-1.8574,-1.7635,-1.6804,-1.6081,-1.5765,-1.5718,-1.5805,-1.6099,-1.6046,-1.5919,-1.5798,-1.6012,-1.6086,-1.5818,-1.5784,-1.5784,-1.5784,-1.5784,-1.5784,-1.5784,-1.5784,-1.5784,-1.5784,-1.5784,-1.5784,-1.5784,-1.5784,-1.5784,-1.5784,-1.5784,-1.5784,-1.5784,-1.5784,-1.5784,-1.5784,-1.5784,-1.5784,-1.5784,-1.5784,-1.5784,-1.5784,-1.5784,-1.5784,-1.5784,-1.5784,-1.5784,-1.5784,-1.5784,-1.5784,-1.5784,-1.5784,-1.5784,-1.5784,-1.5784,-1.5784,-1.5784,-1.5784,-1.5784,-1.5784,-1.5784,-1.5784,-1.5784,-1.5784,-1.5784,-1.5784,-1.5784,-1.5784,-1.5784,-1.5784,-1.5784,-1.5784,-1.5784,-1.5665,-1.5444,-1.5224,-1.483,-1.4436,-1.4142,-1.4088,-1.4088,-1.4088,-1.4088,-1.4088,-1.4088,-1.4088,-1.4088,-1.4088,-1.4088,-1.4088,-1.4088,-1.4088,-1.4088,-1.4088,-1.4088,-1.4088,-1.4088,-1.4088,-1.4088,-1.4088,-1.4088,-1.4088,-1.4088,-1.4088,-1.4088,-1.4088,-1.4088,-1.4088,-1.4088,-1.4088,-1.4088,-2.1302,-2.1284,-2.0935,-1.7494,-1.687,-1.6828,-1.5681,-1.5418,-1.5504,-1.5792,-1.6066,-1.6166,-1.5879,-1.5791,-1.5798,-1.5784,-1.5784,-1.5784,-1.5784,-1.5784,-1.5784,-1.5784,-1.5784,-1.5784,-1.5784,-1.5784,-1.5784,-1.5784,-1.5784,-1.5784,-1.5784,-1.5784,-1.5784,-1.5784,-1.5784,-1.5784,-1.5784,-1.5784,-1.5784,-1.5784,-1.5784,-1.5784,-1.5784,-1.5784,-1.5784,-1.5784,-1.5784,-1.5784,-1.5784,-1.5784,-1.5784,-1.5784,-1.5784,-1.5784,-1.5784,-1.5784,-1.5784,-1.5784,-1.5784,-1.5784,-1.5784,-1.5784,-1.5784,-1.5784,-1.5784,-1.5784,-1.5784,-1.5784,-1.5784,-1.5784,-1.5784,-1.5784,-1.5784,-1.5784,-1.5771,-1.5531,-1.4743,-1.4543,-1.4436,-1.4142,-1.4088,-1.4088,-1.4088,-1.4088,-1.4088,-1.4088,-1.4088,-1.4088,-1.4088,-1.4088,-1.4088,-1.4088,-1.4088,-1.4088,-1.4088,-1.4088,-1.4088,-1.4088,-1.4088,-1.4088,-1.4088,-1.4088,-1.4088,-1.4088,-1.4088,-1.4088,-1.4088,-1.4088,-1.4088,-1.4088,-1.4088,-1.4088,-2.2131,-2.1519,-2.0864,-1.9555,-1.8013,-1.6773,-1.6588,-1.5822,-1.5204,-1.5491,-1.5638,-1.5738,-1.5764,-1.5985,-1.6052,-1.5811,-1.5784,-1.5784,-1.5784,-1.5784,-1.5784,-1.5784,-1.5784,-1.5784,-1.5784,-1.5784,-1.5784,-1.5784,-1.5784,-1.5784,-1.5784,-1.5784,-1.5784,-1.5784,-1.5784,-1.5784,-1.5784,-1.5784,-1.5784,-1.5784,-1.5784,-1.5784,-1.5784,-1.5784,-1.5784,-1.5784,-1.5784,-1.5784,-1.5784,-1.5784,-1.5784,-1.5784,-1.5784,-1.5784,-1.5784,-1.5784,-1.5784,-1.5784,-1.5784,-1.5784,-1.5784,-1.5784,-1.5784,-1.5784,-1.5784,-1.5784,-1.5784,-1.5784,-1.5784,-1.5784,-1.5784,-1.5784,-1.5784,-1.5784,-1.5784,-1.5691,-1.519,-1.4783,-1.4489,-1.4389,-1.4215,-1.4088,-1.4088,-1.4088,-1.4088,-1.4088,-1.4088,-1.4088,-1.4088,-1.4088,-1.4088,-1.4088,-1.4088,-1.4088,-1.4088,-1.4088,-1.4088,-1.4088,-1.4088,-1.4088,-1.4088,-1.4088,-1.4088,-1.4088,-1.4088,-1.4088,-1.4088,-1.4088,-1.4088,-1.4088,-1.4088,-1.4088,-2.2451,-2.1821,-2.1145,-2.0476,-1.905,-1.7684,-1.7167,-1.6393,-1.5687,-1.5443,-1.5471,-1.5605,-1.5792,-1.5992,-1.6059,-1.5865,-1.5784,-1.5784,-1.5784,-1.5784,-1.5784,-1.5784,-1.5784,-1.5784,-1.5784,-1.5784,-1.5784,-1.5784,-1.5784,-1.5784,-1.5784,-1.5784,-1.5784,-1.5784,-1.5784,-1.5784,-1.5784,-1.5784,-1.5784,-1.5784,-1.5784,-1.5784,-1.5784,-1.5784,-1.5784,-1.5784,-1.5784,-1.5784,-1.5784,-1.5784,-1.5784,-1.5784,-1.5784,-1.5784,-1.5784,-1.5784,-1.5784,-1.5784,-1.5784,-1.5784,-1.5784,-1.5784,-1.5784,-1.5784,-1.5784,-1.5784,-1.5784,-1.5784,-1.5784,-1.5784,-1.5784,-1.5784,-1.5784,-1.5784,-1.5784,-1.5724,-1.5585,-1.5157,-1.479,-1.4689,-1.4516,-1.4349,-1.4249,-1.4229,-1.4202,-1.4102,-1.4088,-1.4088,-1.4088,-1.4088,-1.4088,-1.4088,-1.4088,-1.4088,-1.4088,-1.4088,-1.4088,-1.4088,-1.4088,-1.4088,-1.4088,-1.4088,-1.4088,-1.4088,-1.4088,-1.4088,-1.4088,-1.4088,-1.4088,-1.4088,-1.4088,-1.4088,0.0,0.0,0.0,-2.0113,-1.9897,-1.9569,-1.7403,-1.704,-1.6875,-1.5752,-1.5665,-1.5818,-1.5825,-1.5825,-1.5784,-1.5784,-1.5784,-1.5784,-1.5784,-1.5784,-1.5784,-1.5784,-1.5784,-1.5784,-1.5784,-1.5784,-1.5784,-1.5784,-1.5784,-1.5784,-1.5784,-1.5784,-1.5784,-1.5791,-1.5832,-1.5784,-1.5784,-1.5791,-1.5798,-1.5798,-1.5798,-1.5798,-1.5791,-1.5784,-1.5784,-1.5784,-1.5784,-1.5784,-1.5784,-1.5784,-1.5784,-1.5784,-1.5784,-1.5784,-1.5784,-1.5784,-1.5784,-1.5784,-1.5784,-1.5784,-1.5784,-1.5784,-1.5784,-1.5784,-1.5784,-1.5784,-1.5784,-1.5784,-1.5784,-1.5784,-1.5784,-1.5784,-1.5784,-1.5784,-1.5784,-1.5784,-1.5784,-1.5611,-1.5324,-1.5075,-1.5015,-1.4914,-1.4583,-1.4492,-1.4436,-1.4142,-1.4102,-1.4095,-1.4088,-1.4088,-1.4088,-1.4088,-1.4088,-1.4088,-1.4088,-1.4088,-1.4088,-1.4088,-1.4088,-1.4088,-1.4088,-1.4088,-1.4088,-1.4088,-1.4088,-1.4088,-1.4088,-1.4088,-1.4088,-1.4088,-1.4088,-1.4088,-2.177,0.0,0.0,0.0,0.0,0.0,-1.9261,-1.8326,-1.7557,-1.7751,-1.7167,-1.6664,-1.6861,-1.6298,-1.5784,-1.5784,-1.5784,-1.5784,-1.5784,-1.5784,-1.5784,-1.5784,-1.5784,-1.5784,-1.5784,-1.5784,-1.5784,-1.5784,-1.5784,-1.5784,-1.5784,-1.5784,-1.5925,-1.6146,-1.5939,-1.5784,-1.5784,-1.6046,-1.6152,-1.6152,-1.6152,-1.6152,-1.6146,-1.5925,-1.5784,-1.5784,-1.5784,-1.5784,-1.5784,-1.5784,-1.5784,-1.5784,-1.5784,-1.5784,-1.5784,-1.5784,-1.5784,-1.5784,-1.5784,-1.5784,-1.5784,-1.5784,-1.5784,-1.5784,-1.5784,-1.5784,-1.5784,-1.5784,-1.5784,-1.5784,-1.5784,-1.5784,-1.5784,-1.5784,-1.5784,-1.5784,-1.5784,-1.5718,-1.5625,-1.5331,-1.511,-1.4981,-1.4901,-1.4843,-1.4736,-1.4442,-1.4402,-1.4322,-1.4115,-1.4088,-1.4088,-1.4088,-1.4088,-1.4088,-1.4088,-1.4088,-1.4088,-1.4088,-1.4088,-1.4088,-1.4088,-1.4088,-1.4088,-1.4088,-1.4088,-1.4088,-1.4088,-1.4088,-1.4088,-1.4088,-1.4088,-1.4088,-2.1606,-2.1456,-2.1553,-2.1259,0.0,0.0,-1.9943,-1.9239,-1.8558,-1.837,-1.7916,-1.7598,-1.7766,-1.7044,-1.644,-1.644,-1.6062,-1.5784,-1.5784,-1.5784,-1.5784,-1.5784,-1.5939,-1.6012,-1.6012,-1.6119,-1.6146,-1.6025,-1.6012,-1.6012,-1.6012,-1.6012,-1.6152,-1.6446,-1.6286,-1.6192,-1.6192,-1.6366,-1.6453,-1.6453,-1.6453,-1.6386,-1.6315,-1.6092,-1.5945,-1.5784,-1.5784,-1.5784,-1.5784,-1.5784,-1.5784,-1.5784,-1.5784,-1.5784,-1.5784,-1.5784,-1.5784,-1.5784,-1.5784,-1.5784,-1.5784,-1.5784,-1.5784,-1.5784,-1.5784,-1.5784,-1.5784,-1.5784,-1.5784,-1.5784,-1.5784,-1.5784,-1.5784,-1.5784,-1.5784,-1.5784,-1.5784,-1.5784,-1.5731,-1.5611,-1.5438,-1.5284,-1.5209,-1.5189,-1.5044,-1.475,-1.4703,-1.4596,-1.4302,-1.4269,-1.4269,-1.4269,-1.4162,-1.4135,-1.4255,-1.4269,-1.4215,-1.4095,-1.4202,-1.4215,-1.4088,-1.4088,-1.4088,-1.4088,-1.4088,-1.4088,-1.4088,-1.4088,-1.4088,-1.4088,-1.4088,-1.4088,-2.171,-2.1461,-2.1331,-2.1172,-2.1122,0.0,-1.9992,-1.9965,-1.9829,-1.8574,-1.8556,-1.8759,-1.8759,-1.8079,-1.7505,-1.7372,-1.6669,-1.6055,-1.5825,-1.5784,-1.5784,-1.5784,-1.6059,-1.6239,-1.6321,-1.6506,-1.6553,-1.6342,-1.6295,-1.6253,-1.6319,-1.6342,-1.642,-1.6747,-1.6727,-1.6707,-1.6707,-1.674,-1.6754,-1.6754,-1.6754,-1.662,-1.6415,-1.6348,-1.6126,-1.5831,-1.5798,-1.5784,-1.5784,-1.5784,-1.5784,-1.5784,-1.5784,-1.5784,-1.5784,-1.5784,-1.5784,-1.5784,-1.5784,-1.5784,-1.5784,-1.5784,-1.5784,-1.5784,-1.5784,-1.5784,-1.5784,-1.5784,-1.5784,-1.5784,-1.5784,-1.5784,-1.5784,-1.5784,-1.5784,-1.5784,-1.5784,-1.5784,-1.5784,-1.5784,-1.5784,-1.5698,-1.5491,-1.5444,-1.5344,-1.5102,-1.5055,-1.4948,-1.4609,-1.4569,-1.4569,-1.4569,-1.4309,-1.4242,-1.4496,-1.4522,-1.4409,-1.4155,-1.4376,-1.4402,-1.4142,-1.4108,-1.4088,-1.4088,-1.4088,-1.4088,-1.4088,-1.4088,-1.4088,-1.4088,-1.4088,-1.4088,-2.2367,-2.2149,-2.216,-2.1006,-2.0732,0.0,-2.0853,-2.1053,-2.1216,-2.1311,-2.0887,-2.0525,-2.0525,-1.972,-1.8772,-1.7777,-1.8087,-1.7855,-1.6062,-1.5784,-1.5784,-1.5784,-1.5879,-1.6012,-1.6253,-1.6375,-1.6382,-1.6279,-1.6052,-1.6119,-1.66,-1.64,-1.6569,-1.7099,-1.6834,-1.6707,-1.6707,-1.6991,-1.7112,-1.7112,-1.7112,-1.7085,-1.7012,-1.6536,-1.6239,-1.6172,-1.5932,-1.5784,-1.5784,-1.5784,-1.5784,-1.5784,-1.5784,-1.5784,-1.5784,-1.5784,-1.5784,-1.5784,-1.5784,-1.5784,-1.5784,-1.5784,-1.5784,-1.5784,-1.5784,-1.5784,-1.5784,-1.5784,-1.5784,-1.5784,-1.5784,-1.5784,-1.5784,-1.5784,-1.5784,-1.5784,-1.5784,-1.5784,-1.5784,-1.5784,-1.5784,-1.5764,-1.5752,-1.5698,-1.5645,-1.5357,-1.5311,-1.5211,-1.4961,-1.4877,-1.4877,-1.4877,-1.4616,-1.4456,-1.4516,-1.4522,-1.4496,-1.4442,-1.4489,-1.4496,-1.4436,-1.4208,-1.4088,-1.4088,-1.4088,-1.4088,-1.4088,-1.4088,-1.4088,-1.4088,-1.4088,-1.4088,-2.3167,-2.2912,-2.2664,-2.1578,-2.1231,0.0,0.0,-2.0985,-2.1186,-2.1622,-2.148,-2.1336,-2.154,-2.0873,-2.0042,-1.9459,-1.9314,-1.892,-1.7886,-1.7037,-1.6346,-1.5879,-1.5959,-1.6112,-1.6259,-1.64,-1.6486,-1.6486,-1.6213,-1.6306,-1.6894,-1.6837,-1.6965,-1.7407,-1.7221,-1.7141,-1.7141,-1.7347,-1.742,-1.742,-1.742,-1.7266,-1.6914,-1.6627,-1.6326,-1.6046,-1.5844,-1.5784,-1.5784,-1.5784,-1.5784,-1.5784,-1.5784,-1.5784,-1.5784,-1.5784,-1.5784,-1.5784,-1.5784,-1.5784,-1.5784,-1.5784,-1.5784,-1.5784,-1.5784,-1.5784,-1.5784,-1.5784,-1.5784,-1.5784,-1.5784,-1.5784,-1.5784,-1.5784,-1.5784,-1.5784,-1.5784,-1.5784,-1.5784,-1.5784,-1.5784,-1.5784,-1.5784,-1.5784,-1.5731,-1.5631,-1.5611,-1.5504,-1.5217,-1.5177,-1.5177,-1.5177,-1.4783,-1.4583,-1.473,-1.4603,-1.4522,-1.4522,-1.4522,-1.4522,-1.4522,-1.4242,-1.4088,-1.4088,-1.4088,-1.4088,-1.4088,-1.4088,-1.4088,-1.4088,-1.4088,-1.4088,-2.4129,-2.3849,-2.3416,-2.2462,-2.2,-2.1652,0.0,0.0,0.0,-2.1269,-2.1535,-2.1836,-2.2312,-2.1836,-2.132,-2.1087,-2.06,-2.0163,-1.9796,-1.8879,-1.7784,-1.647,-1.625,-1.6233,-1.6395,-1.6567,-1.6707,-1.6707,-1.6486,-1.6643,-1.7172,-1.7199,-1.7333,-1.7569,-1.7582,-1.7582,-1.7582,-1.7582,-1.7582,-1.7582,-1.7522,-1.7248,-1.6787,-1.6673,-1.6366,-1.5912,-1.5804,-1.5784,-1.5784,-1.5784,-1.5784,-1.5784,-1.5784,-1.5784,-1.5784,-1.5784,-1.5784,-1.5784,-1.5784,-1.5784,-1.5784,-1.5784,-1.5784,-1.5784,-1.5784,-1.5784,-1.5784,-1.5784,-1.5784,-1.5784,-1.5784,-1.5784,-1.5784,-1.5784,-1.5784,-1.5784,-1.5784,-1.5784,-1.5784,-1.5784,-1.5784,-1.5784,-1.5784,-1.5784,-1.5784,-1.5784,-1.5784,-1.5698,-1.5504,-1.5478,-1.5478,-1.5478,-1.5003,-1.4763,-1.4995,-1.4743,-1.4583,-1.4479,-1.4522,-1.4522,-1.4522,-1.4242,-1.4088,-1.4088,-1.4088,-1.4088,-1.4088,-1.4088,-1.4088,-1.4088,-1.4088,-1.4088,-2.5362,-2.5048,-2.4904,-2.3442,-2.2414,-2.1766,-2.169,0.0,-2.1249,-2.1719,0.0,-2.2526,-2.2901,0.0,0.0,-2.1436,-2.2213,-2.2281,-2.0344,-2.0998,-2.0814,-1.8412,-1.6746,-1.6086,-1.6607,-1.6687,-1.6707,-1.6707,-1.6673,-1.68,-1.7186,-1.7199,-1.7333,-1.7569,-1.7582,-1.7582,-1.7582,-1.7582,-1.7582,-1.7582,-1.7373,-1.7213,-1.7132,-1.661,-1.6286,-1.6206,-1.5945,-1.5784,-1.5784,-1.5784,-1.5784,-1.5784,-1.5784,-1.5784,-1.5784,-1.5784,-1.5784,-1.5784,-1.5784,-1.5784,-1.5784,-1.5784,-1.5784,-1.5784,-1.5784,-1.5784,-1.5784,-1.5784,-1.5784,-1.5784,-1.5784,-1.5784,-1.5784,-1.5784,-1.5784,-1.5784,-1.5784,-1.5784,-1.5784,-1.5784,-1.5784,-1.5784,-1.5784,-1.5784,-1.5784,-1.5784,-1.5784,-1.5771,-1.5738,-1.5731,-1.5731,-1.5731,-1.5491,-1.5211,-1.5028,-1.4981,-1.4803,-1.4536,-1.4522,-1.4522,-1.4522,-1.4242,-1.4088,-1.4088,-1.4088,-1.4088,-1.4088,-1.4088,-1.4088,-1.4088,-1.4088,-1.4088,-2.7051,-2.6589,-2.613,-2.5231,-2.4389,-2.3578,-2.2804,-2.248,-2.2362,-2.2284,0.0,0.0,0.0,0.0,0.0,0.0,-2.3249,-2.3446,-2.2838,-2.2612,-2.1553,-1.9146,-1.8644,-1.8171,-1.7456,-1.684,-1.6526,-1.6693,-1.6867,-1.7146,-1.7434,-1.8012,-1.8119,-1.7628,-1.8199,-1.8251,-1.7635,-1.7582,-1.7582,-1.7582,-1.7514,-1.7367,-1.7192,-1.6945,-1.6643,-1.6315,-1.6139,-1.5985,-1.5784,-1.5784,-1.5784,-1.5784,-1.5784,-1.5784,-1.5784,-1.5784,-1.5784,-1.5784,-1.5784,-1.5784,-1.5784,-1.5784,-1.5784,-1.5784,-1.5784,-1.5784,-1.5784,-1.5784,-1.5784,-1.5784,-1.5784,-1.5784,-1.5784,-1.5784,-1.5784,-1.5784,-1.5784,-1.5784,-1.5784,-1.5784,-1.5784,-1.5784,-1.5784,-1.5784,-1.5784,-1.5784,-1.5784,-1.5784,-1.5784,-1.5784,-1.5784,-1.5784,-1.5571,-1.5344,-1.5224,-1.4903,-1.473,-1.4776,-1.4616,-1.4442,-1.4275,-1.4155,-1.4088,-1.4088,-1.4088,-1.4088,-1.4088,-1.4088,-1.4088,-1.4088,-1.4088,-1.4088,-2.7959,-2.7699,-2.7335,-2.6852,-2.604,-2.5176,-2.4194,-2.3764,-2.3429,-2.295,-2.2881,0.0,0.0,0.0,-2.3418,-2.374,0.0,-2.4319,-2.4763,-2.4041,-2.2691,-2.059,-2.0492,-2.0006,-1.8431,-1.7575,-1.7033,-1.6965,-1.7152,-1.7511,-1.8035,-1.8767,-1.8819,-1.8048,-1.8733,-1.8587,-1.7514,-1.7514,-1.7514,-1.7514,-1.7514,-1.7407,-1.7199,-1.7112,-1.6797,-1.6321,-1.6321,-1.6106,-1.5784,-1.5784,-1.5784,-1.5784,-1.5784,-1.5784,-1.5784,-1.5784,-1.5784,-1.5784,-1.5784,-1.5784,-1.5784,-1.5784,-1.5784,-1.5784,-1.5784,-1.5784,-1.5784,-1.5784,-1.5784,-1.5784,-1.5784,-1.5784,-1.5784,-1.5784,-1.5784,-1.5784,-1.5784,-1.5784,-1.5784,-1.5784,-1.5784,-1.5784,-1.5784,-1.5784,-1.5784,-1.5784,-1.5784,-1.5784,-1.5784,-1.5784,-1.5784,-1.5784,-1.5645,-1.5484,-1.5404,-1.5003,-1.4783,-1.4836,-1.4636,-1.4389,-1.4095,-1.4088,-1.4088,-1.4088,-1.4088,-1.4088,-1.4088,-1.4088,-1.4088,-1.4088,-1.4088,-1.4088,-2.7595,-2.7975,-2.85,-2.7891,-2.6851,-2.5945,-2.593,-2.5171,-2.4331,-2.3877,-2.3763,-2.3614,-2.3187,-2.3486,-2.3769,-2.3789,-2.4482,0.0,0.0,-2.5382,-2.4982,-2.3349,-2.1999,-2.0655,-1.93,-1.9124,-1.868,-1.7661,-1.7565,-1.8035,-1.9072,-1.9176,-1.9176,-1.9176,-1.8928,-1.8317,-1.7213,-1.7213,-1.7213,-1.7213,-1.7213,-1.7206,-1.7192,-1.6847,-1.656,-1.6321,-1.6321,-1.6106,-1.5784,-1.5784,-1.5784,-1.5784,-1.5784,-1.5784,-1.5784,-1.5784,-1.5784,-1.5784,-1.5784,-1.5784,-1.5784,-1.5784,-1.5784,-1.5784,-1.5784,-1.5784,-1.5784,-1.5784,-1.5784,-1.5784,-1.5784,-1.5784,-1.5784,-1.5784,-1.5784,-1.5784,-1.5784,-1.5784,-1.5784,-1.5784,-1.5784,-1.5784,-1.5784,-1.5784,-1.5784,-1.5784,-1.5784,-1.5784,-1.5784,-1.5784,-1.5784,-1.5784,-1.5771,-1.5705,-1.5424,-1.5378,-1.513,-1.4569,-1.4522,-1.4389,-1.4095,-1.4088,-1.4088,-1.4088,-1.4088,-1.4088,-1.4088,-1.4088,-1.4088,-1.4088,-1.4088,-1.4088,0.0,0.0,-2.84,-2.8773,-2.8282,-2.7642,-2.7278,-2.6834,-2.6266,-2.5483,-2.4745,-2.4227,-2.4049,-2.3885,-2.3887,-2.416,-2.4697,-2.5176,0.0,-2.5596,-2.5479,-2.4971,-2.2841,-2.1516,-2.165,-2.095,-2.0371,-2.003,-2.0002,-2.0202,-2.0562,-2.1081,-2.1038,-2.0364,-2.0256,-1.9632,-1.8506,-1.7845,-1.7435,-1.7435,-1.7435,-1.7435,-1.7481,-1.7328,-1.7128,-1.6904,-1.6904,-1.6737,-1.6393,-1.6199,-1.6119,-1.6106,-1.5905,-1.5784,-1.5784,-1.5784,-1.5784,-1.5784,-1.5784,-1.5784,-1.5784,-1.5784,-1.5784,-1.5784,-1.5784,-1.5784,-1.5784,-1.5784,-1.5784,-1.5784,-1.5784,-1.5784,-1.5784,-1.5784,-1.5784,-1.5784,-1.5784,-1.5784,-1.5784,-1.5784,-1.5784,-1.5784,-1.5784,-1.5784,-1.5784,-1.5784,-1.5784,-1.5784,-1.5784,-1.5784,-1.5784,-1.5784,-1.5784,-1.5744,-1.5691,-1.5504,-1.5231,-1.4836,-1.481,-1.4683,-1.4389,-1.4563,-1.4526,-1.4095,-1.4275,-1.4282,-1.4088,-1.4088,-1.4088,-1.4088,-1.4088,-1.4088,-2.8486,-2.8511,0.0,-2.9336,-2.9196,-2.8779,-2.8457,-2.8211,-2.7799,-2.6912,-2.6099,-2.5484,-2.5242,-2.4687,-2.4446,-2.4931,-2.5056,-2.5225,0.0,-2.5693,-2.5693,-2.5693,-2.4131,-2.3064,-2.3123,-2.2472,-2.1841,-2.132,-2.1361,-2.1574,-2.1836,-2.2005,-2.1912,-2.1505,-2.0613,-1.9778,-1.906,-1.8344,-1.7839,-1.7481,-1.7941,-1.7996,-1.7582,-1.7582,-1.7474,-1.7199,-1.7199,-1.7032,-1.6693,-1.6506,-1.6366,-1.6301,-1.6059,-1.5919,-1.5784,-1.5784,-1.5784,-1.5784,-1.5784,-1.5784,-1.5784,-1.5784,-1.5784,-1.5784,-1.5784,-1.5784,-1.5784,-1.5784,-1.5784,-1.5784,-1.5784,-1.5784,-1.5784,-1.5784,-1.5784,-1.5784,-1.5784,-1.5784,-1.5784,-1.5784,-1.5784,-1.5784,-1.5784,-1.5784,-1.5784,-1.5784,-1.5784,-1.5784,-1.5784,-1.5784,-1.5784,-1.5784,-1.5784,-1.5784,-1.5784,-1.5658,-1.5424,-1.5182,-1.5117,-1.4983,-1.4689,-1.4908,-1.4827,-1.4445,-1.4476,-1.4429,-1.4242,-1.4135,-1.4088,-1.4088,-1.4195,-1.4182]},{"header":{"parameterUnit":"m.s-1","parameterCategory":1,"la1":30.6,"la2":29.2853,"lo1":-89.7004,"lo2":-87.6739,"dy":0.0162,"dx":0.0183,"nx":112,"ny":82,"refTime":"2023-05-08T00:00:00:Z","depth":0,"parameterNumber":3,"parameterNumberName":"V-component_of_WINDS"},"data":[0.0,0.0,0.0,0.0,0.0,0.0,0.0,0.0,0.0,0.0,0.0,0.0,0.0,0.0,0.0,0.0,0.0,0.0,0.0,0.0,0.0,0.0,0.0,0.0,0.0,0.0,0.0,0.0,0.0,0.0,0.0,0.0,0.0,0.0,0.0,0.0,0.0,0.0,0.0,0.0,0.0,0.0,0.0,0.0,0.0,0.0,0.0,0.0,0.0,0.0,0.0,0.0,0.0,0.0,0.0,0.0,0.0,0.0,0.0,0.0,0.0,0.0,0.0,0.0,0.0,0.0,0.0,0.0,0.0,0.0,0.0,0.0,0.0,0.0,0.0,0.0,0.0,0.0,0.0,0.0,0.0,0.0,0.0,0.0,0.0,0.0,0.0,0.0,0.0,0.0,2.4031,2.3085,2.2413,2.1982,2.1917,2.2725,2.2901,2.2183,0.0,0.0,0.0,0.0,0.0,0.0,0.0,0.0,0.0,0.0,0.0,0.0,0.0,0.0,0.0,0.0,0.0,0.0,0.0,0.0,0.0,0.0,0.0,0.0,0.0,0.0,0.0,0.0,0.0,0.0,0.0,0.0,0.0,0.0,0.0,0.0,0.0,0.0,0.0,0.0,0.0,0.0,0.0,0.0,0.0,0.0,0.0,0.0,0.0,0.0,0.0,0.0,0.0,0.0,0.0,0.0,0.0,0.0,0.0,0.0,0.0,0.0,0.0,0.0,0.0,0.0,0.0,0.0,0.0,0.0,0.0,0.0,0.0,0.0,0.0,0.0,0.0,0.0,0.0,0.0,0.0,0.0,0.0,0.0,0.0,0.0,0.0,0.0,0.0,0.0,0.0,0.0,0.0,0.0,0.0,0.0,0.0,0.0,0.0,0.0,0.0,0.0,0.0,0.0,2.3625,2.2591,2.3071,2.3318,2.2906,2.3393,2.3806,2.4077,0.0,0.0,0.0,0.0,0.0,0.0,0.0,0.0,0.0,0.0,0.0,0.0,0.0,0.0,0.0,0.0,0.0,0.0,0.0,0.0,0.0,0.0,0.0,0.0,0.0,0.0,0.0,0.0,0.0,0.0,0.0,0.0,0.0,0.0,0.0,0.0,0.0,0.0,0.0,0.0,0.0,0.0,0.0,0.0,0.0,0.0,0.0,0.0,0.0,0.0,0.0,0.0,0.0,0.0,0.0,0.0,0.0,0.0,0.0,0.0,0.0,0.0,0.0,0.0,0.0,0.0,0.0,0.0,0.0,0.0,0.0,0.0,0.0,0.0,0.0,0.0,0.0,0.0,0.0,0.0,0.0,0.0,0.0,0.0,0.0,0.0,0.0,0.0,0.0,0.0,0.0,0.0,0.0,0.0,0.0,0.0,0.0,0.0,0.0,0.0,0.0,0.0,0.0,2.4321,2.406,2.3604,2.3924,2.4085,2.3884,2.4055,2.427,2.4507,2.4497,0.0,0.0,0.0,0.0,0.0,0.0,0.0,0.0,0.0,0.0,0.0,0.0,0.0,0.0,0.0,0.0,0.0,0.0,0.0,0.0,0.0,0.0,0.0,0.0,0.0,0.0,0.0,0.0,0.0,0.0,0.0,0.0,0.0,0.0,0.0,0.0,0.0,0.0,0.0,0.0,0.0,0.0,0.0,0.0,0.0,0.0,0.0,0.0,0.0,0.0,0.0,0.0,0.0,0.0,0.0,0.0,0.0,0.0,0.0,0.0,0.0,0.0,0.0,0.0,0.0,0.0,0.0,0.0,0.0,0.0,0.0,0.0,0.0,0.0,0.0,0.0,0.0,0.0,0.0,0.0,0.0,0.0,0.0,0.0,0.0,0.0,0.0,0.0,0.0,0.0,0.0,0.0,0.0,0.0,0.0,0.0,0.0,0.0,0.0,0.0,0.0,0.0,2.4583,2.4583,2.4583,2.4643,2.4621,2.4507,2.46,2.4621,2.4507,2.4497,0.0,0.0,0.0,0.0,0.0,0.0,0.0,0.0,0.0,0.0,0.0,0.0,0.0,0.0,0.0,0.0,0.0,0.0,0.0,0.0,0.0,0.0,0.0,0.0,0.0,0.0,0.0,0.0,0.0,0.0,0.0,0.0,0.0,0.0,0.0,0.0,0.0,0.0,0.0,0.0,0.0,0.0,0.0,0.0,0.0,0.0,0.0,0.0,0.0,0.0,0.0,0.0,0.0,0.0,0.0,0.0,0.0,0.0,0.0,0.0,0.0,0.0,0.0,0.0,0.0,0.0,0.0,0.0,0.0,0.0,0.0,0.0,0.0,0.0,0.0,0.0,0.0,0.0,0.0,0.0,0.0,0.0,0.0,0.0,0.0,0.0,0.0,0.0,0.0,0.0,0.0,0.0,0.0,0.0,0.0,0.0,0.0,0.0,0.0,0.0,0.0,0.0,2.4861,2.4861,2.4861,2.5053,2.4962,2.4538,2.489,2.4952,2.4528,2.4497,0.0,0.0,0.0,0.0,0.0,0.0,0.0,0.0,0.0,0.0,0.0,0.0,0.0,0.0,0.0,0.0,0.0,0.0,0.0,0.0,0.0,0.0,0.0,0.0,0.0,0.0,0.0,0.0,0.0,0.0,0.0,0.0,0.0,0.0,0.0,0.0,0.0,0.0,0.0,0.0,0.0,0.0,0.0,0.0,0.0,0.0,0.0,0.0,0.0,0.0,0.0,0.0,0.0,0.0,0.0,0.0,0.0,0.0,0.0,0.0,0.0,0.0,0.0,0.0,0.0,0.0,0.0,0.0,0.0,0.0,0.0,0.0,0.0,0.0,0.0,0.0,0.0,0.0,0.0,0.0,0.0,0.0,0.0,0.0,0.0,0.0,0.0,0.0,0.0,0.0,0.0,0.0,0.0,0.0,0.0,0.0,0.0,0.0,0.0,0.0,0.0,0.0,2.5547,2.5673,2.5158,2.5028,2.4974,2.4924,2.4986,2.4931,2.4754,0.0,0.0,0.0,0.0,0.0,0.0,0.0,0.0,0.0,0.0,0.0,0.0,0.0,0.0,0.0,0.0,0.0,0.0,0.0,0.0,0.0,0.0,0.0,0.0,0.0,0.0,0.0,0.0,0.0,0.0,0.0,0.0,0.0,0.0,0.0,0.0,0.0,0.0,0.0,0.0,0.0,0.0,0.0,0.0,0.0,0.0,0.0,0.0,0.0,0.0,0.0,0.0,0.0,0.0,0.0,0.0,0.0,0.0,0.0,0.0,0.0,0.0,0.0,0.0,0.0,0.0,0.0,0.0,0.0,0.0,0.0,0.0,0.0,0.0,0.0,0.0,0.0,0.0,0.0,0.0,0.0,0.0,0.0,0.0,0.0,0.0,0.0,0.0,0.0,0.0,0.0,0.0,0.0,0.0,0.0,0.0,0.0,0.0,0.0,0.0,0.0,0.0,2.5852,2.6483,2.676,2.6163,2.5955,2.5872,2.5997,2.5913,2.583,2.583,0.0,0.0,0.0,0.0,0.0,0.0,0.0,0.0,0.0,0.0,0.0,0.0,0.0,0.0,0.0,0.0,0.0,0.0,0.0,0.0,0.0,0.0,0.0,0.0,0.0,0.0,0.0,0.0,0.0,0.0,0.0,0.0,0.0,0.0,0.0,0.0,0.0,0.0,0.0,0.0,0.0,0.0,0.0,0.0,0.0,0.0,0.0,0.0,0.0,0.0,0.0,0.0,0.0,0.0,0.0,0.0,0.0,0.0,0.0,0.0,0.0,0.0,0.0,0.0,0.0,0.0,0.0,0.0,0.0,0.0,0.0,0.0,0.0,0.0,0.0,0.0,0.0,0.0,0.0,0.0,0.0,0.0,0.0,0.0,0.0,0.0,0.0,0.0,0.0,0.0,0.0,0.0,0.0,0.0,0.0,0.0,0.0,0.0,0.0,0.0,0.0,0.0,2.6935,2.7562,2.8124,2.8096,2.7924,2.7792,2.7804,2.7792,2.7792,0.0,0.0,0.0,0.0,0.0,0.0,0.0,0.0,0.0,0.0,0.0,0.0,0.0,0.0,0.0,0.0,0.0,0.0,0.0,0.0,0.0,0.0,0.0,0.0,0.0,0.0,0.0,0.0,0.0,0.0,0.0,0.0,0.0,0.0,0.0,0.0,0.0,0.0,0.0,0.0,0.0,0.0,0.0,0.0,0.0,0.0,0.0,0.0,0.0,0.0,0.0,0.0,0.0,0.0,0.0,0.0,0.0,0.0,0.0,0.0,0.0,0.0,0.0,0.0,0.0,0.0,0.0,0.0,0.0,0.0,0.0,0.0,0.0,0.0,0.0,0.0,0.0,0.0,0.0,0.0,0.0,0.0,0.0,0.0,0.0,0.0,0.0,0.0,0.0,0.0,0.0,0.0,0.0,0.0,0.0,0.0,0.0,0.0,0.0,0.0,0.0,0.0,0.0,2.8008,2.8324,2.8537,2.8338,2.8136,2.8084,2.8215,2.7711,2.7546,2.798,0.0,0.0,0.0,0.0,0.0,0.0,0.0,0.0,0.0,0.0,0.0,0.0,0.0,0.0,0.0,0.0,0.0,0.0,0.0,0.0,0.0,0.0,0.0,0.0,0.0,0.0,0.0,0.0,0.0,0.0,0.0,0.0,0.0,0.0,0.0,0.0,0.0,0.0,0.0,0.0,0.0,0.0,0.0,0.0,0.0,0.0,0.0,0.0,0.0,0.0,0.0,0.0,0.0,0.0,0.0,0.0,0.0,0.0,0.0,0.0,0.0,0.0,0.0,0.0,0.0,0.0,0.0,0.0,0.0,0.0,0.0,0.0,0.0,0.0,0.0,0.0,0.0,0.0,0.0,0.0,0.0,0.0,0.0,0.0,0.0,0.0,0.0,0.0,0.0,0.0,0.0,0.0,0.0,0.0,0.0,0.0,0.0,0.0,0.0,0.0,0.0,0.0,2.8649,2.8838,2.8934,2.8786,2.8659,2.8609,2.8735,2.8324,2.8187,2.8558,0.0,0.0,0.0,0.0,0.0,0.0,0.0,0.0,0.0,0.0,0.0,0.0,0.0,0.0,0.0,0.0,0.0,0.0,0.0,0.0,0.0,0.0,0.0,0.0,0.0,0.0,0.0,0.0,0.0,0.0,0.0,0.0,0.0,0.0,0.0,0.0,0.0,0.0,0.0,0.0,0.0,0.0,0.0,0.0,0.0,0.0,0.0,0.0,0.0,0.0,0.0,0.0,0.0,0.0,0.0,0.0,0.0,0.0,0.0,0.0,0.0,0.0,0.0,0.0,0.0,0.0,0.0,0.0,0.0,0.0,0.0,0.0,0.0,0.0,0.0,0.0,0.0,0.0,0.0,0.0,0.0,0.0,0.0,0.0,0.0,0.0,0.0,0.0,0.0,0.0,0.0,0.0,0.0,0.0,0.0,0.0,0.0,0.0,0.0,0.0,0.0,0.0,2.9037,2.9104,2.9258,2.931,2.931,2.931,2.931,2.9258,2.9258,2.931,0.0,0.0,0.0,0.0,0.0,0.0,0.0,0.0,0.0,0.0,0.0,0.0,0.0,0.0,0.0,0.0,0.0,0.0,0.0,0.0,0.0,0.0,0.0,0.0,0.0,0.0,0.0,0.0,0.0,0.0,0.0,0.0,0.0,0.0,0.0,0.0,0.0,0.0,0.0,0.0,0.0,0.0,0.0,0.0,0.0,0.0,0.0,0.0,0.0,0.0,0.0,0.0,0.0,0.0,0.0,0.0,0.0,0.0,0.0,0.0,3.3295,3.3069,0.0,0.0,0.0,0.0,0.0,0.0,0.0,0.0,0.0,0.0,0.0,0.0,0.0,0.0,0.0,0.0,0.0,0.0,0.0,0.0,0.0,0.0,0.0,0.0,0.0,0.0,0.0,0.0,0.0,0.0,0.0,0.0,0.0,0.0,0.0,0.0,0.0,0.0,0.0,0.0,2.979,2.9103,2.8752,2.9258,2.931,2.931,2.931,2.8843,2.8778,2.9284,2.883,0.0,0.0,0.0,0.0,0.0,0.0,0.0,0.0,0.0,0.0,0.0,0.0,0.0,0.0,0.0,0.0,0.0,0.0,0.0,0.0,0.0,0.0,0.0,0.0,0.0,0.0,0.0,0.0,0.0,0.0,0.0,0.0,0.0,0.0,0.0,0.0,0.0,0.0,0.0,0.0,0.0,0.0,0.0,0.0,0.0,0.0,0.0,0.0,0.0,0.0,0.0,0.0,0.0,0.0,0.0,0.0,0.0,0.0,0.0,3.4065,3.3932,0.0,0.0,0.0,0.0,0.0,0.0,0.0,0.0,0.0,0.0,0.0,0.0,0.0,0.0,0.0,0.0,0.0,0.0,0.0,0.0,0.0,0.0,0.0,0.0,0.0,0.0,0.0,0.0,0.0,0.0,0.0,0.0,0.0,0.0,0.0,0.0,0.0,0.0,0.0,0.0,2.9787,2.8907,2.8336,2.857,2.8562,2.8562,2.8562,2.8273,2.8302,2.8699,2.8422,0.0,0.0,0.0,0.0,0.0,0.0,0.0,0.0,0.0,0.0,0.0,0.0,0.0,0.0,0.0,0.0,0.0,0.0,0.0,0.0,0.0,0.0,0.0,0.0,0.0,0.0,0.0,0.0,0.0,0.0,0.0,0.0,0.0,0.0,0.0,0.0,0.0,0.0,0.0,0.0,0.0,0.0,0.0,0.0,0.0,0.0,0.0,0.0,0.0,0.0,0.0,0.0,0.0,3.5185,3.5076,3.4601,3.4601,3.5013,3.5735,3.5295,3.5239,3.5472,3.4737,0.0,0.0,0.0,0.0,0.0,0.0,0.0,0.0,0.0,0.0,0.0,0.0,0.0,0.0,0.0,0.0,0.0,0.0,0.0,0.0,0.0,0.0,3.2792,3.2017,3.1996,3.2094,3.1869,0.0,0.0,0.0,0.0,0.0,0.0,0.0,0.0,0.0,0.0,0.0,2.9707,2.8986,2.8379,2.8189,2.8189,2.8189,2.8189,2.8189,2.8254,2.8411,2.8444,2.8643,0.0,0.0,0.0,0.0,0.0,0.0,0.0,0.0,0.0,0.0,0.0,0.0,0.0,0.0,0.0,0.0,0.0,0.0,0.0,0.0,0.0,0.0,0.0,0.0,0.0,0.0,0.0,0.0,0.0,0.0,0.0,0.0,3.7809,3.7809,0.0,0.0,0.0,0.0,0.0,0.0,0.0,0.0,0.0,0.0,0.0,0.0,0.0,3.5831,3.6005,3.5941,3.5878,3.5799,3.5857,3.5855,3.5791,3.5791,3.5855,3.5967,3.5881,0.0,3.6715,3.6047,0.0,0.0,0.0,0.0,0.0,0.0,0.0,0.0,0.0,0.0,0.0,0.0,0.0,0.0,0.0,0.0,0.0,0.0,0.0,0.0,0.0,0.0,3.2448,3.232,3.2316,3.2341,3.2305,3.1998,3.1701,3.1641,3.1655,3.1634,0.0,0.0,0.0,0.0,0.0,0.0,3.0548,3.0114,2.9735,2.9704,2.9704,2.9704,2.9704,2.9704,2.9704,2.9749,2.9749,2.9797,2.9858,2.9681,0.0,0.0,0.0,0.0,0.0,0.0,0.0,0.0,0.0,0.0,0.0,0.0,0.0,0.0,0.0,0.0,0.0,0.0,0.0,0.0,0.0,0.0,0.0,0.0,0.0,0.0,0.0,0.0,0.0,3.8376,3.823,3.8112,3.8367,3.8427,0.0,0.0,0.0,0.0,0.0,0.0,0.0,0.0,0.0,3.6116,3.6037,3.61,3.6273,3.61,3.6037,3.6116,3.6037,3.6037,3.6116,3.6116,3.6148,3.6289,3.6289,3.6441,3.6669,3.6205,3.6123,3.6286,0.0,0.0,0.0,0.0,3.4606,3.4182,3.368,3.3495,3.3525,3.3583,0.0,0.0,0.0,0.0,0.0,0.0,0.0,3.4335,3.3583,3.3183,3.2859,3.249,3.2398,3.2398,3.2398,3.2246,3.2064,3.1942,3.2244,3.2309,3.1743,3.1427,0.0,0.0,0.0,3.0655,3.0925,3.0582,3.0224,3.0104,3.0104,3.0104,3.0104,3.0104,3.0149,3.0254,3.0269,3.045,3.0837,3.036,3.0286,0.0,0.0,0.0,0.0,0.0,0.0,0.0,0.0,0.0,0.0,0.0,0.0,0.0,0.0,0.0,0.0,0.0,0.0,0.0,0.0,0.0,0.0,0.0,0.0,0.0,0.0,0.0,0.0,3.8331,3.825,3.8312,3.8295,3.8299,0.0,0.0,0.0,0.0,0.0,0.0,3.6068,3.6053,3.6116,3.6274,3.6195,3.6258,3.6492,3.6258,3.6195,3.6274,3.6195,3.6195,3.6274,3.6274,3.6352,3.6492,3.6492,3.6492,3.6492,3.6226,3.61,3.6053,3.6053,3.5626,3.4987,3.4851,3.4334,3.3634,3.3154,3.2997,3.301,3.3124,3.3357,3.3717,3.4244,0.0,0.0,0.0,0.0,3.4058,3.3321,3.3136,3.3013,3.2505,3.2398,3.2398,3.2398,3.2521,3.2568,3.224,3.2572,3.2703,3.1994,3.1752,0.0,3.1867,3.1488,3.1267,3.1405,3.116,3.0911,3.0793,3.0763,3.0763,3.0763,3.0763,3.0837,3.0984,3.0984,3.1204,3.1709,3.1101,3.0999,3.1506,0.0,0.0,0.0,0.0,0.0,0.0,0.0,0.0,0.0,0.0,0.0,0.0,0.0,0.0,0.0,0.0,0.0,0.0,0.0,0.0,0.0,0.0,0.0,0.0,0.0,0.0,0.0,0.0,0.0,3.7958,3.7473,0.0,0.0,0.0,0.0,3.6988,3.6368,3.6068,3.6179,3.6179,3.6274,3.6492,3.6492,3.6492,3.6492,3.6492,3.6492,3.6492,3.6492,3.6492,3.6492,3.6492,3.6492,3.6492,3.6492,3.6492,3.6492,3.6492,3.6352,3.6179,3.6179,3.5705,3.4942,3.4424,3.3826,3.3154,3.2634,3.2444,3.2444,3.2444,3.3232,3.4159,3.4218,3.4695,0.0,0.0,3.346,3.3306,3.2628,3.2444,3.2428,3.2398,3.2398,3.2398,3.2398,3.2906,3.3167,3.2496,3.2419,3.241,3.2363,0.0,3.1691,3.2288,3.1855,3.1697,3.2262,3.233,3.2299,3.2299,3.2299,3.2299,3.2299,3.2299,3.2299,3.2299,3.2299,3.2327,3.2342,3.2299,3.2299,3.2342,3.2299,0.0,0.0,0.0,0.0,0.0,0.0,0.0,0.0,0.0,0.0,0.0,0.0,0.0,0.0,0.0,0.0,0.0,0.0,0.0,0.0,0.0,0.0,0.0,0.0,0.0,0.0,0.0,0.0,3.7867,3.7451,0.0,3.7423,3.7258,3.6955,3.6528,3.6364,3.6352,3.6383,3.6383,3.6414,3.6492,3.6492,3.6492,3.6492,3.6492,3.6492,3.6492,3.6492,3.6693,3.7074,3.7074,3.7282,3.7663,3.7663,3.7663,3.7663,3.7663,3.7163,3.6383,3.6383,3.5937,3.5308,3.5027,3.4454,3.3881,3.4075,3.3841,3.3423,3.3423,3.3712,3.406,3.406,3.4252,3.4386,3.3905,3.3789,3.3646,3.3065,3.2922,3.2815,3.2465,3.2398,3.2398,3.2398,3.2582,3.269,3.2444,3.2752,3.2898,3.2457,3.2229,3.2168,3.2368,3.2229,3.2176,3.2355,3.2398,3.2398,3.2398,3.2398,3.2213,3.1782,3.1751,3.1567,3.1151,3.112,3.132,3.1747,3.1751,3.1951,3.2382,3.2398,3.2275,0.0,0.0,0.0,0.0,0.0,0.0,0.0,0.0,0.0,0.0,0.0,0.0,0.0,0.0,0.0,0.0,0.0,0.0,0.0,0.0,0.0,0.0,0.0,0.0,0.0,3.8008,3.7692,3.8238,3.7516,3.7007,3.7153,3.7036,3.6875,3.6631,3.6538,3.6693,3.7088,3.6922,3.6892,3.7118,3.7118,3.7118,3.7118,3.7118,3.7118,3.7118,3.7118,3.7312,3.7709,3.7709,3.7924,3.8306,3.8306,3.8306,3.8306,3.8306,3.7838,3.7118,3.7118,3.6695,3.6108,3.6006,3.535,3.4558,3.4694,3.4408,3.4036,3.421,3.4284,3.4284,3.4284,3.4284,3.4235,3.4061,3.4011,3.3919,3.3563,3.3495,3.3443,3.3093,3.3039,3.3066,3.3066,3.3066,3.3066,3.3066,3.3053,3.2921,3.2475,3.2398,3.2398,3.2398,3.2398,3.2398,3.2398,3.2398,3.2398,3.2398,3.2398,3.2213,3.1794,3.1547,3.1197,3.0782,3.0525,3.0586,3.1043,3.1274,3.1597,3.2044,3.2044,3.2194,3.2453,0.0,0.0,0.0,0.0,0.0,0.0,0.0,0.0,0.0,0.0,0.0,0.0,0.0,0.0,0.0,0.0,0.0,0.0,0.0,0.0,0.0,0.0,0.0,3.881,3.8372,3.8341,3.9015,3.7561,3.6769,3.7463,3.6939,3.6816,3.7387,3.6892,3.7058,3.8222,3.7738,3.7679,3.8278,3.8306,3.8306,3.8306,3.8306,3.8306,3.8306,3.8306,3.8322,3.8351,3.8351,3.8334,3.8379,3.8379,3.8379,3.8379,3.8379,3.8379,3.8334,3.8306,3.7885,3.734,3.7291,3.6425,3.5126,3.4329,3.4077,3.4152,3.4649,3.4816,3.4816,3.4816,3.4816,3.4738,3.421,3.4061,3.4061,3.4036,3.4128,3.4235,3.4211,3.4309,3.4406,3.4406,3.4406,3.4406,3.4406,3.3365,3.2453,3.2437,3.241,3.2398,3.2398,3.2398,0.0,3.2398,3.2382,3.2367,3.2398,3.2382,3.2367,3.2367,3.1736,3.1378,3.1347,3.072,3.0356,3.0402,3.1028,3.1393,3.1439,3.1439,3.1832,3.2633,0.0,0.0,0.0,0.0,0.0,0.0,0.0,0.0,0.0,0.0,0.0,0.0,0.0,0.0,0.0,0.0,0.0,0.0,0.0,0.0,0.0,3.9813,3.9671,3.9042,3.8141,3.7822,3.844,3.7712,3.7391,3.8022,3.7921,3.7867,3.8039,3.7895,3.7953,3.8278,3.8137,3.8124,3.8278,3.8306,3.8306,3.8306,3.8306,3.8306,3.8306,3.8306,3.8546,3.8947,3.8947,3.9189,3.9601,3.9601,3.9601,3.9601,3.9601,3.9601,3.9523,3.864,3.8193,3.7957,3.7308,3.6779,3.6262,3.5445,3.5529,3.5961,3.5524,3.5379,3.5379,3.5379,3.5379,3.5356,3.5201,3.5224,3.5224,3.4833,3.4823,3.483,3.4431,3.4382,3.4406,3.4406,3.4406,3.4406,3.4406,3.4112,3.3684,3.3224,3.2722,3.2398,3.2398,3.2398,3.2398,3.2398,3.1967,3.1844,3.2336,3.1951,3.1659,3.1659,3.1059,3.0489,2.9981,2.9335,2.9371,3.0356,3.0571,3.1178,3.2257,3.2396,3.2754,0.0,0.0,0.0,0.0,0.0,0.0,0.0,0.0,0.0,0.0,0.0,0.0,0.0,0.0,0.0,0.0,0.0,0.0,0.0,0.0,0.0,0.0,3.9974,3.998,3.9539,3.8723,3.8282,3.8629,3.8153,3.7895,3.8266,3.8306,3.839,3.8657,3.8446,3.8502,3.9038,3.8821,3.8794,3.9038,3.9038,3.9038,3.9038,3.9038,3.9038,3.9038,3.9038,3.9242,3.9592,3.9592,3.9773,4.0096,4.0096,4.0096,4.0096,4.0096,4.0096,0.0,0.0,0.0,0.0,0.0,3.7136,3.6694,3.5893,3.591,3.6214,3.5752,3.56,3.5622,3.5667,3.5689,3.5689,3.5756,3.5822,3.58,3.5498,3.5521,3.5549,3.522,3.518,3.5203,3.5203,3.5203,3.5203,3.5203,3.4978,0.0,3.3876,3.3023,3.2473,3.2446,3.2058,3.1809,3.2033,3.1531,3.1241,3.152,3.1266,3.1034,3.0982,3.0381,0.0,0.0,0.0,2.9119,3.0754,3.0867,0.0,0.0,0.0,3.3681,3.4012,0.0,0.0,0.0,3.3776,3.3915,0.0,0.0,0.0,0.0,0.0,0.0,0.0,0.0,0.0,0.0,0.0,0.0,0.0,0.0,0.0,0.0,3.9798,4.0096,4.0096,3.9644,3.9312,3.9312,3.8767,3.8418,3.8518,3.8502,3.8739,3.9259,3.8794,3.8984,4.0045,3.9575,0.0,0.0,0.0,4.0096,4.0096,4.0096,4.0096,4.0096,4.0096,4.0096,4.0096,4.0096,4.0096,4.0096,4.0096,4.0096,4.0096,4.0096,4.0113,4.0138,4.0113,4.0045,3.9808,3.8437,3.7455,3.6694,3.5915,0.0,0.0,3.5644,3.5644,3.5644,3.5795,3.5817,3.5839,3.5954,3.6019,3.6019,3.6019,3.6122,3.6208,3.6208,3.6255,3.6301,3.6301,3.6301,3.6301,3.6301,3.5859,3.5217,3.4351,3.3346,3.2616,3.2487,3.1596,3.1117,3.1592,3.117,3.0779,3.0629,0.0,0.0,3.0603,2.9983,2.958,2.958,2.9047,2.9555,3.1414,3.171,3.2643,3.4374,3.4431,3.4528,3.4695,3.4695,3.4783,3.4958,3.4616,3.4528,0.0,0.0,0.0,0.0,0.0,0.0,0.0,0.0,0.0,0.0,0.0,0.0,0.0,0.0,0.0,4.0744,4.0425,4.0096,4.0096,3.9995,3.9944,3.9944,3.9391,3.9216,3.9705,3.9731,3.9799,3.9918,3.9825,3.985,4.007,3.9995,3.9969,4.0113,4.0096,4.0096,4.0096,4.0096,4.0096,4.0096,4.0096,0.0,4.0096,4.0096,4.0096,4.0096,4.0096,4.0096,4.0096,4.0096,4.0163,4.0238,4.0138,3.974,3.9114,3.8296,3.7475,3.6717,3.6139,3.5778,3.5644,3.5844,3.5844,3.5795,3.591,3.5954,0.0,3.5997,3.6079,3.6144,3.6144,3.6212,3.628,3.628,3.628,3.6301,3.6301,3.6301,3.6301,3.6301,3.6216,3.5685,3.4346,3.354,3.2876,3.2259,3.1994,3.1891,3.1997,3.1445,3.1235,3.1731,3.1302,3.1212,3.1724,3.1172,3.0775,3.0775,3.0645,3.1021,3.1987,3.2763,3.3578,3.4535,3.4681,3.4958,3.5397,3.5397,3.5599,3.6006,3.5105,3.4981,0.0,0.0,0.0,0.0,0.0,0.0,0.0,0.0,0.0,0.0,0.0,4.1187,4.1204,0.0,4.0646,4.0646,4.035,4.0231,4.0595,4.0333,4.0096,4.0096,3.9825,3.9773,4.007,4.0096,4.0096,4.0096,4.0096,4.0096,4.0096,4.0096,4.0096,4.0096,4.0096,4.0096,4.0096,4.0096,4.0096,4.0096,4.0096,4.0096,4.0096,4.0096,4.0096,4.0096,4.0163,4.0188,4.0213,4.0288,4.0116,3.9842,3.9793,3.9268,3.8503,3.7825,3.7053,3.6372,3.609,3.591,3.5822,3.5954,3.5954,3.5927,3.6058,3.6101,3.6122,3.6148,3.6191,3.6255,3.6255,3.6259,3.6301,3.6301,3.6301,3.6301,3.6301,3.6301,3.6301,3.6301,3.6301,3.5818,3.4355,3.3849,3.3309,3.2297,3.1665,3.1413,3.1669,3.1183,3.0887,3.1084,3.0866,3.08,3.1078,3.0789,3.0593,3.0593,3.0653,3.1155,3.2104,3.2629,3.3538,3.4874,3.4969,3.5309,3.5963,3.5963,3.6071,3.6301,3.5793,3.5705,0.0,0.0,0.0,0.0,0.0,0.0,0.0,4.2083,4.2303,4.1576,4.188,4.2117,4.1525,4.1542,4.139,4.0654,4.0654,4.0882,4.1356,4.0882,4.0536,4.0536,4.0282,4.0096,4.0096,4.0096,4.0096,4.0096,4.0096,4.0096,4.0096,4.0096,4.0096,4.0096,4.0096,4.0096,4.0096,4.0096,4.0096,4.0096,4.0096,4.0096,4.0096,4.0138,4.0138,4.0163,4.0263,4.0337,4.0355,4.0461,4.0065,3.9405,3.9268,3.8738,3.7991,3.7365,3.6749,3.6202,3.6092,3.6041,3.5997,3.6041,3.6041,3.6062,3.6187,3.6208,3.6229,3.628,3.6301,3.6301,3.6301,3.6301,3.6301,3.6301,3.6301,3.6301,3.6301,3.6301,3.6301,3.6301,3.618,3.5663,3.4318,3.3955,3.3459,3.2295,3.1332,3.0903,3.1328,3.1033,3.0666,3.0448,3.0526,3.0563,3.0448,3.0448,3.0448,3.0448,3.0526,3.1102,3.2209,3.2357,3.3222,3.4956,3.5128,3.549,3.6094,3.6232,3.6301,3.6301,3.6301,3.6301,4.3093,4.3574,4.4293,4.4412,4.4384,4.413,0.0,4.3206,4.3081,4.232,4.2236,4.2269,4.2185,4.2709,4.2929,4.2168,4.2608,4.2844,4.2252,4.21,4.2033,4.2033,4.0908,4.0096,4.0096,4.0096,4.0096,4.0096,4.0096,4.0096,4.0096,4.0096,4.0096,4.0096,4.0096,4.0096,4.0096,4.0096,4.0096,4.0096,4.0096,4.0096,4.0096,4.0213,4.028,4.0305,4.0412,4.0485,4.0485,4.0493,4.0096,3.9414,3.8763,3.8133,3.755,3.735,3.7136,3.6903,3.6436,3.6152,3.6041,3.6216,3.6233,3.6187,3.6276,3.628,3.628,3.6301,3.6301,3.6301,3.6301,3.6301,3.6301,3.6301,3.6301,3.6301,3.6301,3.6301,3.6301,3.6301,3.5766,3.5059,3.4251,3.3507,3.2764,3.1968,3.1742,3.1687,3.1737,3.1704,3.1653,3.1598,3.1617,3.1634,3.1598,3.1598,3.1598,3.1598,3.1617,3.1979,3.2792,3.281,3.3279,3.4217,3.4869,3.5232,3.5318,3.5973,3.6301,3.6301,3.6301,3.6301,4.3895,4.4204,4.4497,4.457,4.4615,4.4395,4.3589,4.3775,4.3876,4.3115,4.3301,4.365,4.365,4.3876,4.3995,4.3701,4.3893,4.3978,4.3684,4.3234,4.2946,4.2946,4.1644,4.073,4.073,4.0367,4.0096,4.0096,4.0096,4.0096,4.0096,4.0096,4.0096,4.0096,4.0096,4.0096,4.0096,4.0096,4.0096,4.0096,4.0096,4.0138,4.0213,4.0263,4.0379,4.0527,4.0583,4.0655,4.0693,4.0229,3.9875,3.9485,3.8315,3.7981,3.8025,3.7064,3.6676,3.6603,3.6379,3.6237,3.6195,3.628,3.628,3.6255,3.628,3.6301,3.6301,3.6301,3.6301,3.6301,3.6301,3.6301,3.6301,3.6301,3.6301,3.6301,3.6301,3.6301,3.6163,3.5732,3.5404,3.4818,3.3611,3.3128,3.2645,3.1903,3.18,3.18,3.18,3.18,3.18,3.18,3.18,3.18,3.18,3.18,3.18,3.18,3.18,3.1938,3.2248,3.2265,3.261,3.3386,3.3697,3.43,3.5197,3.5508,3.587,3.6301,3.6301,3.6301,4.4395,4.4615,4.4615,4.4615,4.4615,4.4462,4.3859,4.4181,4.4418,4.3859,4.435,4.4919,4.4919,4.5229,4.5432,4.5258,4.5365,4.5432,4.5258,4.4536,4.4018,4.4018,4.2726,4.1745,4.1525,4.0646,4.0096,4.0096,4.0096,4.0096,4.0096,4.0096,4.0096,4.0096,4.0096,4.0096,4.0096,4.0096,4.0096,4.0096,4.0096,4.0163,4.0305,4.0379,4.0551,4.0745,4.0745,4.0817,4.086,4.0267,3.9888,3.9577,3.8508,3.8323,3.8439,3.7111,3.6628,3.6594,3.6387,3.6301,3.6301,3.6301,3.6301,3.6301,3.6301,3.6301,3.6301,3.6301,3.6301,3.6301,3.6301,3.6301,3.6301,3.6301,3.6301,3.6301,3.6301,3.6301,3.6146,3.5611,3.5163,3.4542,3.3421,3.2886,3.2421,3.1869,3.18,3.18,3.18,3.18,3.18,3.18,3.18,3.18,3.18,3.18,3.18,3.18,3.18,3.18,3.18,3.18,3.2145,3.2886,3.3128,3.3886,3.5197,3.5387,3.5783,3.6301,3.6301,3.6301,4.4395,4.4615,4.4615,4.4615,4.4615,4.4598,4.4581,4.4581,4.4598,4.4581,4.5145,4.5669,4.5669,4.6853,4.7581,4.6836,4.7344,4.7564,4.6819,4.6092,4.5635,4.5635,4.4282,4.3064,4.2337,4.0959,4.0096,4.0096,4.0096,4.0096,4.0096,4.0096,4.0096,4.0096,4.0096,4.0096,4.0096,4.0096,4.0096,4.0096,4.0096,4.0163,4.0305,4.0576,4.0769,4.0894,4.0894,4.0912,4.0912,4.0877,4.0411,3.9698,3.9646,3.9198,3.8491,3.7754,3.7461,3.7357,3.6559,3.6301,3.6301,3.6301,3.6301,3.6301,3.6301,3.6301,3.6301,3.6301,3.6301,3.6301,3.6301,3.6301,3.6301,3.6301,3.6301,3.6301,3.6301,3.6301,3.6284,3.6266,3.5111,3.413,3.4079,3.2817,3.1817,3.18,3.18,3.18,3.18,3.18,3.18,3.18,3.18,3.18,3.18,3.18,3.18,3.18,3.18,3.18,3.18,3.18,3.2145,3.2886,3.3662,3.4438,3.5197,3.5921,3.6284,3.6301,3.6301,3.6301,4.4259,4.4615,4.4615,4.4615,4.4615,4.4615,4.4615,4.4615,4.475,4.5229,4.5923,4.6583,4.709,4.7986,4.8562,4.8308,4.8477,4.8376,4.7631,4.6887,4.6244,4.5771,4.435,4.3115,4.2371,4.1407,4.0629,4.0146,4.0096,4.0096,4.0096,4.0096,4.0096,4.0096,4.0096,4.0096,4.0096,4.0096,4.0096,4.0096,4.0271,4.0387,4.0436,4.0704,4.0864,4.0912,4.0912,4.0912,4.086,4.0325,4.025,4.0388,3.9353,3.9439,3.9911,3.8151,3.7823,3.8025,3.6749,3.6301,3.6301,3.6301,3.6301,3.6301,3.6301,3.6301,3.6301,3.6301,3.6301,3.6301,3.6301,3.6301,3.6301,3.6301,3.6301,3.6301,3.6301,3.6301,3.6163,3.5663,3.5163,3.449,3.3473,3.2869,3.2369,3.1869,3.18,3.18,3.18,3.18,3.18,3.18,3.18,3.18,3.18,3.18,3.18,3.18,3.18,3.18,3.18,3.18,3.1921,3.2162,3.2438,3.3197,3.4476,3.4714,3.5335,3.6301,3.6301,3.6301,4.4259,4.4615,4.4615,4.4615,4.4615,4.4615,4.4615,4.4615,4.475,4.5213,4.6092,4.6938,4.7428,4.8122,4.8697,4.8968,4.8781,4.8545,4.8342,4.7665,4.7022,4.6549,4.5382,4.4113,4.2811,4.2269,4.1457,4.0197,4.0096,4.0096,4.0096,4.0096,4.0096,4.0096,4.0096,4.0096,4.0096,4.0096,4.0121,4.0163,4.0436,4.0558,4.0583,4.0799,4.0912,4.0912,4.0912,4.0912,4.086,4.0359,4.0422,4.0808,3.9825,4.0032,4.067,3.8651,3.818,3.8392,3.6835,3.6301,3.6301,3.6301,3.6301,3.6301,3.6301,3.6301,3.6301,3.6301,3.6301,3.6301,3.6301,3.6301,3.6301,3.6301,3.6301,3.6301,3.6301,3.6301,3.6163,3.568,3.5163,3.449,3.349,3.2869,3.2352,3.1869,3.18,3.18,3.18,3.18,3.18,3.18,3.18,3.18,3.18,3.18,3.18,3.18,3.18,3.18,3.18,3.18,3.2059,3.261,3.261,3.3352,3.4887,3.4887,3.537,3.6301,3.6301,3.6301,4.4395,4.4615,4.4615,4.4615,4.4615,4.4615,4.4615,4.4615,4.4615,4.4649,4.5783,4.6752,4.6786,4.7411,4.8139,4.8832,4.8409,4.8206,4.89,4.8376,4.7872,4.7838,4.7192,4.5855,4.3544,4.3325,4.2455,4.0265,4.0096,4.0096,4.0096,4.0096,4.0096,4.0096,4.0096,4.0096,4.0096,4.0113,4.0163,4.0288,4.0576,4.0697,4.0697,4.084,4.0912,4.0912,4.0912,4.0912,4.0912,4.0912,4.0912,4.0912,4.0912,4.0877,4.067,3.9146,3.8577,3.8318,3.6818,3.6301,3.6301,3.6301,3.6301,3.6301,3.6301,3.6301,3.6301,3.6301,3.6301,3.6301,3.6301,3.6301,3.6301,3.6301,3.6301,3.6301,3.6301,3.6301,3.6301,3.6301,3.5111,3.4096,3.4061,3.2783,3.18,3.18,3.18,3.18,3.18,3.18,3.18,3.18,3.18,3.18,3.18,3.18,3.18,3.18,3.18,3.18,3.18,3.18,3.249,3.3958,3.4027,3.4749,3.6197,3.6232,3.6266,3.6301,3.6301,3.6301,4.4395,4.4615,4.4615,4.4615,4.4615,4.4615,4.4615,4.4615,4.4767,4.5314,4.572,4.6143,4.6684,4.7411,4.7939,4.8142,4.8494,4.8798,4.8984,4.8376,4.7716,4.7141,4.643,4.5077,4.2794,4.2574,4.188,4.0231,4.0096,4.0096,4.0096,4.0096,4.0096,4.0096,4.0096,4.0096,4.0096,4.0188,4.028,4.0288,4.0576,4.0697,4.0697,4.084,4.0912,4.0912,4.0912,4.0912,4.0912,4.0912,4.0912,4.0912,4.0912,4.0549,3.9888,3.8939,3.8254,3.765,3.6646,3.6301,3.6301,3.6301,3.6301,3.6301,3.6301,3.6301,3.6301,3.6301,3.6301,3.6301,3.6301,3.6301,3.6301,3.6301,3.6301,3.6301,3.6301,3.6301,3.6301,3.6301,3.5111,3.3923,3.33,3.2421,3.18,3.18,3.18,3.18,3.18,3.18,3.18,3.18,3.18,3.18,3.18,3.18,3.18,3.18,3.18,3.18,3.18,3.18,3.1972,3.2369,3.2921,3.368,3.4645,3.5197,3.5766,3.6301,3.6301,3.6301,4.4496,4.4615,4.4615,4.4615,4.4615,4.4615,4.4615,4.4615,4.4733,4.5128,4.5466,4.5838,4.6244,4.6397,4.6769,4.772,4.7716,4.7902,4.8866,4.8646,4.8122,4.7378,4.6921,4.5652,4.3047,4.2777,4.2033,4.0248,4.0096,4.0096,4.0096,4.0096,4.0096,4.0096,4.0163,4.0213,4.0271,4.0412,4.0478,4.0478,4.0697,4.0793,4.0793,4.0864,4.0912,4.0912,4.0912,4.0912,4.0912,4.0912,4.0912,4.086,4.0515,4.0095,3.956,3.8491,3.7858,3.7392,3.6577,3.6301,3.6301,3.6301,3.6301,3.6301,3.6301,3.6301,3.6301,3.6301,3.6301,3.6301,3.6301,3.6301,3.6301,3.6301,3.6301,3.6301,3.6301,3.6301,3.6197,3.587,3.4887,3.3835,3.3041,3.2283,3.18,3.18,3.18,3.18,3.18,3.18,3.18,3.18,3.18,3.18,3.18,3.18,3.18,3.18,3.18,3.18,3.18,3.18,3.1955,3.2283,3.3041,3.38,3.4596,3.5318,3.5904,3.6301,3.6301,3.6301,4.4615,4.4615,4.4615,4.4615,4.4615,4.4615,4.4615,4.4615,4.4615,4.4615,4.5094,4.5551,4.5551,4.5111,4.5331,4.7175,4.6481,4.6397,4.8426,4.8714,4.8477,4.7821,4.7652,4.6452,4.3527,4.3156,4.2269,4.0248,4.0096,4.0096,4.0096,4.0096,4.0096,4.0096,4.0238,4.0355,4.0485,4.0624,4.0697,4.0697,4.084,4.0912,4.0912,4.0912,4.0912,4.0912,4.0912,4.0912,4.0912,4.0912,4.0912,4.0843,4.0129,3.9715,3.9388,3.8134,3.753,3.7254,3.6542,3.6301,3.6301,3.6301,3.6301,3.6301,3.6301,3.6301,3.6301,3.6301,3.6301,3.6301,3.6301,3.6301,3.6301,3.6301,3.6301,3.6301,3.6301,3.6301,3.6077,3.5335,3.4594,3.3835,3.3041,3.2283,3.18,3.18,3.18,3.18,3.18,3.18,3.18,3.18,3.18,3.18,3.18,3.18,3.18,3.18,3.18,3.18,3.18,3.18,3.2093,3.2748,3.3628,3.4424,3.5059,3.5887,3.6301,3.6301,3.6301,3.6301,4.4615,4.4615,4.4615,4.4615,4.4615,4.4615,4.4615,4.4615,4.4615,4.4615,4.4699,4.4801,4.4801,4.5179,4.5432,4.5196,4.5466,4.6058,4.7039,4.7175,4.7124,4.7005,4.6447,4.5145,4.2726,4.1948,4.117,4.018,4.0096,4.0096,4.0096,4.0096,4.0096,4.0096,4.0238,4.0305,4.0337,4.0576,4.0697,4.0697,4.084,4.0912,4.0912,4.0912,4.0912,4.0912,4.0912,4.0912,4.0912,4.0912,4.0912,4.0894,4.0756,3.9928,3.875,3.8491,3.7594,3.649,3.6353,3.6301,3.6301,3.6301,3.6301,3.6301,3.6301,3.6301,3.6301,3.6301,3.6301,3.6301,3.6301,3.6301,3.6301,3.6301,3.6301,3.6301,3.6301,3.6301,3.6077,3.5335,3.4594,3.3835,3.3041,3.2283,3.18,3.18,3.18,3.18,3.18,3.18,3.18,3.18,3.18,3.18,3.18,3.18,3.18,3.18,3.18,3.18,3.18,3.18,3.1852,3.199,3.3369,3.4165,3.4283,3.5628,3.6301,3.6301,3.6301,3.6301,4.4615,4.4615,4.4615,4.4615,4.4615,4.4615,4.4615,4.4615,4.4615,4.4615,4.4615,4.4615,4.4615,4.4553,4.4654,4.5094,4.4807,4.4925,4.6058,4.5889,4.5483,4.5077,4.4722,4.3775,4.1914,4.1407,4.0882,4.0163,4.0096,4.0096,4.0096,4.0096,4.0121,4.0188,4.0337,4.0436,4.0502,4.068,4.0817,4.0817,4.0864,4.0912,4.0912,4.0912,4.0912,4.0912,4.0912,4.0912,4.0912,4.0912,4.0912,4.086,4.0446,3.96,3.8565,3.8185,3.7284,3.6301,3.6301,3.6301,3.6301,3.6301,3.6301,3.6301,3.6301,3.6301,3.6301,3.6301,3.6301,3.6301,3.6301,3.6301,3.6301,3.6301,3.6301,3.6301,3.6301,3.6301,3.6197,3.5835,3.4869,3.3992,3.3593,3.2559,3.18,3.18,3.18,3.18,3.18,3.18,3.18,3.18,3.18,3.18,3.18,3.18,3.18,3.18,3.18,3.18,3.18,3.18,3.1972,3.2369,3.3093,3.3869,3.4683,3.537,3.5921,3.6301,3.6301,3.6301,4.4615,4.4615,4.4615,4.4615,4.4615,4.4615,4.4615,4.4615,4.4615,4.4615,4.4615,4.4615,4.4615,4.4079,4.4012,4.5043,4.435,4.4028,4.5077,4.4857,4.4282,4.3494,4.324,4.2658,4.1339,4.1068,4.0713,4.0146,4.0096,4.0096,4.0096,4.0096,4.0163,4.0305,4.0436,4.0558,4.0697,4.084,4.0912,4.0912,4.0912,4.0912,4.0912,4.0912,4.0912,4.0912,4.0912,4.0912,4.0912,4.0912,4.0912,4.0825,4.0008,3.925,3.8491,3.7771,3.7116,3.6525,3.6353,3.6404,3.6525,3.6353,3.6301,3.6301,3.6301,3.6301,3.6301,3.6301,3.6301,3.6301,3.6301,3.6301,3.6301,3.6301,3.6301,3.6301,3.6301,3.6301,3.6301,3.6301,3.5232,3.4306,3.4229,3.3071,3.2101,3.1928,3.1911,3.1874,3.1818,3.18,3.18,3.18,3.18,3.18,3.18,3.18,3.18,3.18,3.18,3.18,3.18,3.18,3.2076,3.2662,3.299,3.3749,3.4956,3.5266,3.5732,3.6301,3.6301,3.6301,4.4615,4.4615,4.4615,4.4615,4.4615,4.4615,4.4615,4.4615,4.4615,4.4615,4.4615,4.4615,4.4615,4.4547,4.4282,4.3696,4.4113,4.4265,4.368,4.4181,4.4282,4.3494,4.2811,4.2083,4.1288,4.0578,4.018,4.0113,4.0096,4.0096,4.0096,4.0096,4.0163,4.0305,4.0436,4.0558,4.0697,4.084,4.0912,4.0912,4.0912,4.0912,4.0912,4.0912,4.0912,4.0912,4.0912,4.0912,4.0912,4.0912,4.0912,4.0825,4.0008,3.925,3.8491,3.7771,3.7461,3.7288,3.6542,3.6766,3.7271,3.6542,3.6301,3.6301,3.6301,3.6301,3.6301,3.6301,3.6301,3.6301,3.6301,3.6301,3.6301,3.6301,3.6301,3.6301,3.6301,3.6301,3.6301,3.6301,3.5645,3.499,3.4626,3.3842,3.3019,3.2354,3.2249,3.2126,3.1838,3.18,3.18,3.18,3.18,3.18,3.18,3.18,3.18,3.18,3.18,3.18,3.18,3.18,3.1834,3.1903,3.3285,3.4061,3.4217,3.5542,3.6232,3.6301,3.6301,3.6301,4.4615,4.4615,4.4615,4.4615,4.4615,4.4615,4.4615,4.4615,4.4615,4.4615,4.4615,4.4615,4.4615,4.4615,4.4513,4.4164,4.4384,4.4496,4.4164,4.4412,4.4158,4.2895,4.2472,4.183,4.0646,4.0282,4.0096,4.0096,4.0163,4.0213,4.0213,4.0213,4.0288,4.0412,4.0534,4.0648,4.0697,4.084,4.0912,4.0912,4.0912,4.0912,4.0912,4.0912,4.0912,4.0912,4.0912,4.0912,4.0912,4.0912,4.0912,4.0877,4.0549,3.9939,3.9209,3.8712,3.8092,3.7508,3.7687,3.7477,3.7225,3.7611,3.7425,3.6939,3.6451,3.6301,3.6301,3.6301,3.6471,3.6597,3.6346,3.6301,3.6301,3.6301,3.6492,3.6658,3.6658,3.6841,3.7017,3.7017,3.6419,3.5858,3.5704,3.4605,3.3666,3.3381,3.2904,3.2553,3.2419,3.2231,3.2179,3.2386,3.2037,3.18,3.18,3.18,3.18,3.18,3.18,3.199,3.2438,3.2455,3.2904,3.3818,3.4007,3.4545,3.5421,3.5559,3.587,3.6301,3.6301,3.6301,4.4615,4.4615,4.4615,4.4615,4.4615,4.4615,4.4615,4.4615,4.4615,4.4615,4.4615,4.4615,4.4615,4.4615,4.4615,4.4615,4.4801,4.4869,4.4632,4.4801,4.4434,4.3159,4.2574,4.1991,4.1248,4.0739,4.0383,4.0113,4.0213,4.033,4.0355,4.0404,4.0478,4.0558,4.0648,4.0721,4.0769,4.0847,4.0912,4.0912,4.0912,4.0912,4.0912,4.0912,4.0912,4.0912,4.0912,4.0912,4.0912,4.0912,4.0912,4.0877,4.0799,4.0412,3.9867,3.9519,3.9062,3.8615,3.894,3.8496,3.7858,3.8484,3.8148,3.7377,3.6821,3.6658,3.6658,3.6658,3.686,3.7017,3.6739,3.6658,3.6658,3.6658,3.686,3.7075,3.7075,3.7302,3.7505,3.7505,3.7077,3.6702,3.6574,3.5408,3.4494,3.4492,3.3615,3.2995,3.3132,3.2727,3.2554,3.2763,3.2386,3.2091,3.2091,3.2091,3.2091,3.2091,3.221,3.2519,3.3039,3.3301,3.3885,3.4872,3.4698,3.5062,3.5973,3.5663,3.5846,3.6471,3.6364,3.6301,4.4615,4.4615,4.4615,4.4615,4.4615,4.4615,4.4615,4.4615,4.4615,4.4615,4.4615,4.4615,4.4615,4.4615,4.4615,4.4615,4.5213,4.5432,4.4716,4.5229,4.5415,4.4666,4.3217,4.2671,4.3569,4.2277,4.1019,4.0146,4.0213,4.0362,4.0485,4.0624,4.0697,4.0697,4.0697,4.0769,4.0912,4.0912,4.0912,4.0912,4.0912,4.0912,4.0912,4.0912,4.0912,4.0912,4.0912,4.0912,4.0912,4.0912,4.0912,4.0873,4.053,4.0411,4.0352,4.0028,4.0381,4.0951,4.0168,3.9846,3.9646,3.8935,3.8148,3.7505,3.7487,3.7487,3.7487,3.7487,3.7487,3.7487,3.7487,3.7487,3.7487,3.7487,3.7487,3.7505,3.7505,3.7505,3.7505,3.7505,3.7487,3.7363,3.6967,3.622,3.5677,3.5688,3.4317,3.3457,3.3932,3.3294,3.2795,3.2795,3.2795,3.2795,3.2795,3.2795,3.2795,3.2795,3.3158,3.3388,3.3388,3.4214,3.4504,3.4113,3.5217,3.5584,3.5197,3.5939,3.6495,3.688,3.6492,3.6301,4.4615,4.4615,4.4615,4.4615,4.4615,4.4615,4.4615,4.4615,4.4615,4.4615,4.4615,4.4615,4.4615,4.4615,4.4615,4.4615,4.5213,4.5788,4.6058,4.6365,4.6304,4.5575,4.38,4.2525,4.2167,4.1767,4.1171,4.0289,4.0453,4.06,4.0648,4.0769,4.084,4.084,4.084,4.0864,4.0912,4.0912,4.0912,4.0912,4.0912,4.0912,4.0912,4.0912,4.0912,4.0935,4.1186,4.1305,4.1305,4.1305,4.149,4.1739,4.1336,4.136,4.157,4.1205,4.1078,4.1067,4.0799,4.0164,3.9463,3.9506,3.8973,3.8318,3.8318,3.793,3.756,3.7844,3.7703,3.756,3.7844,3.7703,3.7505,3.7505,3.7703,3.7913,3.7913,3.8118,3.8318,3.8318,3.8318,3.8277,3.8152,3.7454,3.6939,3.6936,3.5517,3.4524,3.4659,3.378,3.3229,3.3465,3.3273,3.3263,3.3595,3.3632,3.3846,3.4415,3.4565,3.4888,3.5421,3.5723,3.6042,3.6426,3.6786,3.6892,3.6761,3.7008,3.7189,3.7321,3.7189,3.7132,4.4615,4.4615,4.4615,4.4615,4.4615,4.4615,4.4615,4.4615,4.4615,4.4615,4.4615,4.4615,4.4615,4.4615,4.4615,4.4615,4.4976,4.5461,4.593,4.635,4.6323,4.5659,4.4465,4.3108,4.1614,4.1877,4.1646,4.0472,4.0576,4.0697,4.0697,4.084,4.0912,4.0912,4.0912,4.0912,4.0912,4.0912,4.0912,4.0912,4.0912,4.0912,4.0912,4.0912,4.0912,4.0894,4.1163,4.1356,0.0,4.1494,4.1778,4.2177,4.2074,4.2216,4.2464,4.2359,4.2177,4.2012,4.2005,4.1126,4.0025,4.0276,3.9606,3.8707,3.8707,3.8352,3.7999,3.8252,3.8153,3.7999,3.8252,3.8135,3.7948,3.7948,3.8135,3.8336,3.8336,3.8515,3.8707,3.8707,3.8707,3.8707,3.8707,3.8028,3.7603,3.7915,3.6285,3.5224,3.5848,3.4775,3.4148,3.4692,3.4556,3.4676,3.527,3.4462,3.4408,3.5525,3.5485,3.5762,3.657,3.6894,3.7184,3.7487,3.765,3.765,3.7505,3.765,3.765,3.7505,3.765,3.765,0.0,4.4615,4.4615,4.4615,4.4615,4.4615,4.4615,4.4615,0.0,4.4615,4.4615,4.4615,4.4615,4.4615,4.4615,4.4615,4.4649,4.4694,4.4788,4.5405,4.5659,4.5091,4.5079,4.4231,4.1919,4.2483,4.2319,4.0637,4.0648,4.0721,4.0721,4.084,4.0912,4.0912,4.0912,4.0912,4.0912,4.0912,4.0912,4.0912,4.0912,4.0912,4.0912,4.0912,4.0912,4.0894,4.0965,4.1209,4.1539,4.1583,4.1885,4.232,4.2731,4.2919,4.2976,4.3357,4.3515,4.3496,4.3441,4.2396,4.1077,4.0967,3.9921,3.8707,3.8707,3.8707,3.8707,3.8707,3.8707,3.8707,3.8707,3.8707,3.8707,3.8707,3.8707,3.8707,3.8707,3.8707,3.8707,3.8707,3.8707,3.8707,3.8707,3.8065,3.7841,3.8597,3.6692,3.5738,3.7309,3.6101,3.5389,3.6211,3.6303,3.6615,3.7437,3.5385,3.4743,3.6376,3.6131,3.6234,3.7009,3.7736,3.7983,3.7596,3.7948,3.7948,3.7596,3.7948,3.7948,3.7596,3.7965,3.793,4.4615,0.0,4.4615,4.4615,4.4615,4.4615,0.0,4.4615,4.4615,4.4615,4.4615,4.4615,4.4615,4.4615,4.4615,4.4615,4.506,4.549,4.5614,4.5469,4.5336,4.5308,4.4828,4.4036,4.2808,4.2961,4.2469,4.0793,4.0793,4.0847,4.0847,4.0871,4.0912,4.0912,4.0912,4.0912,4.0912,4.0912,4.0912,4.0912,4.0912,4.0912,4.0912,4.0912,4.0912,4.0942,4.16,4.1966,4.2053,4.2418,4.2826,4.316,4.2976,4.3105,4.3375,4.348,4.3515,4.3423,4.28,4.1937,4.0893,3.9646,3.9019,3.8707,3.8707,3.8707,3.8707,3.8707,3.8707,3.8707,3.8707,3.8707,3.8707,3.8707,3.8707,3.8707,3.8707,3.8707,3.8707,3.8707,3.8707,3.8707,3.8707,3.8542,3.8487,3.867,3.7679,3.7052,3.7456,3.6615,3.6064,3.6266,3.6303,3.6615,3.7437,3.6978,3.707,3.8065,3.8044,3.8071,3.8272,3.8455,3.8515,3.8417,3.8515,3.8515,3.8417,3.8515,3.8515,3.8417,3.8515,3.8499,4.4615,4.4615,4.4615,4.4615,4.4615,4.4615,4.4615,4.4615,4.4615,4.4615,4.4615,4.4615,4.4615,4.4841,4.4961,4.4737,4.5265,4.5641,4.5527,4.4805,4.4543,4.5232,4.4708,4.3992,4.3175,4.3156,4.2543,4.0913,4.0864,4.0912,4.0912,4.0912,4.0912,4.0912,4.0912,4.0912,4.0912,4.0912,4.0912,4.0912,4.0912,4.0912,4.0912,4.1071,4.1186,4.1192,4.1885,4.2318,4.2537,4.2806,4.3142,4.3479,4.3268,4.3304,4.3515,4.3515,4.3515,4.3441,4.3002,4.2084,4.082,3.9205,3.8707,3.8707,3.8707,3.8707,3.8707,3.8707,3.8707,3.8707,3.8707,3.8707,3.8707,3.8707,3.8707,3.8707,3.8707,3.8707,3.8707,3.8707,3.8707,3.8707,3.8707,3.8707,3.8707,3.8707,3.8025,3.7639,3.7991,3.7364,3.6997,3.7367,3.7404,3.7569,3.801,3.8046,3.823,3.867,3.8358,3.8303,3.8689,3.8707,3.8707,3.8707,3.8707,3.8707,3.8707,3.8707,3.8707,3.8707,3.8707,3.8707,4.4615,4.4615,4.4615,4.4615,4.4615,4.4615,4.4615,4.4615,4.4615,4.4615,4.4699,4.4727,4.4574,4.5142,4.5459,4.4851,4.5242,4.558,4.5447,4.4319,4.3938,4.519,4.469,4.3981,4.3258,4.3086,4.243,4.1015,4.0912,4.0912,4.0912,4.0912,4.0912,4.0912,4.0912,4.0912,4.0912,4.0912,4.0912,4.0912,4.0912,4.0912,4.0894,4.1328,4.1494,4.1516,4.2074,0.0,4.2901,4.2957,4.3178,4.3515,4.3515,4.3515,4.3515,4.3515,4.3515,4.3478,4.3368,4.2341,4.0857,3.9368,3.8799,3.8707,3.8707,3.8707,3.8707,3.8707,3.8707,3.8707,3.8707,3.8707,3.8707,3.8707,3.8707,3.8707,3.8707,3.8707,3.8707,3.8707,3.8707,3.8707,3.8707,3.8707,3.8707,3.8707,3.812,3.7933,3.8615,3.8102,3.7936,3.8634,3.8707,3.8707,3.8707,3.8707,3.8707,3.8707,3.8046,3.7988,3.867,3.8707,3.8707,3.8707,3.8707,3.8707,3.8707,3.8707,3.8707,3.8707,3.8707,3.8707,4.4615,4.4615,4.4615,4.4615,4.4615,4.4615,4.4615,4.4615,4.4615,4.4615,4.5094,4.5281,4.45,4.5494,4.6005,4.4758,4.4967,4.5762,4.7167,4.5837,4.5054,4.5933,4.4808,4.3748,4.3256,4.2585,4.1843,4.0963,4.0912,4.0912,4.0912,4.0912,4.0912,4.0912,4.0912,4.0912,4.0912,4.0912,4.0912,4.0912,4.0912,4.0912,4.0894,4.1328,4.1494,4.1539,0.0,4.2844,4.292,4.3268,4.3444,4.3515,4.3515,4.3515,4.3515,4.3515,4.3515,4.3387,4.2708,4.1882,4.0948,4.001,3.9258,3.8707,3.8707,3.8707,3.8707,3.8707,3.8707,3.8707,3.8707,3.8707,3.8707,3.8707,3.8707,3.8707,3.8707,3.8707,3.8707,3.8707,3.8707,3.8707,3.8707,3.8707,3.8707,3.8707,3.8597,3.856,3.8689,3.8597,3.856,3.8689,3.8707,3.8707,3.8707,3.8707,3.8707,3.8707,3.8579,3.8579,3.8689,3.8707,3.8707,3.8707,3.8707,3.8707,3.8707,3.8707,3.8707,3.8707,3.8707,3.8707,4.4615,4.4615,4.4615,4.4615,4.4615,4.4615,4.4615,4.4786,4.5009,4.5151,4.5688,4.5874,4.5036,4.6133,4.6928,4.6275,4.6135,4.6379,4.7116,4.6524,4.6153,4.6412,4.5528,4.4615,4.3962,4.2981,4.2068,4.1284,4.1018,4.0912,4.0912,4.0912,4.0912,4.0912,4.0912,4.0912,4.0912,4.0912,4.1012,4.1214,4.1214,4.1214,4.1214,4.1423,4.1648,4.1906,0.0,4.3013,4.325,4.3427,4.3515,4.3515,4.3515,4.3515,4.3515,4.3515,4.3515,4.3331,4.2084,4.1682,4.1479,3.9808,3.9294,3.9276,3.8836,3.8707,3.8707,3.8707,3.8707,3.8707,3.8707,3.8707,3.8707,3.8707,3.8707,3.8707,3.8707,3.8707,3.8707,3.8707,3.8707,3.8707,3.8707,3.8707,3.8707,3.8707,3.8707,3.8707,3.8707,3.8707,3.8707,3.8707,3.8707,3.8707,3.8707,3.8707,3.8707,3.8707,3.8707,3.8707,3.8707,3.8707,3.8707,3.8707,3.8707,3.8707,3.8707,3.8707,3.8707,3.8707,3.8707,3.8707,4.4615,4.4615,4.4564,4.4378,4.4479,4.4626,4.4748,4.5062,4.544,4.5778,4.6335,4.6526,4.572,4.6535,4.7405,4.7726,4.727,4.6954,4.7071,4.7071,4.6955,4.6663,4.6016,4.5233,4.4303,4.3227,4.2273,4.1547,4.1192,4.1012,4.0912,4.0912,4.0912,4.0912,4.0912,4.0942,4.1041,4.1041,4.1209,4.1494,4.1401,4.1401,4.1494,4.1494,4.1756,4.2236,4.2692,4.3142,4.3515,4.3515,4.3515,4.3515,4.3515,4.3515,4.3515,4.3515,4.3515,4.3331,4.2084,4.1827,4.1717,3.9863,3.9423,3.9496,3.8891,3.8707,3.8707,3.8707,3.8707,3.8707,3.8707,3.8707,3.8707,3.8707,3.8707,3.8707,3.8707,3.8707,3.8707,3.8707,3.8707,3.8707,3.8707,3.8707,3.8707,3.8707,3.8707,3.8707,3.8707,3.8707,3.8707,3.8707,3.8707,3.8707,3.8707,3.8707,3.8707,3.8707,3.8707,3.8707,3.8707,3.8707,3.8707,3.8707,3.8707,3.8707,3.8707,3.8707,3.8707,3.8707,3.8707,3.8707,4.4615,4.4615,4.4429,4.3673,4.4045,4.472,4.5152,4.5381,4.5614,4.6161,4.6938,4.724,4.6316,4.6335,4.6873,4.8062,4.7503,4.7182,4.8055,4.7816,4.7277,4.6512,4.5775,4.482,4.35,4.2692,4.204,4.1556,4.1472,4.1305,4.0918,4.0912,4.0912,4.0912,4.0912,4.1088,4.1468,4.1468,4.1468,4.1512,4.1117,4.114,4.1494,4.1494,4.1756,4.2236,4.2692,4.3142,4.3515,4.3515,4.3515,4.3515,4.3515,4.3515,4.3515,4.3515,4.3515,4.3478,4.3369,4.2396,4.115,4.0985,3.9958,3.8781,3.8726,3.8707,3.8707,3.8707,3.8707,3.8707,3.8707,3.8707,3.8707,3.8707,3.8707,3.8707,3.8707,3.8707,3.8707,3.8707,3.8707,3.8707,3.8707,3.8707,3.8707,3.8707,3.8707,3.8707,3.8707,3.8707,3.8707,3.8707,3.8707,3.8707,3.8707,3.8707,3.8707,3.8707,3.8707,3.8707,3.8707,3.8707,3.8707,3.8707,3.8707,3.8707,3.8707,3.8707,3.8707,3.8707,3.8707,3.8707,4.3995,4.4215,4.431,4.3031,4.3878,4.4978,4.4777,4.5376,4.6214,4.6958,4.7589,4.7934,4.7673,4.6789,4.6576,4.8047,4.7995,4.7713,4.757,4.7401,4.6975,4.6171,4.5405,4.4747,4.4231,4.324,4.2438,4.1969,4.1927,4.1644,4.0942,4.114,4.1283,4.1283,4.1283,4.149,4.1927,4.1648,4.1648,4.1927,4.149,4.1356,4.1494,4.1494,4.1756,4.2236,4.2692,4.3142,4.3515,4.3515,4.3515,4.3515,4.3515,4.3515,4.3515,4.3515,4.3515,4.3441,4.2928,4.2671,4.2341,4.0836,4.0286,3.9994,3.9001,3.8707,3.8707,3.8707,3.8707,3.8707,3.8707,3.8707,3.8707,3.8707,3.8707,3.8707,3.8707,3.8707,3.8707,3.8707,3.8707,3.8707,3.8707,3.8707,3.8707,3.8707,3.8707,3.8707,3.8707,3.8707,3.8707,3.8707,3.8707,3.8707,3.8707,3.8707,3.8707,3.8707,3.8707,3.8707,3.8707,3.8707,3.8707,3.8707,3.8707,3.8707,3.8707,3.8707,3.8707,3.8707,3.8707,3.8707,4.3267,4.3573,4.3793,4.2551,4.3563,4.4752,4.4331,4.5252,4.6363,4.6918,4.7503,4.8016,4.8372,4.7466,4.7021,4.8122,4.8306,4.8122,4.7553,4.7259,4.6801,4.5993,4.5186,4.4617,4.436,4.3561,4.2902,4.2458,4.2418,4.2092,4.1368,4.1578,4.1713,4.1713,4.1713,4.1885,4.2216,4.1885,4.1885,4.2198,4.1713,4.1494,4.1494,4.1494,4.1756,4.2236,4.2692,4.3142,4.3515,4.3515,4.3515,4.3515,4.3515,4.3515,4.3515,4.3515,4.3515,4.3423,4.2873,4.2873,4.28,4.0891,4.0653,4.0838,3.9496,3.9074,3.9074,3.9074,3.8909,3.8707,3.8707,3.8707,3.8707,3.8707,3.8707,3.8707,3.8707,3.8707,3.8707,3.8707,3.8707,3.8707,3.8707,3.8707,3.8707,3.8707,3.8707,3.8707,3.8707,3.8707,3.8707,3.8707,3.8707,3.8707,3.8707,3.8707,3.8707,3.8707,3.8707,3.8707,3.8707,3.8707,3.8707,3.8707,3.8707,3.8707,3.8707,3.8707,3.8707,3.8707,3.8707,3.8707,4.2489,4.2646,4.2846,4.2234,4.3022,4.3903,4.3888,4.4975,4.5975,4.5843,4.6488,4.7333,4.8159,4.8306,4.8306,4.8306,4.8306,4.8306,4.8288,4.759,4.6782,4.5975,4.5168,4.4378,4.3588,4.3515,4.3339,4.292,4.2901,4.2692,4.2236,4.2198,4.2216,4.2216,4.2216,4.2198,4.2198,4.2198,4.2198,4.2198,4.1735,4.1494,4.1494,4.1494,4.1756,4.2236,4.2692,4.3124,4.3515,4.3515,4.3515,4.3515,4.3515,4.3515,4.3515,4.3515,4.3515,4.3515,4.3515,4.2983,4.2176,4.1352,4.1113,4.0948,4.0139,3.9916,3.9916,3.99,3.9331,3.8707,3.8707,3.8707,3.8707,3.8707,3.8707,3.8707,3.8707,3.8707,3.8707,3.8707,3.8707,3.8707,3.8707,3.8707,3.8707,3.8707,3.8707,3.8707,3.8707,3.8707,3.8707,3.8707,3.8707,3.8707,3.8707,3.8707,3.8707,3.8707,3.8707,3.8707,3.8707,3.8707,3.8707,3.8707,3.8707,3.8707,3.8707,3.8707,3.8707,3.8707,3.8707,3.8707,4.2279,4.2573,4.2947,4.2043,4.3191,4.4285,4.3284,4.4205,4.5572,4.6522,4.6452,4.6673,4.8049,4.7828,4.7626,4.8214,4.8306,4.7902,4.6764,4.6416,4.5755,4.436,4.3993,4.3754,4.3533,4.3515,4.3339,4.292,4.316,4.2995,4.2239,4.2498,4.2692,4.2692,4.2692,4.2826,4.3105,4.2826,4.2536,4.2198,4.2053,4.1821,4.1494,4.1842,4.2074,4.2239,4.2995,4.3392,4.3515,4.3515,4.3515,4.3515,4.3515,4.3515,4.3515,4.3515,4.3515,4.3515,4.3515,4.3332,4.291,4.1535,4.148,4.1699,4.0322,4.0304,4.0634,4.0065,3.9717,3.9405,3.8854,3.8707,3.8707,3.8707,3.8707,3.8707,3.8707,3.8707,3.8707,3.8707,3.8707,3.8707,3.8707,3.8707,3.8707,3.8707,3.8707,3.8707,3.8707,3.8707,3.8707,3.8707,3.8707,3.8707,3.8707,3.8707,3.8707,3.8707,3.8707,3.8707,3.8707,3.8707,3.8707,3.8707,3.8707,3.8707,3.8707,3.8707,3.8707,3.8707,3.8707,3.8707,4.2108,4.2315,4.2608,4.259,4.3412,4.4022,4.3194,4.3976,4.5217,4.6378,4.6489,4.6783,4.8067,4.7901,4.7736,4.8233,4.8306,4.7865,4.6562,4.6104,4.5424,4.4121,4.3681,4.3515,4.3515,4.3515,4.3392,4.316,4.3357,4.3268,4.2733,4.2976,4.3068,4.2919,4.3068,4.3087,4.2977,4.3087,4.2826,4.2198,4.2398,4.2218,4.1799,4.2259,4.2478,4.2518,4.3214,4.3515,4.3515,4.3515,4.3515,4.3515,4.3515,4.3515,4.3515,4.3515,4.3515,4.3515,4.3515,4.3515,4.3277,4.2011,4.2121,4.2543,4.124,4.1185,4.1479,4.0983,4.0616,4.0194,3.9386,3.9184,3.9093,3.8781,3.8707,3.8707,3.8707,3.8707,3.8707,3.8707,3.8707,3.8707,3.8707,3.8707,3.8707,3.8707,3.8707,3.8707,3.8707,3.8707,3.8707,3.8707,3.8707,3.8707,3.8707,3.8707,3.8707,3.8707,3.8707,3.8707,3.8707,3.8707,3.8707,3.8707,3.8707,3.8707,3.8707,3.8707,3.8707,3.8707,3.8707,3.8707,4.2085,4.2023,4.2143,4.3588,4.3687,4.3429,4.348,4.4121,4.4947,4.5736,4.6489,4.7241,4.8049,4.8251,4.8251,4.8122,4.8214,4.7957,4.7021,4.6324,4.5571,4.4709,4.3956,4.3515,4.3515,4.3515,4.3515,4.3515,4.3515,4.3515,4.3515,4.348,4.3304,4.2975,4.3268,4.3087,4.232,4.3105,4.3087,4.2277,4.2731,4.2711,4.2297,4.2692,4.292,4.2994,4.3339,4.3515,4.3515,4.3515,4.3515,4.3515,4.3515,4.3515,4.3515,4.3515,4.3515,4.3515,4.3515,4.3515,4.3369,4.2561,4.2837,4.3349,4.2543,4.2359,4.2396,4.2323,4.1772,4.1022,4.0212,3.9937,3.9717,3.8982,3.8762,3.8707,3.8707,3.8707,3.8707,3.8707,3.8707,3.8707,3.8707,3.8707,3.8707,3.8707,3.8707,3.8707,3.8707,3.8707,3.8707,3.8707,3.8707,3.8707,3.8707,3.8707,3.8707,3.8707,3.8707,3.8707,3.8707,3.8707,3.8707,3.8707,3.8707,3.8707,3.8707,3.8707,3.8707,3.8707,3.8707,3.8707,4.2589,4.2619,4.2794,4.4124,4.3961,4.348,4.3497,4.4121,4.4947,4.5736,4.6049,4.6416,4.7204,4.7865,4.7884,4.6617,4.748,4.759,4.5498,4.5608,4.5369,4.392,4.3625,4.3515,4.3515,4.3515,4.3515,4.3515,4.3515,4.3515,4.3515,4.3214,4.3124,4.3357,4.316,4.3087,4.3232,4.341,4.325,4.275,4.316,4.3142,4.275,4.2844,4.3069,4.3375,4.3462,4.3515,4.3515,4.3515,4.3515,4.3515,4.3515,4.3515,4.3515,4.3515,4.3515,4.3515,4.3515,4.3515,4.3369,4.2561,4.2837,4.3349,4.2543,4.2745,4.3112,4.2488,4.2176,4.1864,4.104,4.0377,3.9845,3.968,3.9166,3.8707,3.8707,3.8707,3.8707,3.8707,3.8707,3.8707,3.8707,3.8707,3.8707,3.8707,3.8707,3.8707,3.8707,3.8707,3.8707,3.8707,3.8707,3.8707,3.8707,3.8707,3.8707,3.8707,3.8707,3.8707,3.8707,3.8707,3.8707,3.8707,3.8707,3.8707,3.8707,3.8707,3.8707,3.8707,3.8707,3.8707,4.2713,4.2871,4.2999,4.3853,4.3775,4.3515,4.3515,4.3809,4.4452,4.5645,4.5902,4.603,4.6452,4.6874,4.6874,4.603,4.6599,4.6581,4.4947,4.5057,4.4874,4.3662,4.3515,4.3515,4.3515,4.3515,4.3515,4.3515,4.3515,4.3515,4.3515,4.3304,4.3196,4.3214,4.3196,4.3196,4.3214,4.3392,4.3304,4.2901,4.3304,4.3392,4.3196,4.3196,4.3304,4.3515,4.3515,4.3515,4.3515,4.3515,4.3515,4.3515,4.3515,4.3515,4.3515,4.3515,4.3515,4.3515,4.3515,4.3515,4.3441,4.3002,4.3149,4.3423,4.3002,4.3167,4.3423,4.2983,4.2873,4.269,4.1882,4.1368,4.0946,4.0579,3.957,3.8707,3.8707,3.8707,3.8707,3.8707,3.8707,3.8707,3.8707,3.8707,3.8707,3.8707,3.8707,3.8707,3.8707,3.8707,3.8707,3.8707,3.8707,3.8707,3.8707,3.8707,3.8707,3.8707,3.8707,3.8707,3.8707,3.8707,3.8707,3.8707,3.8707,3.8707,3.8707,3.8707,3.8707,3.8707,3.8707,3.8707,4.2705,4.3138,4.3289,4.3469,4.3515,4.3515,4.3515,4.3515,4.3882,4.5204,4.559,4.5736,4.5865,4.5902,4.581,4.5535,4.5718,4.5571,4.4635,4.4617,4.4415,4.3606,4.3515,4.3515,4.3515,4.3515,4.3515,4.3515,4.3515,4.3515,4.3515,4.3427,4.3286,4.3013,4.3268,4.3268,4.2995,4.3339,4.3339,4.2995,4.3339,4.3515,4.3515,4.3515,4.3515,4.3515,4.3515,4.3515,4.3515,4.3515,4.3515,4.3515,4.3515,4.3515,4.3515,4.3515,4.3515,4.3515,4.3515,4.3515,4.3515,4.3515,4.3515,4.3515,4.3515,4.3515,4.3515,4.3515,4.3515,4.3349,4.2671,4.2396,4.2139,4.1462,4.0178,3.9093,3.8946,3.8799,3.8707,3.8707,3.8707,3.8707,3.8707,3.8707,3.8707,3.8707,3.8707,3.8707,3.8707,3.8707,3.8707,3.8707,3.8707,3.8707,3.8707,3.8707,3.8707,3.8707,3.8707,3.8707,3.8707,3.8707,3.8707,3.8707,3.8707,3.8707,3.8707,3.8707,3.8707,3.8707,3.8707,3.8707,4.2825,4.397,4.4518,4.3687,4.3515,4.3515,4.3515,4.3515,4.357,4.379,4.4378,4.5076,4.5773,4.5902,4.5443,4.4048,4.4984,4.5369,4.3864,4.4268,4.4415,4.3606,4.3515,4.3515,4.3515,4.3515,4.3515,4.3515,4.3515,4.3515,4.3515,4.3178,4.3123,4.341,4.3124,4.3105,4.341,4.3462,4.3462,4.341,4.3462,4.3515,4.3515,4.3515,4.3515,4.3515,4.3515,4.3515,4.3515,4.3515,4.3515,4.3515,4.3515,4.3515,4.3515,4.3515,4.3515,4.3515,4.3515,4.3515,4.3515,4.3515,4.3515,4.3515,4.3515,4.3515,4.3515,4.3515,4.3515,4.3478,4.3369,4.2818,4.2268,4.2176,4.1425,4.0581,3.9882,3.9184,3.8707,3.8707,3.8707,3.8707,3.8707,3.8707,3.8707,3.8707,3.8707,3.8707,3.8707,3.8707,3.8707,3.8707,3.8707,3.8707,3.8707,3.8707,3.8707,3.8707,3.8707,3.8707,3.8707,3.8707,3.8707,3.8707,3.8707,3.8707,3.8707,3.8707,3.8707,3.8707,3.8707,3.8707,4.2331,4.3169,4.3599,4.3177,4.3268,4.3515,4.3515,4.3515,4.3643,4.4085,4.4103,4.414,4.4488,4.4929,4.4856,4.3698,4.4102,4.4322,4.3606,4.3791,4.3901,4.3551,4.3515,4.3515,4.3515,4.3515,4.3515,4.3515,4.3515,4.3515,4.3515,4.3339,4.3322,4.3479,4.3322,4.3322,4.3515,4.3515,4.3515,4.3515,4.3515,4.3515,4.3515,4.3515,4.3515,4.3515,4.3515,4.3515,4.3515,4.3515,4.3515,4.3515,4.3515,4.3515,4.3515,4.3515,4.3515,4.3515,4.3515,4.3515,4.3515,4.3515,4.3515,4.3515,4.3515,4.3515,4.3515,4.3515,4.3515,4.3515,4.3515,4.3239,4.2965,4.2965,4.2359,4.168,4.1313,4.0267,3.9239,3.8799,3.8707,3.8707,3.8707,3.8707,3.8707,3.8707,3.8707,3.8707,3.8707,3.8707,3.8707,3.8707,3.8707,3.8707,3.8707,3.8707,3.8707,3.8707,3.8707,3.8707,3.8707,3.8707,3.8707,3.8707,3.8707,3.8707,3.8707,3.8707,3.8707,3.8707,3.8707,3.8707,4.1474,4.2009,4.2463,4.2185,4.2523,4.301,4.3168,4.3185,4.3424,4.4232,4.4085,4.3736,4.3551,4.3993,4.4195,4.3606,4.3515,4.3515,4.3515,4.3515,4.3515,4.3515,4.3515,4.3515,4.3515,4.3515,4.3515,4.3515,4.3515,4.3515,4.3515,4.3515,4.3515,4.3515,4.3515,4.3515,4.3515,4.3515,4.3515,4.3515,4.3515,4.3515,4.3515,4.3515,4.3515,4.3515,4.3515,4.3515,4.3515,4.3515,4.3515,4.3515,4.3515,4.3515,4.3515,4.3515,4.3515,4.3515,4.3515,4.3515,4.3515,4.3515,4.3515,4.3515,4.3515,4.3515,4.3515,4.3515,4.3515,4.3515,4.3515,4.3515,4.3515,4.3515,4.3039,4.2433,4.1827,4.0744,3.9662,3.8854,3.8707,3.8707,3.8707,3.8707,3.8707,3.8707,3.8707,3.8707,3.8707,3.8707,3.8707,3.8707,3.8707,3.8707,3.8707,3.8707,3.8707,3.8707,3.8707,3.8707,3.8707,3.8707,3.8707,3.8707,3.8707,3.8707,3.8707,3.8707,3.8707,3.8707,3.8707,3.8707,4.017,4.0995,4.1875,4.0717,4.098,4.1651,4.2221,4.2359,4.2598,4.3387,4.414,4.4415,4.3626,4.3533,4.3551,4.3515,4.3515,4.3515,4.3515,4.3515,4.3515,4.3515,4.3515,4.3515,4.3515,4.3515,4.3515,4.3515,4.3515,4.3515,4.3515,4.3515,4.3515,4.3515,4.3515,4.3515,4.3515,4.3515,4.3515,4.3515,4.3515,4.3515,4.3515,4.3515,4.3515,4.3515,4.3515,4.3515,4.3515,4.3515,4.3515,4.3515,4.3515,4.3515,4.3515,4.3515,4.3515,4.3515,4.3515,4.3515,4.3515,4.3515,4.3515,4.3515,4.3515,4.3515,4.3515,4.3515,4.3515,4.3515,4.3515,4.3515,4.3515,4.3515,4.3478,4.2817,4.0506,3.9955,3.9662,3.8854,3.8707,3.8707,3.8707,3.8707,3.8707,3.8707,3.8707,3.8707,3.8707,3.8707,3.8707,3.8707,3.8707,3.8707,3.8707,3.8707,3.8707,3.8707,3.8707,3.8707,3.8707,3.8707,3.8707,3.8707,3.8707,3.8707,3.8707,3.8707,3.8707,3.8707,3.8707,3.8707,3.9518,3.9943,4.0509,4.0095,4.034,4.0872,4.1579,4.1625,4.1772,4.2561,4.2965,4.324,4.346,4.392,4.4103,4.3588,4.3515,4.3515,4.3515,4.3515,4.3515,4.3515,4.3515,4.3515,4.3515,4.3515,4.3515,4.3515,4.3515,4.3515,4.3515,4.3515,4.3515,4.3515,4.3515,4.3515,4.3515,4.3515,4.3515,4.3515,4.3515,4.3515,4.3515,4.3515,4.3515,4.3515,4.3515,4.3515,4.3515,4.3515,4.3515,4.3515,4.3515,4.3515,4.3515,4.3515,4.3515,4.3515,4.3515,4.3515,4.3515,4.3515,4.3515,4.3515,4.3515,4.3515,4.3515,4.3515,4.3515,4.3515,4.3515,4.3515,4.3515,4.3515,4.3515,4.3112,4.1735,4.0616,3.9808,3.9533,3.9056,3.8707,3.8707,3.8707,3.8707,3.8707,3.8707,3.8707,3.8707,3.8707,3.8707,3.8707,3.8707,3.8707,3.8707,3.8707,3.8707,3.8707,3.8707,3.8707,3.8707,3.8707,3.8707,3.8707,3.8707,3.8707,3.8707,3.8707,3.8707,3.8707,3.8707,3.8707,3.8886,3.9065,3.9457,3.9126,3.9385,3.9953,4.0814,4.1089,4.1405,4.2142,4.2506,4.2873,4.3387,4.3938,4.4121,4.3589,4.3515,4.3515,4.3515,4.3515,4.3515,4.3515,4.3515,4.3515,4.3515,4.3515,4.3515,4.3515,4.3515,4.3515,4.3515,4.3515,4.3515,4.3515,4.3515,4.3515,4.3515,4.3515,4.3515,4.3515,4.3515,4.3515,4.3515,4.3515,4.3515,4.3515,4.3515,4.3515,4.3515,4.3515,4.3515,4.3515,4.3515,4.3515,4.3515,4.3515,4.3515,4.3515,4.3515,4.3515,4.3515,4.3515,4.3515,4.3515,4.3515,4.3515,4.3515,4.3515,4.3515,4.3515,4.3515,4.3515,4.3515,4.3515,4.3515,4.3349,4.2818,4.1644,4.0634,4.0359,3.9882,3.9423,3.9148,3.9093,3.9019,3.8744,3.8707,3.8707,3.8707,3.8707,3.8707,3.8707,3.8707,3.8707,3.8707,3.8707,3.8707,3.8707,3.8707,3.8707,3.8707,3.8707,3.8707,3.8707,3.8707,3.8707,3.8707,3.8707,3.8707,3.8707,3.8707,3.8707,0.0,0.0,0.0,3.7727,3.8018,3.8824,3.9905,4.0761,4.1505,4.2132,4.2893,4.3461,4.3479,4.3479,4.3515,4.3515,4.3515,4.3515,4.3515,4.3515,4.3515,4.3515,4.3515,4.3515,4.3515,4.3515,4.3515,4.3515,4.3515,4.3515,4.3515,4.3515,4.3515,4.3533,4.3497,4.3515,4.3515,4.3533,4.3551,4.3551,4.3551,4.3551,4.3533,4.3515,4.3515,4.3515,4.3515,4.3515,4.3515,4.3515,4.3515,4.3515,4.3515,4.3515,4.3515,4.3515,4.3515,4.3515,4.3515,4.3515,4.3515,4.3515,4.3515,4.3515,4.3515,4.3515,4.3515,4.3515,4.3515,4.3515,4.3515,4.3515,4.3515,4.3515,4.3515,4.3515,4.3515,4.2892,4.2103,4.1279,4.1113,4.0838,4.0065,3.9953,3.9662,3.8854,3.8744,3.8726,3.8707,3.8707,3.8707,3.8707,3.8707,3.8707,3.8707,3.8707,3.8707,3.8707,3.8707,3.8707,3.8707,3.8707,3.8707,3.8707,3.8707,3.8707,3.8707,3.8707,3.8707,3.8707,3.8707,3.8707,3.7611,0.0,0.0,0.0,0.0,0.0,3.8737,3.9188,3.9667,4.0947,4.1702,4.2305,4.2941,4.3304,4.3515,4.3515,4.3515,4.3515,4.3515,4.3515,4.3515,4.3515,4.3515,4.3515,4.3515,4.3515,4.3515,4.3515,4.3515,4.3515,4.3515,4.3515,4.3754,4.436,4.3791,4.3515,4.3515,4.4085,4.4378,4.4378,4.4378,4.4378,4.436,4.3754,4.3515,4.3515,4.3515,4.3515,4.3515,4.3515,4.3515,4.3515,4.3515,4.3515,4.3515,4.3515,4.3515,4.3515,4.3515,4.3515,4.3515,4.3515,4.3515,4.3515,4.3515,4.3515,4.3515,4.3515,4.3515,4.3515,4.3515,4.3515,4.3515,4.3515,4.3515,4.3515,4.3515,4.3331,4.2928,4.2121,4.1515,4.1022,4.0802,4.0781,4.0487,3.968,3.957,3.935,3.8781,3.8707,3.8707,3.8707,3.8707,3.8707,3.8707,3.8707,3.8707,3.8707,3.8707,3.8707,3.8707,3.8707,3.8707,3.8707,3.8707,3.8707,3.8707,3.8707,3.8707,3.8707,3.8707,3.8707,3.7141,3.707,3.733,3.6914,0.0,0.0,3.7906,3.8377,3.8798,3.962,4.0597,4.1459,4.1981,4.2722,4.325,4.325,4.3392,4.3515,4.3515,4.3515,4.3515,4.3515,4.3791,4.3993,4.3993,4.4287,4.436,4.403,4.3993,4.3993,4.3993,4.3993,4.4378,4.5186,4.4745,4.4488,4.4488,4.4966,4.5204,4.5204,4.5204,4.5021,4.4673,4.4213,4.3809,4.3515,4.3515,4.3515,4.3515,4.3515,4.3515,4.3515,4.3515,4.3515,4.3515,4.3515,4.3515,4.3515,4.3515,4.3515,4.3515,4.3515,4.3515,4.3515,4.3515,4.3515,4.3515,4.3515,4.3515,4.3515,4.3515,4.3515,4.3515,4.3515,4.3515,4.3515,4.3515,4.3515,4.3368,4.2892,4.2415,4.1992,4.1645,4.159,4.1332,4.0524,4.0396,4.0102,3.9294,3.9203,3.9203,3.9203,3.8909,3.8836,3.9166,3.9203,3.9056,3.8726,3.9019,3.9056,3.8707,3.8707,3.8707,3.8707,3.8707,3.8707,3.8707,3.8707,3.8707,3.8707,3.8707,3.8707,3.6582,3.6525,3.6669,3.6671,3.6677,0.0,3.7305,3.8049,3.8604,3.8508,3.9792,4.0925,4.0925,4.1954,4.2788,4.2863,4.3142,4.3374,4.3479,4.3515,4.3515,4.3515,4.4121,4.4617,4.4691,4.5351,4.548,4.4746,4.4618,4.4654,4.4837,4.4746,4.5112,4.6012,4.5957,4.5902,4.5902,4.5993,4.603,4.603,4.603,4.5663,4.4948,4.4764,4.4305,4.3643,4.3551,4.3515,4.3515,4.3515,4.3515,4.3515,4.3515,4.3515,4.3515,4.3515,4.3515,4.3515,4.3515,4.3515,4.3515,4.3515,4.3515,4.3515,4.3515,4.3515,4.3515,4.3515,4.3515,4.3515,4.3515,4.3515,4.3515,4.3515,4.3515,4.3515,4.3515,4.3515,4.3515,4.3515,4.3515,4.3276,4.2561,4.2433,4.2158,4.1352,4.1224,4.093,4.0139,4.0029,4.0029,4.0029,3.9313,3.9129,3.9827,3.99,3.9588,3.8891,3.9496,3.957,3.8854,3.8762,3.8707,3.8707,3.8707,3.8707,3.8707,3.8707,3.8707,3.8707,3.8707,3.8707,3.5193,3.5446,3.5898,3.584,3.5819,0.0,3.6763,3.7592,3.8373,3.8945,4.0123,4.1054,4.1054,4.1576,4.2162,4.2655,4.2482,4.258,4.3392,4.3515,4.3515,4.3515,4.3626,4.3993,4.4654,4.4838,4.4856,4.4727,4.4103,4.4287,4.5608,4.5057,4.537,4.6819,4.625,4.5902,4.5902,4.6526,4.6856,4.6856,4.6856,4.6782,4.6581,4.5278,4.4617,4.4433,4.3773,4.3515,4.3515,4.3515,4.3515,4.3515,4.3515,4.3515,4.3515,4.3515,4.3515,4.3515,4.3515,4.3515,4.3515,4.3515,4.3515,4.3515,4.3515,4.3515,4.3515,4.3515,4.3515,4.3515,4.3515,4.3515,4.3515,4.3515,4.3515,4.3515,4.3515,4.3515,4.3515,4.3515,4.3515,4.346,4.3277,4.3276,4.2983,4.2194,4.2066,4.1791,4.0967,4.0873,4.0873,4.0873,4.0157,3.9717,3.9882,3.99,3.9827,3.968,3.9808,3.9827,3.9662,3.9038,3.8707,3.8707,3.8707,3.8707,3.8707,3.8707,3.8707,3.8707,3.8707,3.8707,3.4106,3.4372,3.4816,3.5041,3.5161,0.0,0.0,3.653,3.7068,3.7831,3.8852,3.9709,4.0087,4.0856,4.1552,4.1849,4.1895,4.2246,4.318,4.325,4.3286,4.348,4.3846,4.4268,4.4672,4.5057,4.5296,4.5296,4.4544,4.48,4.6416,4.6104,4.6452,4.7663,4.7315,4.7095,4.7095,4.7498,4.77,4.77,4.77,4.7278,4.6471,4.5681,4.4856,4.4085,4.368,4.3515,4.3515,4.3515,4.3515,4.3515,4.3515,4.3515,4.3515,4.3515,4.3515,4.3515,4.3515,4.3515,4.3515,4.3515,4.3515,4.3515,4.3515,4.3515,4.3515,4.3515,4.3515,4.3515,4.3515,4.3515,4.3515,4.3515,4.3515,4.3515,4.3515,4.3515,4.3515,4.3515,4.3515,4.3515,4.3515,4.3515,4.3368,4.2947,4.2892,4.2598,4.1809,4.1699,4.1699,4.1699,4.0616,4.0065,4.0469,4.012,3.99,3.99,3.99,3.99,3.99,3.9129,3.8707,3.8707,3.8707,3.8707,3.8707,3.8707,3.8707,3.8707,3.8707,3.8707,3.3288,3.3513,3.3912,3.4342,3.4616,3.4904,0.0,0.0,0.0,3.684,3.7678,3.8496,3.9236,4.0216,4.0955,4.1053,4.1431,4.2036,4.2942,4.3033,4.3201,4.3761,4.4197,4.4599,4.4893,4.5516,4.5902,4.5902,4.5296,4.5572,4.7021,4.7094,4.7461,4.8269,4.8306,4.8306,4.8306,4.8306,4.8306,4.8306,4.8141,4.7388,4.6122,4.581,4.4966,4.3718,4.357,4.3515,4.3515,4.3515,4.3515,4.3515,4.3515,4.3515,4.3515,4.3515,4.3515,4.3515,4.3515,4.3515,4.3515,4.3515,4.3515,4.3515,4.3515,4.3515,4.3515,4.3515,4.3515,4.3515,4.3515,4.3515,4.3515,4.3515,4.3515,4.3515,4.3515,4.3515,4.3515,4.3515,4.3515,4.3515,4.3515,4.3515,4.3515,4.3515,4.3515,4.3276,4.2598,4.2525,4.2525,4.2525,4.1222,4.0561,4.1058,4.0506,4.0065,3.9916,3.99,3.99,3.99,3.9129,3.8707,3.8707,3.8707,3.8707,3.8707,3.8707,3.8707,3.8707,3.8707,3.8707,3.2829,3.324,3.381,3.387,3.435,3.4833,3.488,0.0,3.6897,3.7618,0.0,3.9114,3.9867,0.0,0.0,4.085,4.1233,4.1795,4.2772,4.3172,4.3759,4.4865,4.42,4.4195,4.5626,4.5847,4.5902,4.5902,4.581,4.6159,4.7058,4.7094,4.7461,4.8269,4.8306,4.8306,4.8306,4.8306,4.8306,4.8306,4.7571,4.7131,4.6911,4.548,4.4745,4.4525,4.3809,4.3515,4.3515,4.3515,4.3515,4.3515,4.3515,4.3515,4.3515,4.3515,4.3515,4.3515,4.3515,4.3515,4.3515,4.3515,4.3515,4.3515,4.3515,4.3515,4.3515,4.3515,4.3515,4.3515,4.3515,4.3515,4.3515,4.3515,4.3515,4.3515,4.3515,4.3515,4.3515,4.3515,4.3515,4.3515,4.3515,4.3515,4.3515,4.3515,4.3515,4.3478,4.3386,4.3368,4.3368,4.3368,4.2561,4.1791,4.115,4.1022,4.0671,3.9937,3.99,3.99,3.99,3.9129,3.8707,3.8707,3.8707,3.8707,3.8707,3.8707,3.8707,3.8707,3.8707,3.8707,3.3183,3.313,3.337,3.4176,3.4351,3.463,3.5795,3.6505,3.7216,3.8306,0.0,0.0,0.0,0.0,0.0,0.0,4.1197,4.1759,4.318,4.3321,4.3705,4.4833,4.4324,4.414,4.4743,4.5041,4.5406,4.5865,4.6342,4.6947,4.7736,4.7542,4.7668,4.8268,4.8035,4.8015,4.8287,4.8306,4.8306,4.8306,4.7957,4.7553,4.7076,4.6397,4.5572,4.4673,4.4342,4.392,4.3515,4.3515,4.3515,4.3515,4.3515,4.3515,4.3515,4.3515,4.3515,4.3515,4.3515,4.3515,4.3515,4.3515,4.3515,4.3515,4.3515,4.3515,4.3515,4.3515,4.3515,4.3515,4.3515,4.3515,4.3515,4.3515,4.3515,4.3515,4.3515,4.3515,4.3515,4.3515,4.3515,4.3515,4.3515,4.3515,4.3515,4.3515,4.3515,4.3515,4.3515,4.3515,4.3515,4.3515,4.2782,4.2158,4.1827,4.0946,4.0469,4.0598,4.0157,3.968,3.9221,3.8891,3.8707,3.8707,3.8707,3.8707,3.8707,3.8707,3.8707,3.8707,3.8707,3.8707,3.332,3.3231,3.3456,3.4292,3.44,3.4652,3.6123,3.6593,3.7133,3.848,3.8748,0.0,0.0,0.0,4.0561,4.1119,0.0,4.2228,4.3437,4.3596,4.394,4.492,4.4707,4.4413,4.4223,4.4759,4.5406,4.614,4.6966,4.7625,4.8076,4.7795,4.7775,4.8113,4.7557,4.7488,4.7957,4.7957,4.7957,4.7957,4.7957,4.7663,4.7094,4.6856,4.5993,4.4691,4.4691,4.425,4.3515,4.3515,4.3515,4.3515,4.3515,4.3515,4.3515,4.3515,4.3515,4.3515,4.3515,4.3515,4.3515,4.3515,4.3515,4.3515,4.3515,4.3515,4.3515,4.3515,4.3515,4.3515,4.3515,4.3515,4.3515,4.3515,4.3515,4.3515,4.3515,4.3515,4.3515,4.3515,4.3515,4.3515,4.3515,4.3515,4.3515,4.3515,4.3515,4.3515,4.3515,4.3515,4.3515,4.3515,4.2983,4.2543,4.2323,4.1222,4.0616,4.0763,4.0212,3.9533,3.8726,3.8707,3.8707,3.8707,3.8707,3.8707,3.8707,3.8707,3.8707,3.8707,3.8707,3.8707,3.2886,3.3561,3.4496,3.391,3.4368,3.4983,3.5043,3.5616,3.6501,3.7843,3.8122,3.8535,3.986,4.0679,4.117,4.1204,4.2405,0.0,0.0,4.4073,4.4838,4.5578,4.5356,4.5062,4.4788,4.5606,4.6379,4.6923,4.7772,4.8076,4.7653,4.7611,4.7611,4.7611,4.6848,4.665,4.7131,4.7131,4.7131,4.7131,4.7131,4.7113,4.7076,4.6287,4.5498,4.4691,4.4691,4.425,4.3515,4.3515,4.3515,4.3515,4.3515,4.3515,4.3515,4.3515,4.3515,4.3515,4.3515,4.3515,4.3515,4.3515,4.3515,4.3515,4.3515,4.3515,4.3515,4.3515,4.3515,4.3515,4.3515,4.3515,4.3515,4.3515,4.3515,4.3515,4.3515,4.3515,4.3515,4.3515,4.3515,4.3515,4.3515,4.3515,4.3515,4.3515,4.3515,4.3515,4.3515,4.3515,4.3515,4.3515,4.3478,4.3149,4.2378,4.2249,4.157,4.0029,3.99,3.9533,3.8726,3.8707,3.8707,3.8707,3.8707,3.8707,3.8707,3.8707,3.8707,3.8707,3.8707,3.8707,0.0,0.0,3.4071,3.4827,3.4926,3.5063,3.6035,3.6513,3.6995,3.7869,3.8471,3.896,3.9437,4.0447,4.1373,4.1847,4.2777,4.3606,0.0,4.4445,4.4692,4.4934,4.507,4.4982,4.4636,4.5184,4.5619,4.5791,4.6697,4.7164,4.7008,4.6799,4.684,4.7115,4.6864,4.696,4.7436,4.773,4.7902,4.7902,4.7902,4.7902,4.7865,4.7609,4.7058,4.6287,4.6287,4.5828,4.5039,4.4507,4.4287,4.425,4.3699,4.3515,4.3515,4.3515,4.3515,4.3515,4.3515,4.3515,4.3515,4.3515,4.3515,4.3515,4.3515,4.3515,4.3515,4.3515,4.3515,4.3515,4.3515,4.3515,4.3515,4.3515,4.3515,4.3515,4.3515,4.3515,4.3515,4.3515,4.3515,4.3515,4.3515,4.3515,4.3515,4.3515,4.3515,4.3515,4.3515,4.3515,4.3515,4.3515,4.3515,4.3404,4.3112,4.2598,4.1846,4.0763,4.0689,4.0341,3.9533,4.001,3.9774,3.8726,3.9221,3.9239,3.8707,3.8707,3.8707,3.8707,3.8707,3.8707,3.3948,3.3978,0.0,3.5351,3.5339,3.5302,3.626,3.66,3.689,3.7469,3.8064,3.8502,3.8684,3.9893,4.109,4.1802,4.2749,4.369,0.0,4.4615,4.4615,4.4615,4.4792,4.4781,4.442,4.4949,4.5281,4.5205,4.607,4.6531,4.643,4.6394,4.6459,4.6649,4.6708,4.6877,4.7174,4.7478,4.7712,4.7865,4.7986,4.8132,4.8306,4.8306,4.7846,4.7094,4.7094,4.6636,4.5865,4.5351,4.4966,4.4636,4.4121,4.3736,4.3515,4.3515,4.3515,4.3515,4.3515,4.3515,4.3515,4.3515,4.3515,4.3515,4.3515,4.3515,4.3515,4.3515,4.3515,4.3515,4.3515,4.3515,4.3515,4.3515,4.3515,4.3515,4.3515,4.3515,4.3515,4.3515,4.3515,4.3515,4.3515,4.3515,4.3515,4.3515,4.3515,4.3515,4.3515,4.3515,4.3515,4.3515,4.3515,4.3515,4.3515,4.302,4.2378,4.1572,4.1534,4.1167,4.0359,4.082,4.06,3.9554,3.9772,3.9643,3.9129,3.8836,3.8707,3.8707,3.9001,3.8964]}]]